[[{"header":{"parameterUnit":"m.s-1","parameterCategory":1,"la1":30.6,"la2":29.2853,"lo1":-89.7004,"lo2":-87.6739,"dy":0.0162,"dx":0.0183,"nx":112,"ny":82,"refTime":"2024-07-14T18:00:00:Z","depth":0,"parameterNumber":2,"parameterNumberName":"U-component_of_WINDS"},"data":[0.0,0.0,0.0,0.0,0.0,0.0,0.0,0.0,0.0,0.0,0.0,0.0,0.0,0.0,0.0,0.0,0.0,0.0,0.0,0.0,0.0,0.0,0.0,0.0,0.0,0.0,0.0,0.0,0.0,0.0,0.0,0.0,0.0,0.0,0.0,0.0,0.0,0.0,0.0,0.0,0.0,0.0,0.0,0.0,0.0,0.0,0.0,0.0,0.0,0.0,0.0,0.0,0.0,0.0,0.0,0.0,0.0,0.0,0.0,0.0,0.0,0.0,0.0,0.0,0.0,0.0,0.0,0.0,0.0,0.0,0.0,0.0,0.0,0.0,0.0,0.0,0.0,0.0,0.0,0.0,0.0,0.0,0.0,0.0,0.0,0.0,0.0,0.0,0.0,0.0,-1.8957,-1.9615,-1.9682,-1.969,-1.9697,-1.9632,-1.8982,-1.7571,0.0,0.0,0.0,0.0,0.0,0.0,0.0,0.0,0.0,0.0,0.0,0.0,0.0,0.0,0.0,0.0,0.0,0.0,0.0,0.0,0.0,0.0,0.0,0.0,0.0,0.0,0.0,0.0,0.0,0.0,0.0,0.0,0.0,0.0,0.0,0.0,0.0,0.0,0.0,0.0,0.0,0.0,0.0,0.0,0.0,0.0,0.0,0.0,0.0,0.0,0.0,0.0,0.0,0.0,0.0,0.0,0.0,0.0,0.0,0.0,0.0,0.0,0.0,0.0,0.0,0.0,0.0,0.0,0.0,0.0,0.0,0.0,0.0,0.0,0.0,0.0,0.0,0.0,0.0,0.0,0.0,0.0,0.0,0.0,0.0,0.0,0.0,0.0,0.0,0.0,0.0,0.0,0.0,0.0,0.0,0.0,0.0,0.0,0.0,0.0,0.0,0.0,0.0,0.0,-1.8957,-1.9615,-1.9682,-1.9697,-1.9611,-1.9618,-1.8982,-1.7504,0.0,0.0,0.0,0.0,0.0,0.0,0.0,0.0,0.0,0.0,0.0,0.0,0.0,0.0,0.0,0.0,0.0,0.0,0.0,0.0,0.0,0.0,0.0,0.0,0.0,0.0,0.0,0.0,0.0,0.0,0.0,0.0,0.0,0.0,0.0,0.0,0.0,0.0,0.0,0.0,0.0,0.0,0.0,0.0,0.0,0.0,0.0,0.0,0.0,0.0,0.0,0.0,0.0,0.0,0.0,0.0,0.0,0.0,0.0,0.0,0.0,0.0,0.0,0.0,0.0,0.0,0.0,0.0,0.0,0.0,0.0,0.0,0.0,0.0,0.0,0.0,0.0,0.0,0.0,0.0,0.0,0.0,0.0,0.0,0.0,0.0,0.0,0.0,0.0,0.0,0.0,0.0,0.0,0.0,0.0,0.0,0.0,0.0,0.0,0.0,0.0,0.0,0.0,-1.9046,-1.9361,-1.9639,-1.964,-1.9596,-1.9501,-1.9457,-1.8868,-1.7504,-1.7315,0.0,0.0,0.0,0.0,0.0,0.0,0.0,0.0,0.0,0.0,0.0,0.0,0.0,0.0,0.0,0.0,0.0,0.0,0.0,0.0,0.0,0.0,0.0,0.0,0.0,0.0,0.0,0.0,0.0,0.0,0.0,0.0,0.0,0.0,0.0,0.0,0.0,0.0,0.0,0.0,0.0,0.0,0.0,0.0,0.0,0.0,0.0,0.0,0.0,0.0,0.0,0.0,0.0,0.0,0.0,0.0,0.0,0.0,0.0,0.0,0.0,0.0,0.0,0.0,0.0,0.0,0.0,0.0,0.0,0.0,0.0,0.0,0.0,0.0,0.0,0.0,0.0,0.0,0.0,0.0,0.0,0.0,0.0,0.0,0.0,0.0,0.0,0.0,0.0,0.0,0.0,0.0,0.0,0.0,0.0,0.0,0.0,0.0,0.0,0.0,0.0,0.0,-1.9585,-1.9654,-1.9618,-1.9618,-1.9538,-1.9384,-1.9192,-1.8584,-1.7422,-1.7095,0.0,0.0,0.0,0.0,0.0,0.0,0.0,0.0,0.0,0.0,0.0,0.0,0.0,0.0,0.0,0.0,0.0,0.0,0.0,0.0,0.0,0.0,0.0,0.0,0.0,0.0,0.0,0.0,0.0,0.0,0.0,0.0,0.0,0.0,0.0,0.0,0.0,0.0,0.0,0.0,0.0,0.0,0.0,0.0,0.0,0.0,0.0,0.0,0.0,0.0,0.0,0.0,0.0,0.0,0.0,0.0,0.0,0.0,0.0,0.0,0.0,0.0,0.0,0.0,0.0,0.0,0.0,0.0,0.0,0.0,0.0,0.0,0.0,0.0,0.0,0.0,0.0,0.0,0.0,0.0,0.0,0.0,0.0,0.0,0.0,0.0,0.0,0.0,0.0,0.0,0.0,0.0,0.0,0.0,0.0,0.0,0.0,0.0,0.0,0.0,0.0,0.0,-1.9301,-1.9654,-1.9618,-1.9618,-1.9538,-1.9339,-1.8717,-1.8045,-1.725,-1.6619,0.0,0.0,0.0,0.0,0.0,0.0,0.0,0.0,0.0,0.0,0.0,0.0,0.0,0.0,0.0,0.0,0.0,0.0,0.0,0.0,0.0,0.0,0.0,0.0,0.0,0.0,0.0,0.0,0.0,0.0,0.0,0.0,0.0,0.0,0.0,0.0,0.0,0.0,0.0,0.0,0.0,0.0,0.0,0.0,0.0,0.0,0.0,0.0,0.0,0.0,0.0,0.0,0.0,0.0,0.0,0.0,0.0,0.0,0.0,0.0,0.0,0.0,0.0,0.0,0.0,0.0,0.0,0.0,0.0,0.0,0.0,0.0,0.0,0.0,0.0,0.0,0.0,0.0,0.0,0.0,0.0,0.0,0.0,0.0,0.0,0.0,0.0,0.0,0.0,0.0,0.0,0.0,0.0,0.0,0.0,0.0,0.0,0.0,0.0,0.0,0.0,0.0,-1.923,-1.9567,-1.942,-1.942,-1.9339,-1.9183,-1.8957,-1.8339,-1.7272,0.0,0.0,0.0,0.0,0.0,0.0,0.0,0.0,0.0,0.0,0.0,0.0,0.0,0.0,0.0,0.0,0.0,0.0,0.0,0.0,0.0,0.0,0.0,0.0,0.0,0.0,0.0,0.0,0.0,0.0,0.0,0.0,0.0,0.0,0.0,0.0,0.0,0.0,0.0,0.0,0.0,0.0,0.0,0.0,0.0,0.0,0.0,0.0,0.0,0.0,0.0,0.0,0.0,0.0,0.0,0.0,0.0,0.0,0.0,0.0,0.0,0.0,0.0,0.0,0.0,0.0,0.0,0.0,0.0,0.0,0.0,0.0,0.0,0.0,0.0,0.0,0.0,0.0,0.0,0.0,0.0,0.0,0.0,0.0,0.0,0.0,0.0,0.0,0.0,0.0,0.0,0.0,0.0,0.0,0.0,0.0,0.0,0.0,0.0,0.0,0.0,0.0,-1.8223,-1.9004,-1.9494,-1.9339,-1.9302,-1.9258,-1.9101,-1.8731,-1.8136,-1.7258,0.0,0.0,0.0,0.0,0.0,0.0,0.0,0.0,0.0,0.0,0.0,0.0,0.0,0.0,0.0,0.0,0.0,0.0,0.0,0.0,0.0,0.0,0.0,0.0,0.0,0.0,0.0,0.0,0.0,0.0,0.0,0.0,0.0,0.0,0.0,0.0,0.0,0.0,0.0,0.0,0.0,0.0,0.0,0.0,0.0,0.0,0.0,0.0,0.0,0.0,0.0,0.0,0.0,0.0,0.0,0.0,0.0,0.0,0.0,0.0,0.0,0.0,0.0,0.0,0.0,0.0,0.0,0.0,0.0,0.0,0.0,0.0,0.0,0.0,0.0,0.0,0.0,0.0,0.0,0.0,0.0,0.0,0.0,0.0,0.0,0.0,0.0,0.0,0.0,0.0,0.0,0.0,0.0,0.0,0.0,0.0,0.0,0.0,0.0,0.0,0.0,0.0,-1.7584,-1.8638,-1.9376,-1.9302,-1.9302,-1.925,-1.9094,-1.794,-1.7207,0.0,0.0,0.0,0.0,0.0,0.0,0.0,0.0,0.0,0.0,0.0,0.0,0.0,0.0,0.0,0.0,0.0,0.0,0.0,0.0,0.0,0.0,0.0,0.0,0.0,0.0,0.0,0.0,0.0,0.0,0.0,0.0,0.0,0.0,0.0,0.0,0.0,0.0,0.0,0.0,0.0,0.0,0.0,0.0,0.0,0.0,0.0,0.0,0.0,0.0,0.0,0.0,0.0,0.0,0.0,0.0,0.0,0.0,0.0,0.0,0.0,0.0,0.0,0.0,0.0,0.0,0.0,0.0,0.0,0.0,0.0,0.0,0.0,0.0,0.0,0.0,0.0,0.0,0.0,0.0,0.0,0.0,0.0,0.0,0.0,0.0,0.0,0.0,0.0,0.0,0.0,0.0,0.0,0.0,0.0,0.0,0.0,0.0,0.0,0.0,0.0,0.0,0.0,-1.7408,-1.8532,-1.9302,-1.9183,-1.9139,-1.8964,-1.8499,-1.8129,-1.7505,-1.6561,0.0,0.0,0.0,0.0,0.0,0.0,0.0,0.0,0.0,0.0,0.0,0.0,0.0,0.0,0.0,0.0,0.0,0.0,0.0,0.0,0.0,0.0,0.0,0.0,0.0,0.0,0.0,0.0,0.0,0.0,0.0,0.0,0.0,0.0,0.0,0.0,0.0,0.0,0.0,0.0,0.0,0.0,0.0,0.0,0.0,0.0,0.0,0.0,0.0,0.0,0.0,0.0,0.0,0.0,0.0,0.0,0.0,0.0,0.0,0.0,0.0,0.0,0.0,0.0,0.0,0.0,0.0,0.0,0.0,0.0,0.0,0.0,0.0,0.0,0.0,0.0,0.0,0.0,0.0,0.0,0.0,0.0,0.0,0.0,0.0,0.0,0.0,0.0,0.0,0.0,0.0,0.0,0.0,0.0,0.0,0.0,0.0,0.0,0.0,0.0,0.0,0.0,-1.7315,-1.8425,-1.9183,-1.9101,-1.9101,-1.8862,-1.8259,-1.7962,-1.7345,-1.6278,0.0,0.0,0.0,0.0,0.0,0.0,0.0,0.0,0.0,0.0,0.0,0.0,0.0,0.0,0.0,0.0,0.0,0.0,0.0,0.0,0.0,0.0,0.0,0.0,0.0,0.0,0.0,0.0,0.0,0.0,0.0,0.0,0.0,0.0,0.0,0.0,0.0,0.0,0.0,0.0,0.0,0.0,0.0,0.0,0.0,0.0,0.0,0.0,0.0,0.0,0.0,0.0,0.0,0.0,0.0,0.0,0.0,0.0,0.0,0.0,0.0,0.0,0.0,0.0,0.0,0.0,0.0,0.0,0.0,0.0,0.0,0.0,0.0,0.0,0.0,0.0,0.0,0.0,0.0,0.0,0.0,0.0,0.0,0.0,0.0,0.0,0.0,0.0,0.0,0.0,0.0,0.0,0.0,0.0,0.0,0.0,0.0,0.0,0.0,0.0,0.0,0.0,-1.7282,-1.8353,-1.9101,-1.9101,-1.9101,-1.8862,-1.8259,-1.7599,-1.6917,-1.6249,0.0,0.0,0.0,0.0,0.0,0.0,0.0,0.0,0.0,0.0,0.0,0.0,0.0,0.0,0.0,0.0,0.0,0.0,0.0,0.0,0.0,0.0,0.0,0.0,0.0,0.0,0.0,0.0,0.0,0.0,0.0,0.0,0.0,0.0,0.0,0.0,0.0,0.0,0.0,0.0,0.0,0.0,0.0,0.0,0.0,0.0,0.0,0.0,0.0,0.0,0.0,0.0,0.0,0.0,0.0,0.0,0.0,0.0,0.0,0.0,-1.4879,-1.4755,0.0,0.0,0.0,0.0,0.0,0.0,0.0,0.0,0.0,0.0,0.0,0.0,0.0,0.0,0.0,0.0,0.0,0.0,0.0,0.0,0.0,0.0,0.0,0.0,0.0,0.0,0.0,0.0,0.0,0.0,0.0,0.0,0.0,0.0,0.0,0.0,0.0,0.0,0.0,0.0,-1.7241,-1.8317,-1.9101,-1.9101,-1.9101,-1.8862,-1.8259,-1.7599,-1.6917,-1.6249,-1.5647,0.0,0.0,0.0,0.0,0.0,0.0,0.0,0.0,0.0,0.0,0.0,0.0,0.0,0.0,0.0,0.0,0.0,0.0,0.0,0.0,0.0,0.0,0.0,0.0,0.0,0.0,0.0,0.0,0.0,0.0,0.0,0.0,0.0,0.0,0.0,0.0,0.0,0.0,0.0,0.0,0.0,0.0,0.0,0.0,0.0,0.0,0.0,0.0,0.0,0.0,0.0,0.0,0.0,0.0,0.0,0.0,0.0,0.0,0.0,-1.5421,-1.5363,0.0,0.0,0.0,0.0,0.0,0.0,0.0,0.0,0.0,0.0,0.0,0.0,0.0,0.0,0.0,0.0,0.0,0.0,0.0,0.0,0.0,0.0,0.0,0.0,0.0,0.0,0.0,0.0,0.0,0.0,0.0,0.0,0.0,0.0,0.0,0.0,0.0,0.0,0.0,0.0,-1.7207,-1.8317,-1.9101,-1.9101,-1.9101,-1.8862,-1.8259,-1.7599,-1.6917,-1.6249,-1.5647,0.0,0.0,0.0,0.0,0.0,0.0,0.0,0.0,0.0,0.0,0.0,0.0,0.0,0.0,0.0,0.0,0.0,0.0,0.0,0.0,0.0,0.0,0.0,0.0,0.0,0.0,0.0,0.0,0.0,0.0,0.0,0.0,0.0,0.0,0.0,0.0,0.0,0.0,0.0,0.0,0.0,0.0,0.0,0.0,0.0,0.0,0.0,0.0,0.0,0.0,0.0,0.0,0.0,-1.6029,-1.6049,-1.6519,-1.6016,-1.6062,-1.6506,-1.6003,-1.6075,-1.6486,-1.5744,0.0,0.0,0.0,0.0,0.0,0.0,0.0,0.0,0.0,0.0,0.0,0.0,0.0,0.0,0.0,0.0,0.0,0.0,0.0,0.0,0.0,0.0,-1.8223,-1.7664,-1.7962,-1.8251,-1.7878,0.0,0.0,0.0,0.0,0.0,0.0,0.0,0.0,0.0,0.0,0.0,-1.7381,-1.8383,-1.9101,-1.9101,-1.9101,-1.8898,-1.8404,-1.7657,-1.6967,-1.6416,-1.5705,-1.5313,0.0,0.0,0.0,0.0,0.0,0.0,0.0,0.0,0.0,0.0,0.0,0.0,0.0,0.0,0.0,0.0,0.0,0.0,0.0,0.0,0.0,0.0,0.0,0.0,0.0,0.0,0.0,0.0,0.0,0.0,0.0,0.0,-1.3102,-1.3656,0.0,0.0,0.0,0.0,0.0,0.0,0.0,0.0,0.0,0.0,0.0,0.0,0.0,-1.6277,-1.6277,-1.6741,-1.7016,-1.7088,-1.7009,-1.7016,-1.7088,-1.7009,-1.7016,-1.7088,-1.7009,0.0,-1.7048,-1.6353,0.0,0.0,0.0,0.0,0.0,0.0,0.0,0.0,0.0,0.0,0.0,0.0,0.0,0.0,0.0,0.0,0.0,0.0,0.0,0.0,0.0,0.0,-1.8956,-1.8869,-1.892,-1.9,-1.9068,-1.8679,-1.8439,-1.8877,-1.8629,-1.8248,0.0,0.0,0.0,0.0,0.0,0.0,-1.8078,-1.8673,-1.9101,-1.9101,-1.9101,-1.9072,-1.8992,-1.7889,-1.7171,-1.7084,-1.5973,-1.5313,-1.5313,-1.5313,0.0,0.0,0.0,0.0,0.0,0.0,0.0,0.0,0.0,0.0,0.0,0.0,0.0,0.0,0.0,0.0,0.0,0.0,0.0,0.0,0.0,0.0,0.0,0.0,0.0,0.0,0.0,0.0,0.0,-1.2931,-1.4127,-1.3622,-1.4417,-1.4824,0.0,0.0,0.0,0.0,0.0,0.0,0.0,0.0,0.0,-1.6201,-1.6407,-1.6619,-1.6846,-1.7081,-1.7199,-1.7199,-1.7199,-1.7199,-1.7199,-1.7199,-1.7199,-1.7199,-1.7199,-1.7199,-1.7179,-1.6773,-1.6545,-1.6466,0.0,0.0,0.0,0.0,-1.595,-1.6164,-1.6258,-1.644,-1.6591,-1.6258,0.0,0.0,0.0,0.0,0.0,0.0,0.0,-1.7369,-1.8043,-1.8651,-1.9101,-1.9101,-1.9101,-1.921,-1.9664,-1.9526,-1.93,-1.9272,-1.9571,-1.9497,-1.844,-1.8273,0.0,0.0,0.0,-1.8208,-1.8208,-1.8731,-1.9101,-1.9101,-1.9101,-1.9101,-1.9101,-1.8288,-1.7606,-1.7229,-1.6329,-1.5661,-1.532,-1.5313,-1.5313,0.0,0.0,0.0,0.0,0.0,0.0,0.0,0.0,0.0,0.0,0.0,0.0,0.0,0.0,0.0,0.0,0.0,0.0,0.0,0.0,0.0,0.0,0.0,0.0,0.0,0.0,0.0,0.0,-1.3902,-1.4722,-1.3956,-1.4782,-1.5182,0.0,0.0,0.0,0.0,0.0,0.0,-1.6335,-1.6447,-1.6604,-1.6817,-1.695,-1.704,-1.7199,-1.7349,-1.7349,-1.7199,-1.7199,-1.7199,-1.7199,-1.7199,-1.7199,-1.7199,-1.7199,-1.7199,-1.7157,-1.696,-1.6882,-1.6876,-1.6607,-1.6515,-1.6515,-1.6515,-1.6616,-1.6779,-1.7061,-1.7262,-1.7313,-1.6879,-1.6641,-1.6396,-1.5718,0.0,0.0,0.0,0.0,-1.7567,-1.8237,-1.8767,-1.9101,-1.9101,-1.9101,-1.9239,-1.974,-1.9841,-1.9829,-1.9746,-2.0313,-2.0328,-1.8934,-1.892,0.0,-1.7831,-1.8114,-1.8433,-1.8433,-1.8825,-1.9101,-1.9101,-1.9101,-1.9101,-1.9101,-1.8557,-1.7998,-1.7497,-1.6746,-1.5991,-1.5337,-1.5305,-1.5293,-1.5293,0.0,0.0,0.0,0.0,0.0,0.0,0.0,0.0,0.0,0.0,0.0,0.0,0.0,0.0,0.0,0.0,0.0,0.0,0.0,0.0,0.0,0.0,0.0,0.0,0.0,0.0,0.0,0.0,0.0,-1.5094,-1.567,0.0,0.0,0.0,0.0,-1.6064,-1.692,-1.7297,-1.6984,-1.7482,-1.7713,-1.7476,-1.8,-1.7955,-1.7205,-1.7767,-1.7767,-1.7199,-1.7199,-1.7199,-1.7199,-1.7199,-1.7199,-1.7199,-1.7199,-1.7122,-1.7002,-1.6918,-1.6882,-1.6876,-1.6607,-1.6515,-1.6515,-1.6515,-1.6861,-1.7262,-1.6741,-1.6923,-1.7375,-1.7344,-1.6967,-1.6616,-1.7112,-1.6844,0.0,0.0,-1.8039,-1.8542,-1.8938,-1.9079,-1.9101,-1.9101,-1.9101,-1.9108,-1.9145,-1.9152,-1.9493,-2.0669,-2.0487,-2.0117,-2.0023,0.0,-1.9079,-1.9014,-1.9036,-1.905,-1.905,-1.9079,-1.9101,-1.9101,-1.9101,-1.9101,-1.9101,-1.8557,-1.8194,-1.8158,-1.7159,-1.6195,-1.5345,-1.531,-1.529,-1.529,-1.5291,0.0,0.0,0.0,0.0,0.0,0.0,0.0,0.0,0.0,0.0,0.0,0.0,0.0,0.0,0.0,0.0,0.0,0.0,0.0,0.0,0.0,0.0,0.0,0.0,0.0,0.0,0.0,0.0,-1.5835,-1.6315,0.0,-1.584,-1.6425,-1.6818,-1.6681,-1.734,-1.7714,-1.761,-1.7767,-1.7788,-1.7516,-1.7729,-1.7618,-1.7199,-1.7414,-1.7414,-1.7199,-1.7199,-1.7199,-1.7199,-1.7199,-1.7199,-1.7199,-1.7199,-1.7122,-1.7002,-1.6918,-1.684,-1.6754,-1.6571,-1.6515,-1.6515,-1.6515,-1.6647,-1.6798,-1.6584,-1.6898,-1.7382,-1.7382,-1.6992,-1.6553,-1.676,-1.684,-1.7053,-1.7619,-1.8147,-1.8584,-1.8981,-1.9101,-1.9101,-1.9101,-1.9101,-1.9101,-1.9101,-1.9101,-1.9232,-1.9689,-1.995,-1.9965,-1.9529,-1.9616,-1.9602,-1.9166,-1.9101,-1.9101,-1.9101,-1.9101,-1.9101,-1.9101,-1.9101,-1.9101,-1.9101,-1.8898,-1.8542,-1.7985,-1.8091,-1.7345,-1.538,-1.5305,-1.5312,-1.5312,-1.5291,-1.5313,0.0,0.0,0.0,0.0,0.0,0.0,0.0,0.0,0.0,0.0,0.0,0.0,0.0,0.0,0.0,0.0,0.0,0.0,0.0,0.0,0.0,0.0,0.0,0.0,0.0,-1.6683,-1.723,-1.6488,-1.6939,-1.7068,-1.6464,-1.6946,-1.7292,-1.7292,-1.7658,-1.7882,-1.7882,-1.7882,-1.7788,-1.7516,-1.7516,-1.7399,-1.7199,-1.7199,-1.7199,-1.7199,-1.7199,-1.7199,-1.7199,-1.7199,-1.7199,-1.7199,-1.7025,-1.6989,-1.696,-1.6754,-1.6577,-1.6448,-1.6479,-1.6515,-1.6515,-1.6515,-1.6515,-1.6515,-1.6515,-1.6766,-1.7093,-1.7093,-1.6829,-1.6515,-1.6515,-1.6814,-1.7275,-1.7673,-1.8147,-1.8584,-1.8981,-1.9101,-1.9101,-1.9101,-1.9101,-1.9101,-1.9101,-1.9101,-1.9101,-1.9101,-1.9457,-1.9624,-1.9181,-1.9471,-1.9609,-1.9166,-1.9101,-1.9101,-1.9101,-1.9101,-1.9101,-1.9101,-1.9101,-1.9101,-1.9101,-1.9101,-1.8853,-1.8288,-1.8768,-1.8332,-1.6656,-1.658,-1.6182,-1.5305,-1.5727,-1.5943,-1.5951,0.0,0.0,0.0,0.0,0.0,0.0,0.0,0.0,0.0,0.0,0.0,0.0,0.0,0.0,0.0,0.0,0.0,0.0,0.0,0.0,0.0,0.0,0.0,-1.6993,-1.7284,-1.7404,-1.7059,-1.7529,-1.7658,-1.7075,-1.755,-1.7882,-1.7882,-1.7882,-1.7882,-1.7882,-1.7902,-1.7815,-1.7543,-1.7543,-1.7419,-1.7225,-1.7205,-1.7199,-1.7199,-1.7199,-1.715,-1.7157,-1.7157,-1.7157,-1.7115,-1.6693,-1.665,-1.6918,-1.6405,-1.61,-1.5994,-1.6343,-1.6479,-1.6472,-1.6472,-1.6515,-1.6515,-1.6515,-1.6515,-1.6515,-1.6515,-1.6515,-1.6515,-1.6515,-1.6814,-1.7275,-1.7673,-1.8108,-1.8584,-1.8981,-1.9101,-1.9101,-1.9101,-1.9101,-1.9101,-1.9101,-1.9101,-1.9101,-1.9101,-1.9101,-1.9101,-1.9101,-1.9101,-1.9101,-1.9101,-1.9101,0.0,-1.9101,-1.9101,-1.9101,-1.9101,-1.9101,-1.9101,-1.9101,-1.9101,-1.9101,-1.9101,-1.9101,-1.9101,-1.9101,-1.9108,-1.7914,-1.5359,-1.6583,-1.7249,-1.727,0.0,0.0,0.0,0.0,0.0,0.0,0.0,0.0,0.0,0.0,0.0,0.0,0.0,0.0,0.0,0.0,0.0,0.0,0.0,0.0,0.0,-1.6463,-1.7063,-1.7345,-1.7618,-1.775,-1.7678,-1.7787,-1.7814,-1.7658,-1.7787,-1.7882,-1.7882,-1.7882,-1.7882,-1.7882,-1.8323,-1.8478,-1.8303,-1.8198,-1.812,-1.8018,-1.7456,-1.7031,-1.6686,-1.6686,-1.6503,-1.6182,-1.6182,-1.6182,-1.6182,-1.6058,-1.5976,-1.5988,-1.5712,-1.5579,-1.5579,-1.625,-1.6287,-1.6014,-1.638,-1.6515,-1.6515,-1.6515,-1.6515,-1.6515,-1.6515,-1.6515,-1.6515,-1.6515,-1.6814,-1.724,-1.7317,-1.7915,-1.8546,-1.8623,-1.8867,-1.9101,-1.9101,-1.9101,-1.9101,-1.9101,-1.9101,-1.9101,-1.9101,-1.9101,-1.9101,-1.9101,-1.9101,-1.9101,-1.9101,-1.9101,-1.9101,-1.9101,-1.9101,-1.9101,-1.9101,-1.9101,-1.9101,-1.9101,-1.9101,-1.9101,-1.9101,-1.9101,-1.9101,-1.9101,-1.9103,-1.7886,-1.5366,-1.7474,-1.859,0.0,0.0,0.0,0.0,0.0,0.0,0.0,0.0,0.0,0.0,0.0,0.0,0.0,0.0,0.0,0.0,0.0,0.0,0.0,0.0,0.0,0.0,-1.698,-1.7445,-1.765,-1.781,-1.7882,-1.7882,-1.7882,-1.7882,-1.7882,-1.7882,-1.7882,-1.7882,-1.7882,-1.7882,-1.7882,-1.8249,-1.8349,-1.8237,-1.8078,-1.7993,-1.7899,-1.7459,-1.6941,-1.6515,-1.6515,-1.6244,-1.5788,-1.5788,-1.5788,-1.5788,-1.5573,-1.5534,-1.5567,-1.5248,-1.5068,-1.5022,0.0,0.0,0.0,0.0,-1.6515,-1.6515,-1.6515,-1.6515,-1.6515,-1.6515,-1.6515,-1.6566,-1.6804,-1.6883,-1.6986,-1.7408,-1.7868,-1.8226,-1.8226,-1.8662,-1.9019,-1.8623,-1.8707,-1.8784,-1.8584,-1.8707,-1.886,-1.886,-1.8981,0.0,-1.9101,-1.9101,-1.9101,-1.9101,-1.9101,-1.9101,-1.9101,-1.9101,-1.9101,-1.9101,-1.9101,-1.9101,-1.9101,-1.9101,0.0,0.0,0.0,-1.9088,-1.909,-1.9081,0.0,0.0,0.0,0.0,0.0,0.0,0.0,0.0,-1.8034,-1.794,0.0,0.0,0.0,0.0,0.0,0.0,0.0,0.0,0.0,0.0,0.0,0.0,0.0,0.0,0.0,0.0,-1.7502,-1.7882,-1.7882,-1.7882,-1.7882,-1.7882,-1.7882,-1.7882,-1.7882,-1.7882,-1.7882,-1.7882,-1.7882,-1.7882,-1.7882,-1.7943,0.0,0.0,0.0,-1.7595,-1.7497,-1.7328,-1.6941,-1.6429,-1.6429,-1.6157,-1.5656,-1.5656,-1.5656,-1.5611,-1.5187,-1.5175,-1.5416,-1.4841,-1.4514,-1.4463,-1.4915,-1.5406,-1.5882,-1.6337,-1.6515,-1.6515,-1.6515,0.0,0.0,-1.6515,-1.6566,-1.671,-1.7225,-1.7068,-1.6898,-1.779,-1.7942,-1.7814,-1.7814,-1.8407,-1.8745,-1.7995,-1.8108,-1.8312,-1.7875,-1.8187,-1.8507,-1.8507,-1.8822,-1.9101,-1.9101,-1.9101,-1.9101,-1.9101,-1.9101,-1.9101,-1.9101,-1.9101,-1.9101,-1.9101,-1.9101,0.0,-1.9101,-1.9101,-1.9101,-1.9101,-1.9101,-1.9111,-1.9088,-1.9117,-1.9117,-1.9117,-1.9117,-1.9082,-1.9101,-1.9101,-1.9101,-1.9072,-1.794,-1.7737,0.0,0.0,0.0,0.0,0.0,0.0,0.0,0.0,0.0,0.0,0.0,0.0,0.0,0.0,0.0,-1.6973,-1.7502,-1.7882,-1.7882,-1.7882,-1.7882,-1.7882,-1.7882,-1.7882,-1.7882,-1.7882,-1.7882,-1.7882,-1.7882,-1.7882,-1.7882,-1.8378,-1.8594,-1.8594,-1.8468,-1.8327,-1.8229,-1.7657,-1.6863,-1.5926,-1.5926,0.0,-1.4691,-1.4691,-1.4691,-1.4691,-1.4558,-1.4558,-1.4599,-1.428,-1.3999,-1.3842,-1.4731,-1.5406,-1.5882,-1.6337,-1.6515,-1.6515,-1.6515,-1.6515,-1.6515,-1.6515,-1.6835,-1.7237,-1.7344,-1.7614,0.0,-1.8103,-1.8074,-1.7971,-1.7971,-1.8029,-1.7988,-1.7834,-1.7875,-1.7915,-1.7834,-1.8187,-1.8507,-1.8507,-1.8822,-1.9101,-1.9101,-1.9101,-1.9101,-1.9101,-1.9101,-1.9101,-1.9101,-1.9101,-1.9101,-1.9101,-1.9101,-1.9101,-1.9101,-1.9101,-1.9101,-1.9101,-1.9101,-1.9117,-1.9103,-1.9103,-1.9103,-1.9103,-1.9103,-1.9088,-1.9101,-1.9101,-1.9101,-1.9094,-1.8847,-1.8804,0.0,0.0,0.0,0.0,0.0,0.0,0.0,0.0,0.0,0.0,0.0,-1.5561,-1.6274,0.0,-1.7036,-1.7394,-1.7812,-1.8003,-1.7922,-1.8003,-1.8003,-1.7922,-1.7882,-1.7882,-1.7882,-1.7882,-1.7882,-1.7882,-1.7882,-1.7882,-1.7882,-1.8208,-1.8364,-1.8364,-1.8205,-1.8115,-1.8053,-1.7626,-1.6918,-1.5888,-1.5832,-1.5305,-1.4378,-1.4378,-1.4378,-1.4378,-1.4378,-1.4332,-1.4197,-1.391,-1.3856,-1.3985,-1.4554,-1.5051,-1.554,-1.625,-1.6515,-1.6515,-1.6515,-1.6515,-1.6515,-1.6515,-1.6911,-1.7432,-1.7714,-1.7984,-1.8267,-1.8537,-1.8329,-1.7967,-1.7759,-1.7745,-1.7713,-1.7256,-1.7462,-1.7673,-1.7256,-1.7666,-1.8147,-1.8147,-1.8312,-1.8584,-1.9019,-1.8943,-1.886,-1.9064,-1.8943,-1.886,-1.9064,-1.9101,-1.9101,-1.9101,-1.9101,-1.9101,-1.9101,-1.9101,-1.9101,-1.9101,-1.9101,-1.9101,-1.9101,-1.9101,-1.9101,-1.9101,-1.9101,-1.9101,-1.9101,-1.9101,-1.9101,-1.9101,-1.9101,-1.9101,0.0,0.0,0.0,0.0,0.0,0.0,0.0,-1.4829,-1.5141,-1.5254,-1.5791,-1.6385,-1.6841,-1.7111,-1.7404,-1.7881,-1.8123,-1.8202,-1.8043,-1.8163,-1.8202,-1.8043,-1.7963,-1.7882,-1.7882,-1.7882,-1.7882,-1.7882,-1.7882,-1.7882,-1.7882,-1.7882,-1.7882,-1.7882,-1.7801,-1.7726,-1.7686,-1.7515,-1.7002,-1.612,-1.5926,-1.535,-1.4518,-1.4425,-1.4378,-1.4378,-1.4378,-1.4244,-1.3973,-1.3768,-1.3886,-1.4187,-1.4432,-1.4789,-1.5193,-1.6032,-1.6429,-1.6515,-1.6515,-1.6515,-1.6515,-1.6515,-1.6911,-1.7488,-1.8041,-1.8279,-1.848,-1.902,-1.8611,-1.7965,-1.763,-1.7543,-1.7345,-1.6644,-1.7012,-1.7304,-1.6601,-1.7054,-1.7625,-1.7625,-1.7747,-1.8108,-1.8822,-1.8707,-1.8623,-1.9026,-1.8822,-1.8745,-1.9064,-1.9101,-1.9101,-1.9101,-1.9101,-1.9101,-1.9101,-1.9101,-1.9101,-1.9101,-1.9101,-1.9101,-1.9101,-1.9101,-1.9101,-1.9101,-1.9101,-1.9101,-1.9101,-1.9101,-1.9101,-1.9101,-1.9101,-1.9101,-1.2707,-1.3906,-1.4765,-1.5012,-1.5195,-1.5581,0.0,-1.6646,-1.6408,-1.6847,-1.7222,-1.7451,-1.7328,-1.772,-1.808,-1.8149,-1.8361,-1.8478,-1.8439,-1.8439,-1.8478,-1.8439,-1.8123,-1.7882,-1.7882,-1.7882,-1.7882,-1.7882,-1.7882,-1.7882,-1.7882,-1.7882,-1.7882,-1.7882,-1.7882,-1.7801,-1.7686,-1.7577,-1.7186,-1.6631,-1.6058,-1.5534,-1.5017,-1.4605,-1.4378,-1.4378,-1.4378,-1.4244,-1.402,-1.3973,-1.3852,-1.3783,-1.4667,-1.5057,-1.5147,-1.5668,-1.6157,-1.6515,-1.6515,-1.6515,-1.6515,-1.6515,-1.6911,-1.7488,-1.8041,-1.8549,-1.8995,-1.9572,-1.8988,-1.8157,-1.811,-1.7325,-1.6522,-1.6436,-1.6399,-1.6362,-1.6237,-1.6601,-1.6921,-1.6921,-1.7619,-1.8266,-1.839,-1.8468,-1.8623,-1.9026,-1.9064,-1.9064,-1.9101,-1.9101,-1.9101,-1.9101,-1.9101,-1.9101,-1.9101,-1.9101,-1.9101,-1.9101,-1.9101,-1.9101,-1.9101,-1.9101,-1.9101,-1.9101,-1.9101,-1.9101,-1.9101,-1.9101,-1.9101,-1.9101,-1.9101,-1.9101,-1.3212,-1.4325,-1.5003,-1.6105,-1.6446,-1.6711,-1.7307,-1.7316,-1.7209,-1.7188,-1.7365,-1.7454,-1.7157,-1.7529,-1.7895,-1.7895,-1.8326,-1.8613,-1.8517,-1.8581,-1.862,-1.851,-1.8361,-1.8202,-1.8083,-1.8083,-1.8043,-1.7922,-1.7882,-1.7882,-1.7882,-1.7882,-1.7882,-1.7882,-1.7882,-1.7882,-1.7801,-1.7666,-1.7186,-1.6349,-1.6058,-1.5496,-1.4702,-1.4471,-1.4378,-1.4425,-1.4599,-1.4419,-1.3968,-1.3921,-1.4111,-1.4414,-1.4617,-1.5182,-1.5954,-1.6142,-1.6337,-1.6515,-1.6515,-1.6515,-1.6515,-1.6515,-1.7131,-1.7903,-1.8135,-1.88,-1.9409,-1.9258,-1.8684,-1.7974,-1.761,-1.6907,-1.6318,-1.6515,-1.6716,-1.6795,-1.6558,-1.6892,-1.7137,-1.6951,-1.7338,-1.7834,-1.8351,-1.8226,-1.8312,-1.8981,-1.8905,-1.8822,-1.9064,-1.9101,-1.9101,-1.9101,-1.9101,-1.9101,-1.9101,-1.9101,-1.9101,-1.9101,-1.9101,-1.9101,-1.9101,-1.9101,-1.9101,-1.9101,-1.9101,-1.9101,-1.9101,-1.9101,-1.9101,-1.9101,-1.9101,-1.9139,-1.3286,-1.435,-1.5187,-1.6626,-1.7183,-1.7439,-1.7536,-1.7625,-1.7638,-1.733,-1.7317,-1.7317,-1.6989,-1.7393,-1.7794,-1.7841,-1.8436,-1.8836,-1.8697,-1.8798,-1.8836,-1.8697,-1.8666,-1.8588,-1.8386,-1.8275,-1.8123,-1.8003,-1.7922,-1.7882,-1.7882,-1.7882,-1.7882,-1.7882,-1.7882,-1.7882,-1.7882,-1.776,-1.7234,-1.6287,-1.6107,-1.5501,-1.461,-1.4471,-1.4378,-1.4425,-1.464,-1.4501,-1.4051,-1.4046,-1.4381,-1.4848,-1.4825,-1.5401,-1.6323,-1.6436,-1.6515,-1.6515,-1.6515,-1.6515,-1.6515,-1.6515,-1.7181,-1.8009,-1.816,-1.8801,-1.9395,-1.8958,-1.8405,-1.7817,-1.714,-1.6555,-1.6231,-1.6466,-1.6704,-1.6824,-1.6539,-1.6801,-1.7054,-1.6951,-1.7054,-1.7427,-1.8305,-1.8187,-1.8226,-1.8981,-1.886,-1.8784,-1.9064,-1.9101,-1.9101,-1.9101,-1.9101,-1.9101,-1.9101,-1.9101,-1.9101,-1.9101,-1.9101,-1.9101,-1.9101,-1.9101,-1.9101,-1.9101,-1.9101,-1.9101,-1.9101,-1.9101,-1.9101,-1.9101,-1.9101,-1.9183,-1.2866,-1.4183,-1.5608,-1.627,-1.6935,-1.7446,-1.7645,-1.7686,-1.7631,-1.7447,-1.7399,-1.731,-1.7041,-1.753,-1.8042,-1.8149,-1.8683,-1.9101,-1.9064,-1.9101,-1.9101,-1.9064,-1.9064,-1.8981,-1.8784,-1.8418,-1.8202,-1.8202,-1.8003,-1.7882,-1.7882,-1.7882,-1.7882,-1.7882,-1.7882,-1.7882,-1.7882,-1.776,-1.7371,-1.6746,-1.6244,-1.5686,-1.5062,-1.4605,-1.4378,-1.4378,-1.4425,-1.4321,-1.4222,-1.4525,-1.4588,-1.461,-1.5439,-1.5794,-1.5856,-1.6343,-1.6515,-1.6515,-1.6515,-1.6515,-1.6515,-1.6515,-1.6923,-1.7507,-1.8041,-1.8496,-1.8821,-1.8803,-1.8314,-1.7681,-1.714,-1.6498,-1.5994,-1.6032,-1.5913,-1.5881,-1.6001,-1.6032,-1.6207,-1.671,-1.6915,-1.7277,-1.8147,-1.839,-1.8623,-1.9026,-1.9101,-1.9101,-1.9101,-1.9101,-1.9101,-1.9101,-1.9101,-1.9101,-1.9101,-1.9101,-1.9101,-1.9101,-1.9101,-1.9101,-1.9101,-1.9101,-1.9101,-1.9101,-1.9101,-1.9101,-1.9101,-1.9101,-1.9101,-1.9101,-1.9101,-1.9183,-1.319,-1.4208,-1.5121,-1.6078,-1.6722,-1.7135,-1.7413,-1.7358,-1.7304,-1.7557,-1.7441,-1.7269,-1.7312,-1.7814,-1.8226,-1.8247,-1.8753,-1.9101,-1.9101,-1.9101,-1.9101,-1.9101,-1.9101,-1.9064,-1.9019,-1.8753,-1.8489,-1.8242,-1.8123,-1.8043,-1.7922,-1.7882,-1.7882,-1.7882,-1.7882,-1.7882,-1.7882,-1.7842,-1.7413,-1.6595,-1.5988,-1.5463,-1.5108,-1.5585,-1.5623,-1.535,-1.5668,-1.5522,-1.5147,-1.5152,-1.5305,-1.554,-1.5706,-1.597,-1.6287,-1.6429,-1.6515,-1.6515,-1.6515,-1.6515,-1.6515,-1.6515,-1.7156,-1.7965,-1.8147,-1.8532,-1.884,-1.8277,-1.7735,-1.71,-1.6375,-1.6058,-1.5913,-1.6151,-1.6151,-1.6157,-1.6194,-1.625,-1.6386,-1.6558,-1.6752,-1.7173,-1.8095,-1.7828,-1.7652,-1.8147,-1.8745,-1.9101,-1.9101,-1.9101,-1.9101,-1.9101,-1.9101,-1.9101,-1.9101,-1.9101,-1.9101,-1.9101,-1.9101,-1.9101,-1.9101,-1.9101,-1.9101,-1.9101,-1.9101,-1.9101,-1.9101,-1.9101,-1.9101,-1.9101,-1.9183,-1.9295,-1.3645,-1.4347,-1.4963,-1.623,-1.6735,-1.7002,-1.7275,-1.7186,-1.7173,-1.7475,-1.7386,-1.7297,-1.7489,-1.7935,-1.8312,-1.8351,-1.8784,-1.9101,-1.9101,-1.9101,-1.9101,-1.9101,-1.9101,-1.9101,-1.9101,-1.8981,-1.876,-1.8361,-1.8242,-1.8123,-1.7922,-1.7882,-1.7882,-1.7882,-1.7882,-1.7882,-1.7882,-1.7882,-1.7454,-1.6595,-1.5988,-1.5552,-1.5361,-1.5976,-1.6107,-1.5838,-1.6107,-1.6014,-1.5682,-1.5688,-1.5844,-1.6088,-1.6126,-1.6293,-1.6515,-1.6515,-1.6515,-1.6515,-1.6515,-1.6515,-1.6515,-1.6515,-1.7149,-1.7947,-1.8147,-1.8532,-1.8753,-1.8012,-1.7511,-1.702,-1.6303,-1.6074,-1.6206,-1.6602,-1.6683,-1.6628,-1.6527,-1.6629,-1.6754,-1.6633,-1.6808,-1.7221,-1.8095,-1.7955,-1.7807,-1.8028,-1.8662,-1.9101,-1.9101,-1.9101,-1.9101,-1.9101,-1.9101,-1.9101,-1.9101,-1.9101,-1.9101,-1.9101,-1.9101,-1.9101,-1.9101,-1.9101,-1.9101,-1.9101,-1.9101,-1.9101,-1.9101,-1.9101,-1.9206,-1.9339,-1.942,-1.9603,-1.4043,-1.4537,-1.5061,-1.6441,-1.6854,-1.6951,-1.7118,-1.7137,-1.7157,-1.7199,-1.7256,-1.736,-1.7509,-1.7955,-1.8351,-1.8507,-1.8822,-1.9064,-1.9101,-1.9101,-1.9101,-1.9101,-1.9101,-1.9101,-1.9101,-1.9101,-1.8957,-1.8549,-1.8361,-1.8123,-1.7922,-1.7922,-1.7922,-1.7882,-1.7882,-1.7882,-1.7882,-1.7875,-1.7529,-1.6856,-1.6287,-1.5982,-1.5832,-1.5876,-1.5876,-1.5876,-1.5876,-1.5876,-1.592,-1.6232,-1.6293,-1.6281,-1.6596,-1.6626,-1.6522,-1.6515,-1.6515,-1.6515,-1.6515,-1.6515,-1.6515,-1.6515,-1.6911,-1.7476,-1.8003,-1.8434,-1.8598,-1.8,-1.7696,-1.743,-1.6792,-1.662,-1.6792,-1.7291,-1.7412,-1.7322,-1.6983,-1.7155,-1.7257,-1.6948,-1.7122,-1.7475,-1.8147,-1.8707,-1.8943,-1.8546,-1.8822,-1.9064,-1.9101,-1.9101,-1.9101,-1.9101,-1.9101,-1.9101,-1.9101,-1.9101,-1.9101,-1.9101,-1.9101,-1.9101,-1.9101,-1.9101,-1.9101,-1.9101,-1.9101,-1.9101,-1.9101,-1.9131,-1.9376,-1.9788,-1.9823,-2.012,-1.3401,-1.3859,-1.4303,-1.4779,-1.5408,-1.596,-1.6179,-1.6401,-1.6772,-1.731,-1.7489,-1.7673,-1.8147,-1.8351,-1.8546,-1.8905,-1.8784,-1.8745,-1.9064,-1.9101,-1.9101,-1.9101,-1.9101,-1.9101,-1.9101,-1.9101,-1.8988,-1.8753,-1.8683,-1.8489,-1.8123,-1.8123,-1.8043,-1.7882,-1.7882,-1.7882,-1.7882,-1.753,-1.7452,-1.7629,-1.6944,-1.6557,-1.6497,-1.6716,-1.6844,-1.6844,-1.6844,-1.6844,-1.6844,-1.6814,-1.682,-1.6791,-1.6718,-1.6675,-1.6626,-1.6522,-1.6515,-1.6515,-1.6515,-1.6515,-1.6515,-1.6515,-1.6911,-1.7407,-1.7545,-1.7866,-1.8163,-1.7895,-1.7714,-1.7539,-1.7255,-1.7219,-1.7297,-1.7761,-1.784,-1.7892,-1.8099,-1.8206,-1.8222,-1.8176,-1.8296,-1.8266,-1.7915,-1.8305,-1.8623,-1.8507,-1.8584,-1.8745,-1.9064,-1.9101,-1.9101,-1.9101,-1.9101,-1.9101,-1.9101,-1.9101,-1.9101,-1.9101,-1.9101,-1.9101,-1.9101,-1.9101,-1.9101,-1.9101,-1.9101,-1.9101,-1.9101,-1.9442,-1.9688,-1.9823,-2.0208,-2.0746,-1.3538,-1.383,-1.4191,-1.4374,-1.5017,-1.5624,-1.5847,-1.6181,-1.6601,-1.7115,-1.7462,-1.7807,-1.8252,-1.8577,-1.886,-1.9139,-1.8943,-1.8822,-1.9064,-1.9101,-1.9139,-1.928,-1.928,-1.9317,-1.9479,-1.9354,-1.9236,-1.9117,-1.8936,-1.8637,-1.8235,-1.8202,-1.8123,-1.7922,-1.7882,-1.7882,-1.7882,-1.7632,-1.7631,-1.792,-1.7492,-1.7205,-1.6996,-1.7212,-1.7253,-1.7199,-1.7199,-1.7199,-1.7199,-1.708,-1.696,-1.6918,-1.6761,-1.6675,-1.662,-1.6528,-1.6515,-1.6515,-1.6515,-1.6515,-1.6515,-1.6479,-1.6698,-1.7005,-1.7165,-1.7399,-1.7535,-1.7401,-1.7477,-1.7563,-1.7412,-1.7733,-1.8111,-1.8592,-1.8851,-1.8972,-1.8951,-1.9076,-1.9179,-1.9195,-1.9308,-1.9185,-1.8426,-1.8803,-1.9034,-1.8588,-1.8662,-1.8822,-1.9064,-1.9101,-1.9101,-1.9101,-1.9101,-1.9101,-1.9101,-1.9101,-1.9101,-1.9101,-1.9101,-1.9101,-1.9101,-1.9101,-1.9101,-1.9101,-1.9101,-1.9101,-1.9101,-1.958,-1.9894,-2.0131,-2.0607,-2.1309,-1.3923,-1.4029,-1.4222,-1.4559,-1.5105,-1.5646,-1.5821,-1.6201,-1.6555,-1.6814,-1.7374,-1.7846,-1.8052,-1.8602,-1.9101,-1.9258,-1.9139,-1.9064,-1.9101,-1.9139,-1.925,-1.9486,-1.9522,-1.9639,-1.994,-1.9682,-1.9486,-1.9456,-1.9072,-1.8676,-1.8307,-1.8282,-1.8163,-1.7922,-1.7882,-1.7882,-1.7882,-1.7882,-1.7909,-1.7889,-1.7882,-1.7692,-1.7398,-1.7398,-1.7308,-1.7199,-1.7199,-1.7199,-1.7199,-1.708,-1.696,-1.6882,-1.6761,-1.662,-1.6522,-1.6522,-1.6515,-1.6515,-1.6515,-1.6515,-1.6479,-1.6436,-1.6399,-1.6486,-1.6843,-1.695,-1.6965,-1.6934,-1.7289,-1.7666,-1.7598,-1.8208,-1.897,-1.955,-1.9971,-2.0073,-1.9655,-1.9743,-1.9933,-1.9903,-2.0068,-1.9943,-1.9245,-1.9572,-1.9645,-1.8715,-1.8867,-1.9101,-1.9101,-1.9101,-1.9101,-1.9101,-1.9101,-1.9101,-1.9101,-1.9101,-1.9101,-1.9101,-1.9101,-1.9101,-1.9101,-1.9101,-1.9101,-1.9101,-1.9101,-1.9101,-1.9101,-1.9742,-2.0235,-2.0655,-2.1223,-2.2092,-1.359,-1.3392,-1.3444,-1.4043,-1.4683,-1.5252,-1.5639,-1.6115,-1.6504,-1.6549,-1.723,-1.7826,-1.7972,-1.8461,-1.8943,-1.9258,-1.8943,-1.8822,-1.9221,-1.9258,-1.9362,-1.9646,-1.9682,-1.9688,-1.9756,-1.9682,-1.9537,-1.9199,-1.9089,-1.8929,-1.8633,-1.8616,-1.8377,-1.7929,-1.7882,-1.7882,-1.7882,-1.7882,-1.7889,-1.7902,-1.7713,-1.7577,-1.7488,-1.7432,-1.7308,-1.7199,-1.7199,-1.7199,-1.7199,-1.7157,-1.708,-1.696,-1.6882,-1.6797,-1.6669,-1.6522,-1.6515,-1.6515,-1.6515,-1.6515,-1.6515,-1.6479,-1.6479,-1.6497,-1.6511,-1.6732,-1.7051,-1.7362,-1.7763,-1.8208,-1.8602,-1.8835,-1.9135,-1.9901,-2.0125,-2.0223,-2.028,-2.0257,-2.0073,-1.9621,-1.9845,-1.9919,-1.9217,-1.9192,-1.9194,-1.9033,-1.9064,-1.9101,-1.9101,-1.9101,-1.9101,-1.9101,-1.9101,-1.9101,-1.9101,-1.9101,-1.9101,-1.9101,-1.9101,-1.9101,-1.9101,-1.9101,-1.9101,-1.9101,-1.9101,-1.9101,-1.9101,-2.0556,-2.1331,-2.1451,-2.2833,-2.3943,-1.3726,-1.3475,-1.3393,-1.4018,-1.4613,-1.5223,-1.5711,-1.6172,-1.6487,-1.6513,-1.6922,-1.732,-1.7509,-1.8209,-1.8782,-1.8919,-1.9024,-1.9117,-1.9339,-1.9273,-1.9359,-1.975,-1.9843,-1.9967,-2.0265,-2.0268,-2.0093,-1.96,-1.9281,-1.904,-1.8917,-1.8496,-1.8182,-1.7922,-1.7882,-1.7882,-1.7882,-1.7882,-1.7882,-1.7882,-1.7693,-1.7557,-1.7516,-1.7432,-1.7308,-1.7199,-1.7199,-1.7199,-1.7199,-1.7122,-1.7038,-1.6918,-1.684,-1.6705,-1.6577,-1.6522,-1.6515,-1.6515,-1.6515,-1.6515,-1.6515,-1.6515,-1.6479,-1.6436,-1.6256,-1.6316,-1.655,-1.6965,-1.7442,-1.7961,-1.8696,-1.9245,-1.9759,-2.0365,-2.0666,-2.0897,-2.1152,-2.0973,-2.0716,-2.0571,-2.0545,-2.0465,-2.0139,-1.9827,-1.9624,-1.9624,-1.9319,-1.9101,-1.9101,-1.9101,-1.9101,-1.9101,-1.9101,-1.9101,-1.9101,-1.9205,-1.9205,-1.9108,-1.9183,-1.9183,-1.9101,-1.9183,-1.9183,-1.9183,-1.9183,-1.9381,-1.9801,-2.075,-2.1554,-2.2208,-2.3199,-2.4196,-1.4013,-1.377,-1.3702,-1.4268,-1.4789,-1.535,-1.5894,-1.6235,-1.6449,-1.6435,-1.6605,-1.6814,-1.7093,-1.794,-1.8605,-1.8578,-1.9134,-1.9474,-1.9354,-1.9255,-1.9388,-2.0023,-2.0066,-2.0252,-2.075,-2.0805,-2.0519,-1.9879,-1.9361,-1.9107,-1.9094,-1.8355,-1.7906,-1.7888,-1.7916,-1.7882,-1.7882,-1.7882,-1.7882,-1.7882,-1.774,-1.7605,-1.7516,-1.7467,-1.7343,-1.7199,-1.7199,-1.7199,-1.7199,-1.708,-1.7002,-1.6882,-1.6761,-1.662,-1.6515,-1.6515,-1.6515,-1.6515,-1.6515,-1.6515,-1.6515,-1.6479,-1.6436,-1.6349,-1.6132,-1.6124,-1.628,-1.6688,-1.7225,-1.7897,-1.8734,-1.9598,-2.0277,-2.0703,-2.1017,-2.1274,-2.156,-2.1418,-2.1274,-2.1367,-2.1297,-2.1162,-2.1017,-2.0603,-2.0291,-2.0291,-1.9732,-1.9245,-1.9134,-1.91,-1.9101,-1.9101,-1.9146,-1.9153,-1.9153,-1.9294,-1.9339,-1.9257,-1.928,-1.9317,-1.9191,-1.9258,-1.9339,-1.9339,-1.9471,-1.9863,-2.0518,-2.119,-2.1966,-2.2848,-2.364,-2.4388,-1.4231,-1.4065,-1.4281,-1.4941,-1.5165,-1.5402,-1.6256,-1.6321,-1.6227,-1.6145,-1.6386,-1.6745,-1.7121,-1.7877,-1.8452,-1.8505,-1.9156,-1.9546,-1.9191,-1.9263,-1.972,-2.061,-2.0457,-2.0402,-2.0771,-2.0789,-2.0343,-1.9263,-1.9112,-1.9107,-1.9094,-1.8331,-1.7882,-1.7899,-1.7915,-1.7882,-1.7882,-1.7882,-1.7882,-1.7882,-1.7875,-1.7747,-1.7516,-1.7475,-1.7399,-1.7199,-1.7199,-1.7199,-1.7199,-1.7199,-1.708,-1.6882,-1.6882,-1.6742,-1.6515,-1.6515,-1.6515,-1.6515,-1.6515,-1.6515,-1.6479,-1.6436,-1.6436,-1.6436,-1.6231,-1.6532,-1.695,-1.7243,-1.7965,-1.8796,-1.9393,-1.9882,-2.0277,-2.0703,-2.0709,-2.0662,-2.0933,-2.1171,-2.1191,-2.0848,-2.1369,-2.1706,-2.1097,-2.0952,-2.0915,-2.0915,-2.0393,-1.9774,-1.9169,-1.9116,-1.9101,-1.9101,-1.925,-1.9383,-1.9383,-1.9398,-1.9465,-1.9634,-1.9546,-1.9465,-1.9465,-1.9406,-1.9384,-1.9384,-1.9995,-2.0527,-2.0945,-2.2705,-2.3444,-2.3283,-2.5105,-2.5646,-1.5581,-1.5286,-1.5216,-1.5948,-1.6372,-1.6637,-1.6502,-1.6613,-1.6602,-1.6042,-1.6039,-1.6171,-1.6338,-1.6748,-1.7145,-1.7326,-1.9233,-2.0528,-2.0184,-1.9592,-1.9449,-2.0048,-2.1906,-2.2528,-2.0953,-2.0791,-2.0334,-1.9198,-1.9736,-1.982,-1.914,-1.8786,-1.8398,-1.7928,-1.7899,-1.7914,-1.7914,-1.7895,-1.7882,-1.7882,-1.7801,-1.7666,-1.7516,-1.7454,-1.7337,-1.7199,-1.7199,-1.7199,-1.7199,-1.7199,-1.7122,-1.696,-1.6918,-1.6797,-1.662,-1.6528,-1.6515,-1.6515,-1.6515,-1.6748,-1.7043,-1.6992,-1.716,-1.732,-1.6714,-1.6724,-1.7032,-1.7695,-1.8137,-1.8669,-1.9679,-2.0422,-2.097,-2.1118,-2.1089,-2.1118,-2.1394,-2.1264,-2.108,-2.1225,-2.1248,-2.1283,-2.1576,-2.1264,-2.1133,-2.154,-2.1046,-2.0457,-1.9941,-1.9878,-2.0067,-2.0604,-1.9866,-1.9324,-1.9324,-1.9465,-1.9516,-1.9516,-1.9538,-1.9524,-1.9443,-1.9501,-1.9538,-1.9538,-2.0153,-2.0918,-2.1787,-2.2848,-2.3793,-2.4632,-2.5416,-2.5781,-1.6837,-1.6664,-1.6392,-1.6642,-1.7006,-1.7291,-1.7118,-1.6946,-1.6607,-1.5939,-1.5738,-1.5791,-1.5999,-1.6065,-1.6203,0.0,-1.9329,-2.1376,-2.1115,-2.0391,-1.9984,-2.0276,-2.309,-2.4232,-2.2229,-2.1299,-2.0481,-1.9649,-2.0335,-2.0282,-1.9147,-1.9111,-1.8846,-1.8257,-1.8245,-1.814,-1.7892,-1.7962,-1.7969,-1.7882,-1.7801,-1.7672,-1.757,-1.7467,-1.7385,-1.7253,-1.7205,-1.7199,-1.7199,-1.7199,-1.7122,-1.7015,-1.714,-1.7082,-1.6909,-1.686,-1.6917,-1.6992,-1.6829,-1.7143,-1.7626,-1.7574,-1.7725,-1.785,-1.7427,-1.7271,-1.7381,-1.8045,-1.8467,-1.9075,-2.0268,-2.0977,-2.1423,-2.1423,-2.1423,-2.1465,-2.1752,-2.1482,-2.1285,-2.1816,-2.1548,-2.1485,-2.2156,-2.1881,-2.1728,-2.2207,-2.1714,-2.1193,-2.0916,-2.068,-2.0811,-2.1442,-2.0519,-1.9801,-1.964,-1.9642,-1.9603,-1.9487,-1.9567,-1.9603,-1.9487,-1.9567,-1.964,-1.964,-2.0318,-2.1196,-2.2154,-2.3071,-2.407,-2.5057,-2.5517,-2.5893,-1.7805,-1.8061,-1.7838,-1.6939,-1.6685,-1.7008,-1.82,-1.7267,-1.6035,-1.5841,-1.5641,-1.5724,-1.6461,-1.6161,-1.5964,-1.6519,-1.9511,-2.1786,-2.1797,-2.1787,-2.1753,-2.1783,-2.3683,-2.4988,-2.4974,-2.2447,-2.0801,-2.0769,-2.0778,-2.0294,-1.9155,-1.9103,-1.9089,-1.9087,-1.9108,-1.8718,-1.7899,-1.8142,-1.815,-1.7882,-1.7882,-1.7842,-1.7679,-1.757,-1.7454,-1.7398,-1.7253,-1.7199,-1.7199,-1.7199,-1.7122,-1.7054,-1.7659,-1.7734,-1.7498,-1.7568,-1.7852,-1.811,-1.7564,-1.7733,-1.8191,-1.803,-1.7887,-1.7854,-1.8269,-1.839,-1.837,-1.8256,-1.9137,-2.0372,-2.1173,-2.1375,-2.1423,-2.1423,-2.1423,-2.1465,-2.1752,-2.18,-2.1935,-2.2509,-2.2593,-2.2639,-2.2835,-2.2881,-2.2873,-2.2888,-2.2396,-2.1982,-2.1982,-2.1402,-2.0995,-2.1003,-2.1107,-2.098,-2.0423,-1.9953,-1.9682,-1.9682,-1.9682,-1.9682,-1.9682,-1.9682,-1.9682,-1.9682,-2.067,-2.1396,-2.1798,-2.3602,-2.431,-2.4058,-2.5489,-2.622,-1.7974,-1.8534,-1.9111,-1.8811,-1.8746,-1.9092,-2.0451,-1.9232,-1.7429,-1.6084,-1.5736,-1.6021,-1.704,-1.7087,-1.7666,-1.9812,-2.1086,0.0,-2.1808,-2.1399,-2.1124,-2.1132,-2.3918,-2.4832,-2.2358,-2.131,-2.0787,-2.0802,-2.0798,-2.0651,-2.0289,-2.0359,-2.0012,-1.9121,-1.996,-1.9663,-1.8171,-1.8834,-1.8747,-1.7882,-1.7882,-1.7842,-1.7686,-1.7672,-1.7556,-1.7404,-1.7356,-1.7295,-1.7199,-1.7199,-1.7405,-1.7707,-1.7357,-1.7619,-1.8174,-1.765,-1.7779,-1.8179,-1.8009,-1.8304,-1.8714,-1.8597,-1.8697,-1.8896,-1.8964,-1.8603,-1.8385,-1.8994,-1.987,-2.066,-2.0908,-2.1209,-2.1423,-2.1423,-2.1423,-2.1416,-2.1513,-2.1513,-2.1705,-2.2231,-2.2324,-2.2463,-2.2843,-2.2895,-2.2895,-2.2895,-2.2728,-2.2598,-2.2598,-2.2505,-2.2418,-2.2418,-2.2245,-2.1813,-2.113,-2.0983,-2.0974,-2.1059,-2.1059,-2.1059,-2.1059,-2.0632,-2.0393,-2.0393,-2.0914,-2.1657,-2.254,-2.3863,-2.486,-2.5516,-2.5988,-2.6212,-1.8278,-1.8266,-1.8278,-1.8493,-1.871,-1.9375,-2.1351,-1.992,-1.7856,-1.6692,-1.6454,-1.665,-1.7361,-1.7494,-1.8437,-2.1324,-2.1796,-2.1802,-2.1799,-2.213,-2.2394,-2.2385,-2.4502,-2.5098,-2.2833,-2.1992,-2.1513,-2.1334,-2.1671,-2.1596,-2.1073,-2.1374,-2.1091,-2.0059,-2.0815,-2.0673,-1.9416,-1.9718,-1.9371,-1.8358,-1.829,-1.8099,-1.776,-1.7726,-1.7597,-1.7432,-1.7398,-1.7308,0.0,-1.7199,-1.7558,-1.8087,-1.7699,-1.8125,-1.8808,-1.8263,-1.839,-1.8775,-1.8587,-1.8869,-1.9265,-1.9164,-1.9189,-1.9328,-1.9164,-1.8927,-1.8875,-1.962,-2.0308,-2.0852,-2.1006,-2.1215,-2.1423,-2.1423,-2.1423,-2.1423,-2.1423,-2.1465,-2.1657,-2.213,-2.2278,-2.2463,-2.285,-2.2895,-2.2895,-2.2895,-2.2895,-2.2895,-2.2895,-2.3037,-2.3089,-2.3089,-2.2936,-2.2658,-2.2231,-2.181,-2.1607,-2.1695,-2.1695,-2.1695,-2.1695,-2.1306,-2.1151,-2.1281,-2.1645,-2.2239,-2.3138,-2.4205,-2.5212,-2.6212,-2.6212,-2.6212,0.0,-1.7272,-1.5991,-1.6533,-1.7107,-1.8195,-2.0884,-1.9418,0.0,-1.7508,-1.7494,-1.755,-1.7781,-1.78,-1.8688,-2.1362,-2.1841,-2.1845,-2.1747,-2.3524,-2.4854,-2.4898,-2.5176,-2.5346,-2.5288,-2.381,-2.263,-2.2139,-2.2853,-2.2746,-2.1369,-2.197,-2.2072,-2.1446,-2.1673,-2.1589,-2.116,-2.0656,-1.9971,-1.9156,-1.8938,-1.8561,-1.7943,-1.7868,-1.7705,-1.7529,-1.7518,-1.7442,-1.7258,-1.7303,-1.7676,-1.8264,-1.8507,-1.8982,-1.9445,-1.9228,-1.9409,-1.9736,-1.9252,-1.9397,-1.9805,-1.961,-1.9414,-1.917,-1.9046,-1.9297,-1.9714,-2.0074,-2.0516,-2.095,-2.1313,-2.1423,-2.1423,-2.1423,-2.1423,-2.1423,-2.1423,-2.1609,-2.1848,-2.213,-2.2417,-2.2654,-2.285,-2.2895,-2.2895,-2.2895,-2.2895,-2.2895,-2.2895,-2.3037,-2.3127,-2.3127,-2.3238,-2.3363,-2.3509,-2.2491,-2.1829,-2.1829,-2.1784,-2.1784,-2.1829,-2.1779,-2.1923,-2.2347,-2.275,-2.3155,-2.3614,-2.4676,-2.5541,-2.6212,-2.6212,-2.6212,-1.3931,0.0,-1.6541,-1.714,-1.7396,-1.7688,0.0,-1.7996,-1.7502,-1.7508,-1.75,-1.8168,-2.0384,-2.0798,-2.1002,-2.1694,-2.2364,-2.2365,-2.1203,-2.2416,-2.3486,-2.3769,-2.3486,-2.2991,-2.2232,-2.2277,-2.2021,-2.1175,-2.0851,-2.0526,-2.0192,-2.0569,-2.0736,-2.0594,-2.1925,-2.2021,-2.0811,-2.096,-2.0643,-1.9777,-1.9594,-1.9157,-1.8616,-1.9006,-1.863,-1.7685,-1.8502,-1.8497,-1.8008,-1.8367,-1.8865,-1.9282,-1.8338,-1.8785,-1.9882,-1.8845,-1.8989,-1.9786,-1.9666,-1.9698,-1.9753,-1.9512,-1.9263,-1.9099,-1.9356,-1.9766,-2.0074,-2.0175,-2.0723,-2.1264,-2.1375,-2.1423,-2.1423,-2.1423,-2.1423,-2.1423,-2.1423,-2.1465,-2.1609,-2.213,-2.2231,-2.2417,-2.2843,-2.2895,-2.2895,-2.2895,-2.2895,-2.2895,-2.2895,-2.3112,-2.3238,-2.3238,-2.3436,-2.3559,-2.3559,-2.3262,-2.3091,-2.3153,-2.2704,-2.266,-2.3131,-2.2495,-2.2455,-2.3041,-2.3787,-2.4362,-2.4743,-2.5547,-2.6038,-2.6212,-2.6212,-2.6212,-1.2494,-1.4523,-1.6747,-1.7358,-1.7499,-1.7504,-1.7511,-1.7494,-1.7502,-1.7508,-1.7508,-1.7979,-1.9546,-2.124,-2.2413,-2.2405,-2.2464,-2.2377,-2.1982,-2.2702,-2.3326,-2.3505,-2.3367,-2.2957,-2.2218,-2.2515,-2.2234,-2.1037,-2.0788,-2.0462,-1.9838,-2.0252,-2.061,-2.074,-2.1673,-2.1949,-2.1495,-2.1614,-2.1309,-2.0589,-2.0062,-1.9642,-1.9205,-1.9544,-1.929,-1.856,-1.9072,-1.9063,-1.8638,-1.8819,-1.9264,-1.9699,-1.8881,-1.9262,-2.0105,-1.932,-1.9359,-1.9805,-1.9805,-1.9753,-1.9656,-1.9466,-1.9414,-1.9402,-1.9558,-2.0016,-2.0466,-2.0466,-2.0921,-2.1423,-2.1423,-2.1423,-2.1423,-2.1423,-2.1423,-2.1465,-2.1705,-2.1752,-2.1935,-2.2395,-2.2502,-2.2608,-2.285,-2.2895,-2.2895,-2.2895,-2.2895,-2.294,-2.2992,-2.3149,-2.3319,-2.3371,-2.3523,-2.3602,-2.3602,-2.3574,-2.3574,-2.3602,-2.3507,-2.3595,-2.3894,-2.3643,-2.3755,-2.4318,-2.4976,-2.5423,-2.5615,-2.6021,-2.6212,-2.6212,-2.6212,-2.6283,-1.2501,-1.4524,-1.6827,-1.7777,-1.8093,-1.8055,-1.7591,0.0,0.0,0.0,-1.7508,-1.7642,-1.8075,-2.0763,-2.2911,-2.2991,-2.2344,-2.2118,-2.2963,-2.3239,-2.3348,-2.3375,-2.349,-2.3473,-2.3164,-2.3072,-2.2447,-2.1031,-2.1186,-2.0802,-1.9554,-2.0052,-2.049,-2.074,-2.1066,-2.1491,-2.2051,-2.2002,-2.173,-2.1339,-2.0517,-2.0031,-1.9836,-1.9924,-1.9811,-1.9532,-1.9533,-1.9455,-1.9264,-1.9179,-1.9473,-1.9924,-1.9694,-1.9851,-2.0169,-1.9946,-1.9844,-1.9805,-1.9805,-1.9759,-1.9714,-1.9571,-1.9714,-1.9901,-1.9856,-2.0302,-2.0802,-2.0852,-2.116,-2.1423,-2.1423,-2.1423,-2.1423,-2.1423,-2.1423,-2.1561,-2.2084,-2.2177,-2.231,-2.2799,-2.2873,-2.285,-2.2895,-2.2895,-2.2895,-2.2895,-2.294,-2.2992,-2.3082,-2.3246,-2.3363,-2.3509,-2.3617,-2.3688,-2.3602,-2.3716,-2.3767,-2.3731,-2.3979,-2.423,-2.4345,-2.4776,-2.5168,-2.5594,-2.599,-2.6212,-2.6212,-2.6212,-2.6212,-2.6212,-2.6247,-2.638,-1.2492,-1.4519,-1.7193,-1.9664,-2.073,-2.05,-1.8053,-1.7508,0.0,0.0,-1.7508,-1.8243,-2.0688,-2.1625,-2.2138,-2.253,-2.2194,-2.1933,-2.2103,-2.1867,-2.1725,-2.1892,-2.1799,-2.1775,-2.1886,-2.1617,-2.1111,-2.0223,-1.9673,-1.8962,-1.8076,-1.8218,-1.8321,-1.825,-1.9972,-2.0803,-2.0615,-2.1028,-2.1367,-2.1627,-2.1045,-2.0617,-2.038,-2.0928,-2.0616,-1.9703,-2.0448,-2.0487,-2.0067,-2.0331,-2.0489,-2.0479,-1.9872,-1.9832,-2.0124,-1.9559,-1.9522,-1.9805,-1.9805,-2.001,-2.0264,-2.0271,-2.0365,-2.056,-2.0845,-2.0894,-2.0852,-2.1215,-2.1368,-2.1423,-2.1423,-2.1423,-2.1423,-2.1423,-2.1423,-2.1561,-2.2084,-2.2037,-2.2077,-2.2754,-2.2776,-2.2706,-2.285,-2.2895,-2.2895,-2.2895,-2.2992,-2.3082,-2.3089,-2.3297,-2.3466,-2.3509,-2.3925,-2.4044,-2.3638,-2.4297,-2.4558,-2.4211,-2.3748,-2.3764,-2.4514,-2.5091,-2.5602,-2.6079,-2.6168,-2.6212,-2.6212,-2.6212,-2.6212,-2.6212,-2.6442,-2.6546,-1.2493,-1.5607,-1.9177,-2.0483,-2.012,-1.9142,-1.7799,-1.7504,-1.75,-1.751,-1.9117,-2.0803,-2.1652,-2.2005,-2.222,-2.2317,-2.226,-2.2158,-2.2039,-2.1978,-2.1936,-2.1869,-2.1721,-2.1617,-2.1612,-2.1,-2.0313,-1.9626,-1.8889,-1.8134,-1.7367,-1.73,-1.7457,-1.7789,-1.9015,-1.9791,-2.0047,-2.0492,-2.0989,-2.1576,-2.0713,-2.0524,-2.0927,-2.09,-2.0833,-2.0657,-2.0959,-2.0935,-2.0666,-2.0756,-2.0775,-2.0679,-2.0305,-2.0209,-2.015,-1.9687,-1.9845,-2.0258,-2.0258,-2.0547,-2.0894,-2.0703,-2.0809,-2.1013,-2.0993,-2.1055,-2.116,-2.1368,-2.1423,-2.1423,-2.1423,-2.1423,-2.1423,-2.1423,-2.1609,-2.1983,-2.2487,-2.261,-2.283,-2.3406,-2.329,-2.3076,-2.3172,-2.3016,-2.2895,-2.2895,-2.2992,-2.3209,-2.348,-2.3696,-2.3959,-2.423,-2.4477,-2.4558,-2.4331,-2.4656,-2.4902,-2.4942,-2.4672,-2.4772,-2.5433,-2.5737,-2.599,-2.6212,-2.6212,-2.6212,-2.6212,-2.6212,-2.6274,-2.6415,-2.6546,-2.6775,-1.2495,-1.56,-1.8999,-1.9671,-1.9162,-1.8521,-1.8511,-1.8513,-1.8519,-1.8522,-2.0968,-2.2909,-2.2234,-2.2332,-2.241,-2.2141,-2.2276,-2.2315,-2.2084,-2.2223,-2.226,-2.2047,-2.194,-2.1819,-2.1664,-2.0812,-1.9978,-1.9285,-1.8559,-1.7811,-1.7033,-1.6892,-1.7079,-1.7628,-1.8173,-1.8819,-1.9546,-2.0023,-2.0642,-2.1388,-2.0413,-2.0325,-2.1092,-2.0629,-2.0714,-2.1158,-2.1063,-2.1075,-2.1117,-2.1097,-2.0961,-2.0848,-2.0848,-2.0557,-2.0197,-2.02,-2.0362,-2.0568,-2.0756,-2.114,-2.1527,-2.114,-2.1306,-2.1506,-2.1202,-2.1257,-2.1416,-2.1465,-2.1465,-2.1423,-2.1423,-2.1423,-2.1416,-2.1602,-2.1888,-2.2356,-2.3024,-2.3275,-2.3544,-2.4029,-2.3817,-2.3551,-2.3551,-2.3268,-2.3016,-2.3016,-2.3149,-2.3451,-2.3844,-2.4139,-2.4428,-2.4871,-2.4973,-2.5098,-2.5192,-2.5098,-2.5214,-2.5639,-2.5668,-2.582,-2.6176,-2.6212,-2.6212,-2.6212,-2.6212,-2.6212,-2.6212,-2.6239,-2.6415,-2.6606,-2.6742,-2.6999,-1.2493,-1.2787,-1.3713,-1.6281,-1.9227,-2.148,-2.1493,-2.1499,-2.1504,-2.1496,-2.2341,-2.3085,-2.303,-2.2733,-2.2354,-2.1907,-2.1998,-2.2047,-2.184,-2.1848,-2.1848,-2.1811,-2.1811,-2.1789,-2.1797,-2.0998,-2.0152,-1.9432,-1.8694,-1.7915,-1.7058,-1.6985,-1.6959,-1.6869,-1.746,-1.8116,-1.878,-1.9483,-2.0244,-2.1022,-2.0586,-2.0371,-2.045,-2.0357,-2.0356,-2.0382,-2.0431,-2.0841,-2.1469,-2.1511,-2.1465,-2.1375,-2.1375,-2.0845,-2.0198,-2.1124,-2.1016,-2.0489,-2.1131,-2.1677,-2.2084,-2.1841,-2.1942,-2.213,-2.213,-2.1746,-2.1465,-2.1705,-2.1609,-2.1423,-2.1423,-2.1423,-2.1554,-2.2095,-2.221,-2.2487,-2.3572,-2.358,-2.3587,-2.417,-2.4101,-2.3975,-2.3975,-2.3653,-2.3363,-2.3363,-2.3623,-2.3844,-2.3887,-2.4453,-2.4871,-2.491,-2.5237,-2.5639,-2.6087,-2.5692,-2.5647,-2.6123,-2.6132,-2.6168,-2.6212,-2.6212,-2.6212,-2.6212,-2.6212,-2.6212,-2.6212,-2.6442,-2.658,-2.6615,-2.712,-2.7373,-1.5391,-1.6847,-1.7664,-1.7664,-1.9427,-2.0925,-1.9963,-2.1027,-2.2315,-2.2561,-2.2876,-2.3102,-2.311,-2.2763,-2.2451,-2.2268,-2.215,-2.2019,-2.184,-2.1789,-2.1789,-2.1789,-2.1716,-2.1664,-2.1664,-2.0947,-2.0377,-2.0107,-1.9474,-1.8752,-1.7979,-1.8225,-1.7983,-1.7141,-1.835,-1.8746,-1.8206,-1.9672,-2.0373,-2.0268,-2.0248,-2.037,-2.0641,-2.0338,-2.0366,-2.0705,-2.1159,-2.1458,-2.167,-2.2034,-2.2102,-2.1927,-2.1358,-2.1163,-2.1226,-2.1015,-2.1236,-2.1634,-2.1838,-2.197,-2.2092,-2.2051,-2.1832,-2.1633,-2.1878,-2.1983,-2.2009,-2.2289,-2.2374,-2.2221,-2.1554,-2.1691,-2.2002,-2.2228,-2.2778,-2.3363,-2.3794,-2.4113,-2.4336,-2.4572,-2.4449,-2.4325,-2.4325,-2.4009,-2.3789,-2.3789,-2.4006,-2.4323,-2.4591,-2.5012,-2.5368,-2.568,-2.5828,-2.5998,-2.6168,-2.6043,-2.5998,-2.6176,-2.6212,-2.6212,-2.6212,-2.6212,-2.6212,-2.6212,-2.6212,-2.6212,-2.6212,-2.6485,-2.643,-2.6129,-2.6992,-2.7213,-1.6987,-1.8806,-1.9855,-1.9236,-1.9732,-2.0323,-2.0034,-2.1283,-2.2617,-2.3029,-2.311,-2.3076,-2.3021,-2.279,-2.2587,-2.2515,-2.2262,-2.2039,-2.1911,-2.184,-2.1789,-2.1789,-2.1716,-2.1664,-2.1664,-2.1006,-2.0562,-2.0562,-1.9951,-1.9378,-1.8865,-1.9105,-1.8871,-1.7986,-1.9021,-1.9313,-1.8647,-1.9915,-2.0448,-2.0218,-2.0301,-2.04,-2.0488,-2.0154,-2.0184,-2.0542,-2.1068,-2.1378,-2.154,-2.1932,-2.2015,-2.1787,-2.1221,-2.1067,-2.1191,-2.0929,-2.117,-2.1655,-2.1794,-2.1764,-2.1707,-2.1737,-2.1358,-2.0995,-2.1461,-2.1664,-2.1778,-2.2185,-2.2345,-2.225,-2.1798,-2.2073,-2.2582,-2.2763,-2.3391,-2.3964,-2.4188,-2.4549,-2.4822,-2.4854,-2.4734,-2.4661,-2.4661,-2.4367,-2.4193,-2.4219,-2.4469,-2.4744,-2.5161,-2.5497,-2.5856,-2.6176,-2.6212,-2.6212,-2.6212,-2.6212,-2.6212,-2.6212,-2.6212,-2.6212,-2.6212,-2.6212,-2.6212,-2.6212,-2.6212,-2.6247,-2.6318,-2.6606,-2.6435,-2.5956,-2.6991,-2.7177,-1.6605,-1.7398,-1.8625,-2.0344,-2.0142,-2.0147,-2.253,-2.2773,-2.2606,-2.303,-2.311,-2.305,-2.2842,-2.2808,-2.2738,-2.2542,-2.2271,-2.2124,-2.2096,-2.194,-2.1789,-2.1789,-2.1789,-2.1789,-2.1789,-2.1127,-2.0696,-2.0696,-2.0042,-1.9617,-1.9609,-1.9501,-1.9419,-1.9402,-1.9272,-1.9556,-2.027,-2.0106,-2.0359,-2.1087,-2.0893,-2.0496,-1.9899,-1.9851,-1.9767,-1.972,-1.9916,-2.0426,-2.1118,-2.1262,-2.1167,-2.0905,-2.0905,-2.0433,-1.9926,-2.101,-2.0881,-2.0272,-2.0826,-2.0995,-2.0954,-2.0768,-2.0543,-2.038,-2.0954,-2.0781,-2.0557,-2.13,-2.1292,-2.1213,-2.199,-2.2585,-2.3157,-2.3744,-2.3914,-2.409,-2.4839,-2.4902,-2.4822,-2.4966,-2.5013,-2.5013,-2.5013,-2.4734,-2.4572,-2.4775,-2.4981,-2.5169,-2.5376,-2.5873,-2.6212,-2.6212,-2.6212,-2.6212,-2.6212,-2.6212,-2.6212,-2.6212,-2.6212,-2.6212,-2.6212,-2.6212,-2.6212,-2.6212,-2.6212,-2.6345,-2.6615,-2.6883,-2.6708,-2.6199,-2.7224,-2.7306,-1.7071,-1.7769,-1.8648,-1.9587,-2.0261,-2.0976,-2.2026,-2.2205,-2.2377,-2.3197,-2.3232,-2.3072,-2.302,-2.3011,-2.2944,-2.2729,-2.2642,-2.2482,-2.2153,-2.2039,-2.1969,-2.1819,-2.1789,-2.1789,-2.1789,-2.159,-2.1458,-2.1458,-2.1267,-2.092,-2.0398,-2.0735,-2.0533,-1.9572,-2.0277,-2.0356,-1.9674,-2.0499,-2.0732,-2.0319,-2.0791,-2.0827,-2.0452,-2.0342,-2.0254,-2.0204,-2.0717,-2.1043,-2.1288,-2.1628,-2.1672,-2.1435,-2.0929,-2.0875,-2.0987,-2.0816,-2.0803,-2.0918,-2.1089,-2.0782,-2.0396,-2.0638,-2.0445,-2.0291,-2.0898,-2.1292,-2.1622,-2.2033,-2.2171,-2.227,-2.2478,-2.3048,-2.3646,-2.3956,-2.395,-2.4108,-2.4855,-2.4974,-2.4934,-2.5005,-2.5013,-2.5013,-2.5013,-2.4934,-2.4934,-2.5123,-2.5301,-2.5575,-2.5926,-2.6087,-2.6212,-2.6212,-2.6212,-2.6212,-2.6212,-2.6212,-2.6212,-2.6212,-2.6212,-2.6212,-2.6212,-2.6212,-2.6212,-2.6212,-2.638,-2.6511,-2.6615,-2.7055,-2.6627,-2.5386,-2.6962,-2.6718,-1.719,-1.7687,-1.8297,-1.9236,-2.0143,-2.1062,-2.2098,-2.2382,-2.2617,-2.3221,-2.3199,-2.3086,-2.3086,-2.3086,-2.3061,-2.2936,-2.2859,-2.2668,-2.2298,-2.2169,-2.2019,-2.1811,-2.1789,-2.1789,-2.1789,-2.1789,-2.1789,-2.1789,-2.1789,-2.1599,-2.1172,-2.1469,-2.132,-2.0514,-2.1128,-2.1131,-2.0376,-2.1062,-2.1137,-2.0516,-2.0918,-2.0966,-2.0744,-2.0561,-2.0467,-2.0412,-2.0779,-2.0842,-2.0809,-2.1104,-2.1092,-2.0857,-2.046,-2.0505,-2.0727,-2.0257,-2.0246,-2.0453,-2.0389,-2.0062,-1.9762,-2.0092,-2.0011,-1.9896,-2.0608,-2.1024,-2.1322,-2.166,-2.1839,-2.1965,-2.2291,-2.2472,-2.2793,-2.3777,-2.4155,-2.4452,-2.4918,-2.5013,-2.5013,-2.5013,-2.5013,-2.5013,-2.5013,-2.5053,-2.5209,-2.5402,-2.5659,-2.5934,-2.6176,-2.6212,-2.6212,-2.6212,-2.6212,-2.6212,-2.6212,-2.6231,-2.6231,-2.6212,-2.6231,-2.6266,-2.6354,-2.6247,-2.6247,-2.6354,-2.6511,-2.67,-2.6933,-2.7247,-2.6792,-2.5669,-2.7064,-2.6806,-1.7075,-1.7285,-1.7739,-1.9183,-1.9942,-2.0795,-2.2583,-2.3033,-2.3086,-2.3135,-2.3111,-2.3086,-2.3086,-2.3086,-2.3086,-2.3086,-2.2944,-2.2764,-2.2533,-2.2298,-2.2047,-2.1819,-2.1789,-2.1789,-2.1789,-2.1789,-2.1789,-2.1819,-2.1819,-2.1819,-2.1819,-2.1811,-2.1811,-2.1789,-2.1819,-2.1819,-2.1789,-2.1694,-2.152,-2.1325,-2.1191,-2.103,-2.0827,-2.062,-2.0467,-2.0388,-2.0346,-2.0208,-1.9998,-1.9998,-1.9884,-1.9726,-1.9682,-1.969,-1.969,-1.9516,-1.945,-1.9376,-1.925,-1.9169,-1.9206,-1.9413,-1.9398,-1.9464,-2.0189,-2.0273,-2.0239,-2.0687,-2.0744,-2.0876,-2.1624,-2.1295,-2.13,-2.3195,-2.424,-2.4839,-2.4902,-2.4966,-2.5013,-2.5013,-2.5013,-2.5013,-2.5013,-2.5178,-2.5363,-2.5605,-2.597,-2.6212,-2.6212,-2.6212,-2.6212,-2.6212,-2.6212,-2.6212,-2.6212,-2.625,-2.6277,-2.6203,-2.6277,-2.6408,-2.6606,-2.6372,-2.638,-2.664,-2.6674,-2.6933,-2.7404,-2.7434,-2.7134,-2.663,-2.7359,-2.7271,-1.696,-1.7207,-1.768,-1.8782,-2.021,-2.1632,-2.2633,-2.2927,-2.3111,-2.3357,-2.3256,-2.3086,-2.3086,-2.3086,-2.3086,-2.3086,-2.3061,-2.291,-2.256,-2.2443,-2.226,-2.1848,-2.1789,-2.1789,-2.1789,-2.1789,-2.1819,-2.1861,-2.189,-2.189,-2.189,-2.194,-2.192,-2.1789,-2.189,-2.192,-2.1789,-2.1811,-2.1738,-2.152,-2.1356,-2.1191,-2.103,-2.0777,-2.0551,-2.0388,-2.0346,-2.0227,-2.008,-2.0033,-1.9919,-1.9762,-1.9726,-1.9661,-1.964,-1.9917,-1.9747,-1.945,-1.9637,-1.9645,-1.9574,-1.953,-1.9803,-2.0181,-2.0334,-2.052,-2.0662,-2.0761,-2.0794,-2.0834,-2.0992,-2.1347,-2.1739,-2.2197,-2.284,-2.348,-2.4026,-2.4579,-2.5013,-2.5013,-2.5013,-2.5013,-2.5013,-2.5178,-2.544,-2.577,-2.6051,-2.6212,-2.6212,-2.6212,-2.6212,-2.6212,-2.6212,-2.6212,-2.6212,-2.6203,-2.6231,-2.6277,-2.6425,-2.6598,-2.6666,-2.6666,-2.6742,-2.6916,-2.7213,-2.7378,-2.7404,-2.7569,-2.7274,-2.663,-2.7359,-2.6973,-1.7092,-1.7337,-1.7887,-1.9275,-2.0639,-2.1898,-2.2795,-2.2961,-2.3036,-2.3365,-2.3256,-2.3086,-2.3086,-2.3086,-2.3086,-2.3086,-2.3086,-2.2986,-2.2694,-2.2632,-2.2453,-2.2007,-2.194,-2.192,-2.1819,-2.1789,-2.184,-2.189,-2.189,-2.1911,-2.1949,-2.1969,-2.1969,-2.189,-2.1961,-2.194,-2.184,-2.189,-2.1789,-2.1589,-2.1481,-2.1317,-2.1103,-2.0777,-2.0517,-2.0388,-2.0346,-2.0227,-2.0108,-2.0053,-1.9947,-1.9805,-1.9762,-1.979,-1.9897,-2.0093,-2.0093,-1.998,-2.0124,-2.0062,-1.9945,-2.0007,-2.0189,-2.041,-2.0545,-2.0687,-2.0794,-2.0794,-2.0925,-2.1055,-2.1055,-2.1432,-2.1843,-2.1843,-2.2372,-2.2983,-2.3346,-2.397,-2.446,-2.446,-2.4954,-2.5293,-2.517,-2.5402,-2.5704,-2.6015,-2.6132,-2.6212,-2.6212,-2.6212,-2.6212,-2.6212,-2.6212,-2.6203,-2.6258,-2.6435,-2.6547,-2.6598,-2.6865,-2.7092,-2.7218,-2.7326,-2.7312,-2.7198,-2.7386,-2.7569,-2.7677,-2.771,-2.7344,-2.6725,-2.7388,-2.7078,-1.724,-1.7577,-1.8293,-1.9971,-2.0989,-2.1873,-2.2944,-2.3061,-2.3036,-2.3313,-2.3208,-2.3086,-2.3086,-2.3086,-2.3086,-2.3086,-2.3086,-2.3036,-2.2833,-2.2816,-2.2633,-2.2153,-2.2096,-2.2019,-2.1819,-2.1789,-2.184,-2.192,-2.192,-2.1949,-2.2036,-2.2036,-2.2036,-2.199,-2.2027,-2.2007,-2.192,-2.192,-2.184,-2.1642,-2.1642,-2.145,-2.1095,-2.0761,-2.0569,-2.0415,-2.0339,-2.0227,-2.0143,-2.0108,-2.0038,-1.9932,-1.9904,-2.0058,-2.0311,-2.03,-2.0436,-2.063,-2.0607,-2.0473,-2.0371,-2.0589,-2.0605,-2.0545,-2.0794,-2.0827,-2.0794,-2.0794,-2.1055,-2.1317,-2.1317,-2.1556,-2.1789,-2.1789,-2.2264,-2.2725,-2.2766,-2.3404,-2.3951,-2.384,-2.4769,-2.5583,-2.5551,-2.5799,-2.6107,-2.6247,-2.6283,-2.6247,-2.6212,-2.6212,-2.6212,-2.6212,-2.6274,-2.6329,-2.6392,-2.6757,-2.6993,-2.6985,-2.7352,-2.7619,-2.7809,-2.7943,-2.7895,-2.7539,-2.7548,-2.7636,-2.7802,-2.7774,-2.7401,-2.6771,-2.7408,-2.7368,-1.6963,-1.7863,-1.8927,-2.0099,-2.0989,-2.1873,-2.2895,-2.3135,-2.316,-2.3217,-2.316,-2.3086,-2.3086,-2.3086,-2.3086,-2.3086,-2.3086,-2.3036,-2.2833,-2.2816,-2.2633,-2.2153,-2.2096,-2.2019,-2.1819,-2.1789,-2.184,-2.1969,-2.1998,-2.2044,-2.2168,-2.2217,-2.2192,-2.2027,-2.2155,-2.2155,-2.199,-2.1998,-2.194,-2.1869,-2.1789,-2.1556,-2.1095,-2.1103,-2.0877,-2.0467,-2.0365,-2.0304,-2.0262,-2.015,-2.0273,-2.0496,-2.0376,-2.0504,-2.0828,-2.1079,-2.0982,-2.0786,-2.0959,-2.0951,-2.0902,-2.0861,-2.0942,-2.1023,-2.1063,-2.0933,-2.0794,-2.0794,-2.1055,-2.1317,-2.1317,-2.1556,-2.1789,-2.1789,-2.1878,-2.203,-2.2312,-2.3423,-2.4152,-2.3565,-2.4372,-2.547,-2.637,-2.6556,-2.6564,-2.6537,-2.6546,-2.6442,-2.6247,-2.6212,-2.6212,-2.6212,-2.6512,-2.6716,-2.6716,-2.7106,-2.737,-2.7413,-2.7628,-2.78,-2.7869,-2.8073,-2.8146,-2.8091,-2.8219,-2.7825,-2.6959,-2.7632,-2.7494,-2.665,-2.735,-2.7648,-1.7897,-1.8496,-1.9156,-2.0699,-2.1349,-2.1881,-2.3003,-2.323,-2.3271,-2.3531,-2.338,-2.3168,-2.302,-2.2986,-2.2986,-2.2986,-2.3011,-2.3011,-2.291,-2.2936,-2.285,-2.2536,-2.2482,-2.2409,-2.2203,-2.2217,-2.2237,-2.2231,-2.2298,-2.2307,-2.2262,-2.2282,-2.2274,-2.2155,-2.2388,-2.2388,-2.2106,-2.2189,-2.2096,-2.184,-2.184,-2.1721,-2.1487,-2.1485,-2.1221,-2.0755,-2.0671,-2.0712,-2.0869,-2.0788,-2.0804,-2.0862,-2.0772,-2.0918,-2.119,-2.1277,-2.134,-2.1378,-2.1454,-2.1432,-2.1332,-2.1309,-2.1254,-2.1222,-2.1222,-2.1206,-2.1182,-2.1182,-2.1485,-2.1807,-2.1807,-2.2056,-2.2307,-2.2307,-2.2307,-2.2299,-2.2316,-2.2913,-2.3605,-2.4015,-2.4712,-2.5521,-2.6273,-2.6309,-2.6349,-2.6757,-2.6303,-2.6059,-2.6392,-2.6274,-2.6247,-2.6415,-2.664,-2.6882,-2.7051,-2.747,-2.7756,-2.7825,-2.8102,-2.8264,-2.8291,-2.8388,-2.8423,-2.8423,-2.8318,-2.8103,-2.771,-2.7449,-2.7164,-2.6836,-2.7014,-2.6841,-1.8413,-1.8867,-1.9326,-2.0888,-2.1478,-2.1962,-2.3131,-2.3312,-2.3309,-2.353,-2.3323,-2.2987,-2.2492,-2.2691,-2.2936,-2.3011,-2.3011,-2.302,-2.3011,-2.3061,-2.2986,-2.2816,-2.2756,-2.2694,-2.2479,-2.2537,-2.2573,-2.2506,-2.2561,-2.258,-2.2506,-2.2432,-2.2432,-2.2497,-2.2703,-2.2677,-2.2424,-2.2402,-2.2275,-2.199,-2.2007,-2.1957,-2.1869,-2.1849,-2.1655,-2.1267,-2.1111,-2.1119,-2.13,-2.13,-2.1291,-2.1267,-2.1189,-2.1331,-2.1524,-2.1487,-2.1609,-2.1789,-2.1789,-2.1738,-2.1642,-2.1642,-2.1542,-2.1388,-2.1388,-2.1448,-2.1515,-2.1515,-2.1849,-2.222,-2.222,-2.2455,-2.2712,-2.2712,-2.2712,-2.2693,-2.2586,-2.2631,-2.3078,-2.436,-2.5036,-2.5521,-2.5917,-2.6156,-2.6404,-2.6751,-2.6303,-2.6082,-2.6539,-2.6434,-2.6399,-2.6632,-2.6849,-2.7106,-2.7448,-2.7897,-2.8183,-2.8219,-2.8457,-2.8587,-2.8587,-2.8587,-2.8587,-2.8587,-2.8199,-2.7949,-2.7813,-2.7005,-2.6525,-2.6356,-2.6338,-2.6008,-1.773,-1.8658,-1.9541,-2.0276,-2.112,-2.2056,-2.3154,-2.3392,-2.324,-2.2775,-2.2641,-2.2325,-2.1295,-2.2101,-2.3011,-2.3313,-2.316,-2.3011,-2.3095,-2.3036,-2.2936,-2.2738,-2.272,-2.2641,-2.2432,-2.251,-2.2652,-2.2782,-2.2659,-2.2721,-2.3051,-2.2825,-2.2808,-2.3051,-2.3075,-2.3075,-2.3051,-2.2617,-2.244,-2.2573,-2.2417,-2.226,-2.2096,-2.2211,-2.2192,-2.2031,-2.1584,-2.1347,-2.13,-2.13,-2.1493,-2.1759,-2.1678,-2.1781,-2.1961,-2.1882,-2.184,-2.1789,-2.1789,-2.1797,-2.1789,-2.1789,-2.1686,-2.1581,-2.1581,-2.1601,-2.1582,-2.1582,-2.1928,-2.2286,-2.2286,-2.2509,-2.2712,-2.2712,-2.2764,-2.2901,-2.3255,-2.2847,-2.2863,-2.4406,-2.504,-2.5317,-2.5444,-2.6646,-2.7285,-2.6385,-2.684,-2.7141,-2.6666,-2.6649,-2.6691,-2.6783,-2.7184,-2.7601,-2.7926,-2.8353,-2.8562,-2.8578,-2.8587,-2.8587,-2.8587,-2.8587,-2.8587,-2.8587,-2.7836,-2.7037,-2.6219,-2.6099,-2.5564,-2.4656,-2.5322,-2.5553,-1.7552,-1.8503,-1.937,-2.0307,-2.0722,-2.1246,-2.2525,-2.2769,-2.2718,-2.2827,-2.2627,-2.2215,-2.1624,-2.1613,-2.1728,-2.1847,-2.2147,-2.2373,-2.2388,-2.2697,-2.2944,-2.2893,-2.2885,-2.2885,-2.2859,-2.3044,-2.3133,-2.3011,-2.3118,-2.3149,-2.3091,-2.301,-2.301,-2.31,-2.3277,-2.3315,-2.3224,-2.2858,-2.2643,-2.2591,-2.2651,-2.257,-2.2417,-2.2589,-2.2598,-2.2417,-2.2203,-2.2061,-2.1995,-2.1953,-2.2011,-2.2115,-2.2045,-2.2065,-2.2115,-2.1966,-2.189,-2.1869,-2.1811,-2.1789,-2.1789,-2.1789,-2.184,-2.192,-2.192,-2.2113,-2.2318,-2.2318,-2.2482,-2.2695,-2.2695,-2.2712,-2.2756,-2.2756,-2.2816,-2.2911,-2.311,-2.292,-2.2911,-2.3483,-2.4138,-2.4629,-2.4682,-2.5165,-2.555,-2.5677,-2.5796,-2.5975,-2.629,-2.673,-2.7117,-2.7289,-2.7628,-2.7954,-2.8219,-2.8475,-2.8587,-2.8587,-2.8587,-2.8587,-2.8587,-2.8587,-2.8352,-2.7852,-2.7046,-2.6732,-2.692,-2.5829,-2.5347,-2.5457,-2.5118,-2.4928,-1.6917,-1.7855,-1.8741,-1.9669,-1.9869,-2.0254,-2.177,-2.2024,-2.2001,-2.2136,-2.1916,-2.154,-2.1054,-2.068,-2.0583,-2.1091,-2.1469,-2.1781,-2.2,-2.2367,-2.2714,-2.2935,-2.2995,-2.302,-2.3061,-2.3289,-2.3392,-2.3232,-2.3351,-2.3403,-2.3344,-2.3259,-2.3292,-2.3422,-2.3598,-2.3676,-2.3644,-2.3209,-2.2991,-2.2972,-2.285,-2.2764,-2.272,-2.2833,-2.2808,-2.2641,-2.256,-2.2479,-2.2377,-2.2338,-2.231,-2.2291,-2.2262,-2.2205,-2.2177,-2.2049,-2.1966,-2.189,-2.184,-2.1861,-2.189,-2.1819,-2.2015,-2.2226,-2.2133,-2.24,-2.2729,-2.2729,-2.2833,-2.2936,-2.2936,-2.2885,-2.2833,-2.2859,-2.2885,-2.2936,-2.3011,-2.2986,-2.2986,-2.3011,-2.3692,-2.4164,-2.3936,-2.4322,-2.4743,-2.4989,-2.509,-2.529,-2.5723,-2.6498,-2.7087,-2.7239,-2.7718,-2.8165,-2.8432,-2.8545,-2.8587,-2.8587,-2.8587,-2.8587,-2.8587,-2.8325,-2.7936,-2.7417,-2.6349,-2.6068,-2.6593,-2.5213,-2.4766,-2.5224,-2.4592,-2.4263,0.0,0.0,0.0,-1.8332,-1.8623,-1.9192,-2.0867,-2.1237,-2.1087,-2.0599,-2.0494,-2.0246,-1.9445,-1.9289,-1.9765,-2.1207,-2.1234,-2.1298,-2.1958,-2.206,-2.2254,-2.2814,-2.2935,-2.2985,-2.3011,-2.3208,-2.3383,-2.3508,-2.3407,-2.3463,-2.3759,-2.3584,-2.3667,-2.4057,-2.4084,-2.4171,-2.4294,-2.3708,-2.3522,-2.3692,-2.31,-2.2859,-2.291,-2.291,-2.2833,-2.2694,-2.2641,-2.2533,-2.2413,-2.233,-2.231,-2.231,-2.231,-2.2262,-2.2205,-2.2205,-2.2086,-2.192,-2.192,-2.1998,-2.2068,-2.1861,-2.2118,-2.247,-2.2198,-2.2446,-2.2816,-2.2816,-2.291,-2.2986,-2.2986,-2.2936,-2.291,-2.2986,-2.2986,-2.3011,-2.3095,-2.3086,-2.3086,-2.3086,-2.3725,-2.4031,-2.3242,-2.4348,-2.5094,-2.4374,-2.491,-2.5311,-2.5034,-2.5954,-2.6615,-2.6646,-2.7512,-2.8228,-2.8578,-2.8587,-2.8587,-2.8587,-2.8569,-2.8551,-2.8551,-2.7797,-2.7363,-2.7336,-2.5805,-2.499,-2.4954,-2.4176,-2.3771,-2.37,-2.37,-2.3634,-1.6894,0.0,0.0,0.0,0.0,0.0,-1.9469,-1.9659,-1.974,-2.0372,-2.0351,-2.0027,-1.9419,-1.915,-1.9194,-1.9743,-2.0183,-2.0514,-2.0701,-2.0939,-2.1423,-2.2367,-2.241,-2.2645,-2.3419,-2.3676,-2.3822,-2.3852,-2.3917,-2.3733,-2.3244,-2.3216,-2.3263,-2.3373,-2.3934,-2.4229,-2.4238,-2.3981,-2.3851,-2.3917,-2.3646,-2.3399,-2.3182,-2.3182,-2.3019,-2.2694,-2.2641,-2.2659,-2.2738,-2.2487,-2.233,-2.231,-2.2506,-2.246,-2.2302,-2.2599,-2.2455,-2.2115,-2.2161,-2.2217,-2.2215,-2.2056,-2.2318,-2.2703,-2.2642,-2.2799,-2.302,-2.302,-2.3036,-2.3061,-2.3011,-2.2995,-2.2995,-2.2995,-2.2986,-2.3011,-2.3095,-2.3086,-2.3086,-2.3086,-2.3286,-2.3365,-2.313,-2.3437,-2.3681,-2.347,-2.4559,-2.5393,-2.542,-2.6277,-2.7157,-2.7835,-2.7732,-2.7861,-2.8533,-2.8587,-2.8587,-2.8587,-2.8035,-2.7718,-2.7718,-2.6973,-2.6267,-2.5679,-2.5226,-2.471,-2.413,-2.3904,-2.3795,-2.3762,-2.3762,-2.3741,-1.7055,-1.7577,-1.8111,-1.7812,0.0,0.0,-1.8848,-1.8832,-1.8806,-1.9755,-1.9826,-1.9629,-1.9326,-1.9135,-1.9067,-1.9177,-1.9535,-1.9875,-2.012,-2.0353,-2.0948,-2.2168,-2.225,-2.2618,-2.359,-2.3816,-2.3917,-2.3987,-2.3756,-2.329,-2.2536,-2.2534,-2.2751,-2.3171,-2.3634,-2.4059,-2.441,-2.422,-2.4106,-2.4086,-2.3887,-2.3658,-2.3422,-2.3422,-2.3274,-2.2993,-2.2959,-2.2984,-2.3042,-2.2867,-2.2721,-2.2642,-2.2799,-2.2773,-2.2659,-2.2891,-2.2764,-2.2482,-2.2492,-2.2544,-2.2561,-2.2326,-2.258,-2.291,-2.2842,-2.2936,-2.3086,-2.3086,-2.3086,-2.3086,-2.3036,-2.3036,-2.3036,-2.3036,-2.3036,-2.3036,-2.3086,-2.3086,-2.3086,-2.3086,-2.3086,-2.3086,-2.3086,-2.3086,-2.3225,-2.3549,-2.4085,-2.4725,-2.5508,-2.6152,-2.6887,-2.7796,-2.7888,-2.808,-2.8551,-2.8587,-2.8587,-2.8587,-2.7827,-2.7408,-2.7408,-2.6312,-2.5479,-2.5009,-2.4664,-2.4266,-2.3795,-2.3795,-2.3837,-2.3926,-2.3926,-2.3958,-1.6978,-1.7397,-1.8,-1.7901,-1.7348,0.0,-1.8495,-1.8295,-1.8038,-1.8752,-1.8977,-1.9041,-1.9041,-1.9097,-1.9161,-1.9177,-1.9177,-1.9364,-1.9912,-2.012,-2.0705,-2.2081,-2.2354,-2.2785,-2.3663,-2.3765,-2.3858,-2.4036,-2.3307,-2.2602,-2.2007,-2.1987,-2.2393,-2.3291,-2.3412,-2.387,-2.4704,-2.4454,-2.4303,-2.4229,-2.3979,-2.3807,-2.3631,-2.364,-2.3566,-2.3414,-2.3392,-2.3392,-2.3346,-2.3344,-2.3245,-2.3107,-2.3116,-2.3124,-2.31,-2.3173,-2.3065,-2.2915,-2.2875,-2.2927,-2.2986,-2.2659,-2.2808,-2.3095,-2.2885,-2.2961,-2.3086,-2.3086,-2.3086,-2.3086,-2.3086,-2.3086,-2.3086,-2.3086,-2.3086,-2.3086,-2.3086,-2.3111,-2.3135,-2.3119,-2.3086,-2.3086,-2.3086,-2.3086,-2.3374,-2.4189,-2.369,-2.3837,-2.5551,-2.5759,-2.6133,-2.7119,-2.7886,-2.8361,-2.8451,-2.8542,-2.8551,-2.846,-2.7725,-2.7236,-2.7145,-2.567,-2.4864,-2.4864,-2.4157,-2.3816,-2.3837,-2.3837,-2.3926,-2.4094,-2.4094,-2.4162,-1.8637,-1.8726,-1.8681,-1.794,-1.7619,0.0,-1.7014,-1.6866,-1.6843,-1.6987,-1.7543,-1.7994,-1.7994,-1.8492,-1.8905,-1.8957,-1.8957,-1.9071,-1.9344,-1.9812,-2.0535,-2.168,-2.2296,-2.3024,-2.4004,-2.4201,-2.4284,-2.433,-2.3634,-2.3173,-2.3082,-2.3101,-2.3231,-2.3531,-2.4122,-2.4538,-2.4779,-2.4619,-2.4515,-2.4438,-2.4393,-2.421,-2.3923,-2.3919,-2.3765,-2.3468,-2.3414,-2.3491,-2.3619,-2.3553,-2.3364,-2.3111,-2.333,-2.3301,-2.3149,-2.3518,-2.3405,-2.3074,-2.3177,-2.3212,-2.3208,-2.2995,-2.307,-2.3232,-2.3095,-2.3061,-2.3086,-2.3086,-2.3086,-2.3086,-2.3086,-2.3086,-2.3086,-2.3086,-2.3086,-2.3086,-2.3086,-2.3271,-2.3365,-2.3135,-2.3086,-2.3086,-2.3086,-2.3086,-2.3374,-2.4189,-2.4181,-2.4706,-2.6507,-2.5624,-2.5506,-2.7172,-2.695,-2.6937,-2.7589,-2.8241,-2.8307,-2.7689,-2.6883,-2.6149,-2.5507,-2.4538,-2.4031,-2.4031,-2.3877,-2.3867,-2.4045,-2.4045,-2.4065,-2.4094,-2.4094,-2.4113,-1.9018,-1.8992,-1.8884,-1.8368,-1.7957,0.0,0.0,-1.7315,-1.7162,-1.7555,-1.7653,-1.7644,-1.7644,-1.7958,-1.8208,-1.8243,-1.8617,-1.8939,-1.9034,-1.9712,-2.0662,-2.1954,-2.2501,-2.3187,-2.4155,-2.4303,-2.4209,-2.388,-2.3522,-2.3173,-2.2877,-2.2891,-2.3152,-2.3689,-2.409,-2.4454,-2.4751,-2.471,-2.4629,-2.45,-2.45,-2.4384,-2.4192,-2.4163,-2.4028,-2.3851,-2.3807,-2.3867,-2.3937,-2.3876,-2.3723,-2.3553,-2.3624,-2.3567,-2.3482,-2.3701,-2.3658,-2.345,-2.3482,-2.3508,-2.3467,-2.3304,-2.3265,-2.3289,-2.3217,-2.316,-2.3086,-2.3086,-2.3086,-2.3086,-2.3086,-2.3086,-2.3086,-2.3086,-2.3199,-2.3295,-2.3295,-2.3486,-2.3611,-2.3477,-2.3454,-2.3362,-2.3126,-2.3086,-2.3374,-2.4189,-2.4069,-2.4533,-2.6337,-2.5618,-2.5466,-2.6818,-2.659,-2.6477,-2.6783,-2.7182,-2.7236,-2.6838,-2.6059,-2.5425,-2.5018,-2.423,-2.3795,-2.3795,-2.3795,-2.3896,-2.4094,-2.4171,-2.4229,-2.4293,-2.4293,-2.433,-1.8939,-1.8895,-1.8887,-1.8788,-1.828,-1.7924,0.0,0.0,0.0,-1.8199,-1.7915,-1.7541,-1.7488,-1.7639,-1.7771,-1.7771,-1.8367,-1.8842,-1.894,-1.9587,-2.0626,-2.2135,-2.2784,-2.3427,-2.42,-2.4118,-2.3867,-2.3552,-2.3382,-2.3132,-2.2786,-2.2807,-2.3142,-2.3795,-2.3858,-2.4017,-2.4294,-2.4488,-2.4505,-2.4323,-2.4474,-2.4507,-2.4456,-2.4402,-2.4312,-2.422,-2.4247,-2.4247,-2.419,-2.4122,-2.4065,-2.3996,-2.3876,-2.3816,-2.3795,-2.3795,-2.3795,-2.3795,-2.3747,-2.3712,-2.3691,-2.3576,-2.3439,-2.3289,-2.3289,-2.3217,-2.3086,-2.3086,-2.3086,-2.3086,-2.3086,-2.3135,-2.3184,-2.3184,-2.338,-2.3562,-2.3562,-2.3719,-2.3858,-2.3816,-2.3837,-2.3732,-2.331,-2.3199,-2.3439,-2.4273,-2.3866,-2.4127,-2.5879,-2.5506,-2.5388,-2.6219,-2.631,-2.6249,-2.609,-2.6204,-2.6222,-2.6068,-2.5428,-2.4989,-2.4826,-2.417,-2.3795,-2.3795,-2.3795,-2.3908,-2.4133,-2.4238,-2.4375,-2.4495,-2.4478,-2.4528,-1.8939,-1.8895,-1.886,-1.8669,-1.8542,-1.8311,-1.7627,0.0,-1.725,-1.6624,0.0,-1.7338,-1.7106,0.0,0.0,-1.8405,-1.8476,-1.8673,-1.904,-1.9163,-1.9835,-2.141,-2.2942,-2.395,-2.4196,-2.3409,-2.3289,-2.4282,-2.3642,-2.3566,-2.4379,-2.4433,-2.4265,-2.3902,-2.3843,-2.3496,-2.2837,-2.3486,-2.378,-2.3704,-2.4362,-2.4676,-2.4651,-2.4601,-2.4469,-2.4294,-2.4409,-2.4357,-2.419,-2.4122,-2.4065,-2.3996,-2.3917,-2.3846,-2.3795,-2.3795,-2.3795,-2.3795,-2.3795,-2.3783,-2.3792,-2.3712,-2.3499,-2.3289,-2.3289,-2.3217,-2.3086,-2.3086,-2.3086,-2.3086,-2.3086,-2.3271,-2.3449,-2.3449,-2.3611,-2.3783,-2.3783,-2.393,-2.401,-2.3828,-2.395,-2.399,-2.3774,-2.3567,-2.3749,-2.461,-2.4019,-2.4163,-2.5968,-2.5047,-2.4585,-2.552,-2.5612,-2.5603,-2.5583,-2.6226,-2.6337,-2.562,-2.5379,-2.494,-2.4238,-2.3942,-2.3795,-2.3795,-2.3795,-2.3969,-2.4275,-2.4294,-2.4375,-2.4495,-2.4393,-2.4383,-1.8878,-1.8878,-1.8843,-1.8603,-1.8631,-1.8589,-1.8119,-1.8012,-1.7935,-1.7608,0.0,0.0,0.0,0.0,0.0,0.0,-1.732,-1.8564,-1.8735,-1.8762,-1.9764,-2.2513,-2.3355,-2.3836,-2.4174,-2.2969,-2.2577,-2.3562,-2.3425,-2.3791,-2.4872,-2.493,-2.4855,-2.4724,-2.4225,-2.3764,-2.3298,-2.3141,-2.3004,-2.2912,-2.3488,-2.362,-2.3394,-2.4308,-2.4394,-2.3867,-2.4314,-2.4426,-2.4312,-2.4209,-2.4122,-2.4045,-2.3987,-2.3887,-2.3795,-2.3795,-2.3795,-2.3795,-2.3795,-2.3795,-2.3783,-2.3734,-2.3625,-2.3522,-2.3439,-2.3369,-2.3321,-2.3241,-2.3217,-2.3232,-2.3319,-2.3412,-2.354,-2.3642,-2.3837,-2.397,-2.397,-2.4164,-2.4303,-2.422,-2.4275,-2.4302,-2.422,-2.393,-2.3858,-2.4221,-2.4103,-2.4241,-2.4997,-2.4727,-2.4565,-2.4882,-2.492,-2.4893,-2.4811,-2.5106,-2.5161,-2.4838,-2.4744,-2.452,-2.4112,-2.4025,-2.3917,-2.3795,-2.3917,-2.4086,-2.4294,-2.4393,-2.4478,-2.461,-2.4554,-2.4554,-1.8824,-1.8843,-1.8825,-1.862,-1.8648,-1.8705,-1.8641,-1.8582,-1.8513,-1.8572,-1.8058,0.0,0.0,0.0,-1.6519,-1.4184,0.0,-1.724,-1.725,-1.7968,-1.9461,-2.2032,-2.2231,-2.267,-2.407,-2.3313,-2.2752,-2.2781,-2.3153,-2.3879,-2.5041,-2.5105,-2.4951,-2.463,-2.405,-2.3447,-2.2842,-2.2479,-2.2142,-2.1831,-2.2605,-2.2782,-2.2498,-2.3891,-2.4142,-2.3545,-2.4304,-2.455,-2.4389,-2.4293,-2.4181,-2.4094,-2.4025,-2.3926,-2.3825,-2.3816,-2.3795,-2.3795,-2.3795,-2.3795,-2.3795,-2.3738,-2.3712,-2.3678,-2.3567,-2.3539,-2.3485,-2.3392,-2.3374,-2.3426,-2.3531,-2.3611,-2.3719,-2.3908,-2.4087,-2.422,-2.4229,-2.4375,-2.4507,-2.4524,-2.4523,-2.4538,-2.4547,-2.4238,-2.4028,-2.4032,-2.4183,-2.4309,-2.4345,-2.4568,-2.4667,-2.4571,-2.4545,-2.4521,-2.4428,-2.441,-2.4383,-2.4357,-2.4348,-2.4284,-2.4171,-2.4143,-2.4095,-2.3948,-2.4036,-2.4181,-2.4348,-2.4418,-2.4528,-2.4707,-2.4667,-2.4667,-1.8843,-1.8806,-1.8806,-1.8788,-1.8648,-1.8593,-1.8912,-1.8734,-1.8552,-1.8751,-1.8608,-1.8417,-1.8274,-1.8355,-1.7392,-1.4131,-1.3857,0.0,0.0,-1.6615,-1.8538,-1.865,-1.8661,-2.0126,-2.3851,-2.4746,-2.4288,-2.2365,-2.2895,-2.3824,-2.5043,-2.5103,-2.4428,-2.2928,-2.2859,-2.2062,-2.0429,-2.1159,-2.1141,-2.0388,-2.1894,-2.2618,-2.2627,-2.3448,-2.3717,-2.3559,-2.4549,-2.4761,-2.4389,-2.4399,-2.4275,-2.4094,-2.4025,-2.3967,-2.3896,-2.3816,-2.3795,-2.3795,-2.3795,-2.3795,-2.3795,-2.3795,-2.375,-2.37,-2.37,-2.3589,-2.3494,-2.3485,-2.3585,-2.3701,-2.3692,-2.393,-2.4201,-2.4266,-2.4393,-2.4507,-2.4582,-2.4538,-2.4521,-2.4589,-2.4599,-2.4615,-2.4682,-2.4464,-2.4312,-2.4372,-2.4345,-2.4345,-2.4486,-2.461,-2.4707,-2.4682,-2.4682,-2.4682,-2.4692,-2.4692,-2.4635,-2.4495,-2.4486,-2.4426,-2.4294,-2.4284,-2.4294,-2.4284,-2.4162,-2.4229,-2.4495,-2.4375,-2.4436,-2.4707,-2.4571,-2.4587,-1.8991,-1.9033,-1.9049,-1.9008,-1.8609,-1.8363,-1.8888,-1.8499,-1.818,-1.876,-1.8744,-1.8583,-1.8466,-1.835,-1.795,-1.6826,-1.4991,-1.3711,0.0,-1.4716,-1.5408,-1.527,-1.7185,-1.9017,-2.0291,-2.0868,-2.1075,-2.0826,-2.2316,-2.3798,-2.5099,-2.5177,-2.4952,-2.4466,-2.3381,-2.2362,-2.143,-2.0948,-2.0573,-2.0305,-2.083,-2.1081,-2.1089,-2.1368,-2.2248,-2.3589,-2.3972,-2.4352,-2.4702,-2.4482,-2.4364,-2.4275,-2.4086,-2.3996,-2.3946,-2.3846,-2.3795,-2.3795,-2.3795,-2.3795,-2.3795,-2.3795,-2.3774,-2.3771,-2.3771,-2.3728,-2.3707,-2.3759,-2.3792,-2.3858,-2.4048,-2.4173,-2.4303,-2.4462,-2.4523,-2.4566,-2.4599,-2.4589,-2.4564,-2.4599,-2.4641,-2.4666,-2.4701,-2.4622,-2.4571,-2.4594,-2.4584,-2.4584,-2.4635,-2.4667,-2.4707,-2.4707,-2.4707,-2.4707,-2.4707,-2.4707,-2.4682,-2.4635,-2.4635,-2.4561,-2.4436,-2.4426,-2.4383,-2.4312,-2.4348,-2.4409,-2.4495,-2.4528,-2.4603,-2.4707,-2.4651,-2.4651,-1.9082,-1.9139,-1.9162,-1.9202,-1.8825,-1.8593,-1.909,-1.8679,-1.8346,-1.889,-1.8806,-1.8605,-1.851,-1.8548,-1.8502,-1.8244,-1.6541,-1.4856,0.0,-1.3716,-1.3776,-1.371,-1.6544,-1.8503,-1.8506,-1.8861,-1.9374,-2.0051,-2.2474,-2.4291,-2.5142,-2.5201,-2.5039,-2.4715,-2.4034,-2.2948,-2.1404,-2.0671,-2.0302,-2.0302,-2.0305,-2.0305,-2.0294,-2.0274,-2.1263,-2.3016,-2.3554,-2.4195,-2.4879,-2.4666,-2.454,-2.4493,-2.4284,-2.4173,-2.4086,-2.3887,-2.3795,-2.3795,-2.3795,-2.3795,-2.3795,-2.3795,-2.3795,-2.3795,-2.3795,-2.3846,-2.3926,-2.3967,-2.4037,-2.4154,-2.433,-2.4402,-2.4472,-2.4596,-2.4622,-2.4615,-2.4638,-2.4631,-2.4641,-2.4638,-2.4663,-2.4689,-2.4689,-2.4701,-2.4707,-2.4707,-2.4707,-2.4707,-2.4707,-2.4707,-2.4707,-2.4707,-2.4707,-2.4707,-2.4707,-2.4707,-2.4707,-2.4707,-2.4707,-2.4667,-2.4578,-2.4561,-2.4538,-2.4436,-2.4478,-2.4528,-2.4561,-2.4619,-2.4651,-2.4707,-2.4707,-2.4707]},{"header":{"parameterUnit":"m.s-1","parameterCategory":1,"la1":30.6,"la2":29.2853,"lo1":-89.7004,"lo2":-87.6739,"dy":0.0162,"dx":0.0183,"nx":112,"ny":82,"refTime":"2024-07-14T18:00:00:Z","depth":0,"parameterNumber":3,"parameterNumberName":"V-component_of_WINDS"},"data":[0.0,0.0,0.0,0.0,0.0,0.0,0.0,0.0,0.0,0.0,0.0,0.0,0.0,0.0,0.0,0.0,0.0,0.0,0.0,0.0,0.0,0.0,0.0,0.0,0.0,0.0,0.0,0.0,0.0,0.0,0.0,0.0,0.0,0.0,0.0,0.0,0.0,0.0,0.0,0.0,0.0,0.0,0.0,0.0,0.0,0.0,0.0,0.0,0.0,0.0,0.0,0.0,0.0,0.0,0.0,0.0,0.0,0.0,0.0,0.0,0.0,0.0,0.0,0.0,0.0,0.0,0.0,0.0,0.0,0.0,0.0,0.0,0.0,0.0,0.0,0.0,0.0,0.0,0.0,0.0,0.0,0.0,0.0,0.0,0.0,0.0,0.0,0.0,0.0,0.0,-1.5906,-1.6459,-1.6515,-1.6522,-1.6528,-1.662,-1.6284,-1.5274,0.0,0.0,0.0,0.0,0.0,0.0,0.0,0.0,0.0,0.0,0.0,0.0,0.0,0.0,0.0,0.0,0.0,0.0,0.0,0.0,0.0,0.0,0.0,0.0,0.0,0.0,0.0,0.0,0.0,0.0,0.0,0.0,0.0,0.0,0.0,0.0,0.0,0.0,0.0,0.0,0.0,0.0,0.0,0.0,0.0,0.0,0.0,0.0,0.0,0.0,0.0,0.0,0.0,0.0,0.0,0.0,0.0,0.0,0.0,0.0,0.0,0.0,0.0,0.0,0.0,0.0,0.0,0.0,0.0,0.0,0.0,0.0,0.0,0.0,0.0,0.0,0.0,0.0,0.0,0.0,0.0,0.0,0.0,0.0,0.0,0.0,0.0,0.0,0.0,0.0,0.0,0.0,0.0,0.0,0.0,0.0,0.0,0.0,0.0,0.0,0.0,0.0,0.0,0.0,-1.5906,-1.6459,-1.6515,-1.6528,-1.6675,-1.6682,-1.6284,-1.535,0.0,0.0,0.0,0.0,0.0,0.0,0.0,0.0,0.0,0.0,0.0,0.0,0.0,0.0,0.0,0.0,0.0,0.0,0.0,0.0,0.0,0.0,0.0,0.0,0.0,0.0,0.0,0.0,0.0,0.0,0.0,0.0,0.0,0.0,0.0,0.0,0.0,0.0,0.0,0.0,0.0,0.0,0.0,0.0,0.0,0.0,0.0,0.0,0.0,0.0,0.0,0.0,0.0,0.0,0.0,0.0,0.0,0.0,0.0,0.0,0.0,0.0,0.0,0.0,0.0,0.0,0.0,0.0,0.0,0.0,0.0,0.0,0.0,0.0,0.0,0.0,0.0,0.0,0.0,0.0,0.0,0.0,0.0,0.0,0.0,0.0,0.0,0.0,0.0,0.0,0.0,0.0,0.0,0.0,0.0,0.0,0.0,0.0,0.0,0.0,0.0,0.0,0.0,-1.5982,-1.6245,-1.6552,-1.6626,-1.6663,-1.6803,-1.684,-1.6401,-1.535,-1.5387,0.0,0.0,0.0,0.0,0.0,0.0,0.0,0.0,0.0,0.0,0.0,0.0,0.0,0.0,0.0,0.0,0.0,0.0,0.0,0.0,0.0,0.0,0.0,0.0,0.0,0.0,0.0,0.0,0.0,0.0,0.0,0.0,0.0,0.0,0.0,0.0,0.0,0.0,0.0,0.0,0.0,0.0,0.0,0.0,0.0,0.0,0.0,0.0,0.0,0.0,0.0,0.0,0.0,0.0,0.0,0.0,0.0,0.0,0.0,0.0,0.0,0.0,0.0,0.0,0.0,0.0,0.0,0.0,0.0,0.0,0.0,0.0,0.0,0.0,0.0,0.0,0.0,0.0,0.0,0.0,0.0,0.0,0.0,0.0,0.0,0.0,0.0,0.0,0.0,0.0,0.0,0.0,0.0,0.0,0.0,0.0,0.0,0.0,0.0,0.0,0.0,0.0,-1.6434,-1.6565,-1.6682,-1.6682,-1.6761,-1.6924,-1.6831,-1.637,-1.5414,-1.5325,0.0,0.0,0.0,0.0,0.0,0.0,0.0,0.0,0.0,0.0,0.0,0.0,0.0,0.0,0.0,0.0,0.0,0.0,0.0,0.0,0.0,0.0,0.0,0.0,0.0,0.0,0.0,0.0,0.0,0.0,0.0,0.0,0.0,0.0,0.0,0.0,0.0,0.0,0.0,0.0,0.0,0.0,0.0,0.0,0.0,0.0,0.0,0.0,0.0,0.0,0.0,0.0,0.0,0.0,0.0,0.0,0.0,0.0,0.0,0.0,0.0,0.0,0.0,0.0,0.0,0.0,0.0,0.0,0.0,0.0,0.0,0.0,0.0,0.0,0.0,0.0,0.0,0.0,0.0,0.0,0.0,0.0,0.0,0.0,0.0,0.0,0.0,0.0,0.0,0.0,0.0,0.0,0.0,0.0,0.0,0.0,0.0,0.0,0.0,0.0,0.0,0.0,-1.6195,-1.6565,-1.6682,-1.6682,-1.6761,-1.696,-1.6559,-1.6035,-1.5532,-1.4964,0.0,0.0,0.0,0.0,0.0,0.0,0.0,0.0,0.0,0.0,0.0,0.0,0.0,0.0,0.0,0.0,0.0,0.0,0.0,0.0,0.0,0.0,0.0,0.0,0.0,0.0,0.0,0.0,0.0,0.0,0.0,0.0,0.0,0.0,0.0,0.0,0.0,0.0,0.0,0.0,0.0,0.0,0.0,0.0,0.0,0.0,0.0,0.0,0.0,0.0,0.0,0.0,0.0,0.0,0.0,0.0,0.0,0.0,0.0,0.0,0.0,0.0,0.0,0.0,0.0,0.0,0.0,0.0,0.0,0.0,0.0,0.0,0.0,0.0,0.0,0.0,0.0,0.0,0.0,0.0,0.0,0.0,0.0,0.0,0.0,0.0,0.0,0.0,0.0,0.0,0.0,0.0,0.0,0.0,0.0,0.0,0.0,0.0,0.0,0.0,0.0,0.0,-1.6279,-1.6712,-1.6882,-1.6882,-1.696,-1.7122,-1.692,-1.644,-1.5552,0.0,0.0,0.0,0.0,0.0,0.0,0.0,0.0,0.0,0.0,0.0,0.0,0.0,0.0,0.0,0.0,0.0,0.0,0.0,0.0,0.0,0.0,0.0,0.0,0.0,0.0,0.0,0.0,0.0,0.0,0.0,0.0,0.0,0.0,0.0,0.0,0.0,0.0,0.0,0.0,0.0,0.0,0.0,0.0,0.0,0.0,0.0,0.0,0.0,0.0,0.0,0.0,0.0,0.0,0.0,0.0,0.0,0.0,0.0,0.0,0.0,0.0,0.0,0.0,0.0,0.0,0.0,0.0,0.0,0.0,0.0,0.0,0.0,0.0,0.0,0.0,0.0,0.0,0.0,0.0,0.0,0.0,0.0,0.0,0.0,0.0,0.0,0.0,0.0,0.0,0.0,0.0,0.0,0.0,0.0,0.0,0.0,0.0,0.0,0.0,0.0,0.0,-1.5564,-1.6303,-1.6797,-1.696,-1.7002,-1.7038,-1.7199,-1.6865,-1.633,-1.5539,0.0,0.0,0.0,0.0,0.0,0.0,0.0,0.0,0.0,0.0,0.0,0.0,0.0,0.0,0.0,0.0,0.0,0.0,0.0,0.0,0.0,0.0,0.0,0.0,0.0,0.0,0.0,0.0,0.0,0.0,0.0,0.0,0.0,0.0,0.0,0.0,0.0,0.0,0.0,0.0,0.0,0.0,0.0,0.0,0.0,0.0,0.0,0.0,0.0,0.0,0.0,0.0,0.0,0.0,0.0,0.0,0.0,0.0,0.0,0.0,0.0,0.0,0.0,0.0,0.0,0.0,0.0,0.0,0.0,0.0,0.0,0.0,0.0,0.0,0.0,0.0,0.0,0.0,0.0,0.0,0.0,0.0,0.0,0.0,0.0,0.0,0.0,0.0,0.0,0.0,0.0,0.0,0.0,0.0,0.0,0.0,0.0,0.0,0.0,0.0,0.0,0.0,-1.5018,-1.613,-1.6918,-1.7002,-1.7002,-1.7031,-1.7192,-1.6153,-1.5493,0.0,0.0,0.0,0.0,0.0,0.0,0.0,0.0,0.0,0.0,0.0,0.0,0.0,0.0,0.0,0.0,0.0,0.0,0.0,0.0,0.0,0.0,0.0,0.0,0.0,0.0,0.0,0.0,0.0,0.0,0.0,0.0,0.0,0.0,0.0,0.0,0.0,0.0,0.0,0.0,0.0,0.0,0.0,0.0,0.0,0.0,0.0,0.0,0.0,0.0,0.0,0.0,0.0,0.0,0.0,0.0,0.0,0.0,0.0,0.0,0.0,0.0,0.0,0.0,0.0,0.0,0.0,0.0,0.0,0.0,0.0,0.0,0.0,0.0,0.0,0.0,0.0,0.0,0.0,0.0,0.0,0.0,0.0,0.0,0.0,0.0,0.0,0.0,0.0,0.0,0.0,0.0,0.0,0.0,0.0,0.0,0.0,0.0,0.0,0.0,0.0,0.0,0.0,-1.5267,-1.6252,-1.7002,-1.7122,-1.7157,-1.7001,-1.6656,-1.6323,-1.5761,-1.4912,0.0,0.0,0.0,0.0,0.0,0.0,0.0,0.0,0.0,0.0,0.0,0.0,0.0,0.0,0.0,0.0,0.0,0.0,0.0,0.0,0.0,0.0,0.0,0.0,0.0,0.0,0.0,0.0,0.0,0.0,0.0,0.0,0.0,0.0,0.0,0.0,0.0,0.0,0.0,0.0,0.0,0.0,0.0,0.0,0.0,0.0,0.0,0.0,0.0,0.0,0.0,0.0,0.0,0.0,0.0,0.0,0.0,0.0,0.0,0.0,0.0,0.0,0.0,0.0,0.0,0.0,0.0,0.0,0.0,0.0,0.0,0.0,0.0,0.0,0.0,0.0,0.0,0.0,0.0,0.0,0.0,0.0,0.0,0.0,0.0,0.0,0.0,0.0,0.0,0.0,0.0,0.0,0.0,0.0,0.0,0.0,0.0,0.0,0.0,0.0,0.0,0.0,-1.5387,-1.6373,-1.7122,-1.7199,-1.7199,-1.6983,-1.6441,-1.6173,-1.5617,-1.4657,0.0,0.0,0.0,0.0,0.0,0.0,0.0,0.0,0.0,0.0,0.0,0.0,0.0,0.0,0.0,0.0,0.0,0.0,0.0,0.0,0.0,0.0,0.0,0.0,0.0,0.0,0.0,0.0,0.0,0.0,0.0,0.0,0.0,0.0,0.0,0.0,0.0,0.0,0.0,0.0,0.0,0.0,0.0,0.0,0.0,0.0,0.0,0.0,0.0,0.0,0.0,0.0,0.0,0.0,0.0,0.0,0.0,0.0,0.0,0.0,0.0,0.0,0.0,0.0,0.0,0.0,0.0,0.0,0.0,0.0,0.0,0.0,0.0,0.0,0.0,0.0,0.0,0.0,0.0,0.0,0.0,0.0,0.0,0.0,0.0,0.0,0.0,0.0,0.0,0.0,0.0,0.0,0.0,0.0,0.0,0.0,0.0,0.0,0.0,0.0,0.0,0.0,-1.5424,-1.6453,-1.7199,-1.7199,-1.7199,-1.6983,-1.6441,-1.5846,-1.5232,-1.4631,0.0,0.0,0.0,0.0,0.0,0.0,0.0,0.0,0.0,0.0,0.0,0.0,0.0,0.0,0.0,0.0,0.0,0.0,0.0,0.0,0.0,0.0,0.0,0.0,0.0,0.0,0.0,0.0,0.0,0.0,0.0,0.0,0.0,0.0,0.0,0.0,0.0,0.0,0.0,0.0,0.0,0.0,0.0,0.0,0.0,0.0,0.0,0.0,0.0,0.0,0.0,0.0,0.0,0.0,0.0,0.0,0.0,0.0,0.0,0.0,-1.6525,-1.6387,0.0,0.0,0.0,0.0,0.0,0.0,0.0,0.0,0.0,0.0,0.0,0.0,0.0,0.0,0.0,0.0,0.0,0.0,0.0,0.0,0.0,0.0,0.0,0.0,0.0,0.0,0.0,0.0,0.0,0.0,0.0,0.0,0.0,0.0,0.0,0.0,0.0,0.0,0.0,0.0,-1.5456,-1.6493,-1.7199,-1.7199,-1.7199,-1.6983,-1.6441,-1.5846,-1.5232,-1.4631,-1.4088,0.0,0.0,0.0,0.0,0.0,0.0,0.0,0.0,0.0,0.0,0.0,0.0,0.0,0.0,0.0,0.0,0.0,0.0,0.0,0.0,0.0,0.0,0.0,0.0,0.0,0.0,0.0,0.0,0.0,0.0,0.0,0.0,0.0,0.0,0.0,0.0,0.0,0.0,0.0,0.0,0.0,0.0,0.0,0.0,0.0,0.0,0.0,0.0,0.0,0.0,0.0,0.0,0.0,0.0,0.0,0.0,0.0,0.0,0.0,-1.7127,-1.7062,0.0,0.0,0.0,0.0,0.0,0.0,0.0,0.0,0.0,0.0,0.0,0.0,0.0,0.0,0.0,0.0,0.0,0.0,0.0,0.0,0.0,0.0,0.0,0.0,0.0,0.0,0.0,0.0,0.0,0.0,0.0,0.0,0.0,0.0,0.0,0.0,0.0,0.0,0.0,0.0,-1.5493,-1.6493,-1.7199,-1.7199,-1.7199,-1.6983,-1.6441,-1.5846,-1.5232,-1.4631,-1.4088,0.0,0.0,0.0,0.0,0.0,0.0,0.0,0.0,0.0,0.0,0.0,0.0,0.0,0.0,0.0,0.0,0.0,0.0,0.0,0.0,0.0,0.0,0.0,0.0,0.0,0.0,0.0,0.0,0.0,0.0,0.0,0.0,0.0,0.0,0.0,0.0,0.0,0.0,0.0,0.0,0.0,0.0,0.0,0.0,0.0,0.0,0.0,0.0,0.0,0.0,0.0,0.0,0.0,-1.7802,-1.7824,-1.8346,-1.7788,-1.7838,-1.8332,-1.7773,-1.7853,-1.831,-1.7795,0.0,0.0,0.0,0.0,0.0,0.0,0.0,0.0,0.0,0.0,0.0,0.0,0.0,0.0,0.0,0.0,0.0,0.0,0.0,0.0,0.0,0.0,-1.6408,-1.5905,-1.6173,-1.6362,-1.5679,0.0,0.0,0.0,0.0,0.0,0.0,0.0,0.0,0.0,0.0,0.0,-1.565,-1.6552,-1.7199,-1.7199,-1.7199,-1.7016,-1.6571,-1.5898,-1.5278,-1.4781,-1.4141,-1.3788,0.0,0.0,0.0,0.0,0.0,0.0,0.0,0.0,0.0,0.0,0.0,0.0,0.0,0.0,0.0,0.0,0.0,0.0,0.0,0.0,0.0,0.0,0.0,0.0,0.0,0.0,0.0,0.0,0.0,0.0,0.0,0.0,-1.2111,-1.3188,0.0,0.0,0.0,0.0,0.0,0.0,0.0,0.0,0.0,0.0,0.0,0.0,0.0,-1.7841,-1.8078,-1.8593,-1.8898,-1.8978,-1.8891,-1.8898,-1.8978,-1.8891,-1.8898,-1.8978,-1.8891,0.0,-1.8934,-1.8403,0.0,0.0,0.0,0.0,0.0,0.0,0.0,0.0,0.0,0.0,0.0,0.0,0.0,0.0,0.0,0.0,0.0,0.0,0.0,0.0,0.0,0.0,-1.7068,-1.699,-1.7035,-1.7033,-1.6796,-1.6454,-1.6313,-1.6775,-1.6481,-1.6145,0.0,0.0,0.0,0.0,0.0,0.0,-1.6277,-1.6813,-1.7199,-1.7199,-1.7199,-1.7173,-1.7101,-1.6107,-1.5461,-1.5382,-1.4382,-1.3788,-1.3788,-1.3788,0.0,0.0,0.0,0.0,0.0,0.0,0.0,0.0,0.0,0.0,0.0,0.0,0.0,0.0,0.0,0.0,0.0,0.0,0.0,0.0,0.0,0.0,0.0,0.0,0.0,0.0,0.0,0.0,0.0,-1.2165,-1.3231,-1.3682,-1.4544,-1.502,0.0,0.0,0.0,0.0,0.0,0.0,0.0,0.0,0.0,-1.7526,-1.7827,-1.8216,-1.8709,-1.897,-1.9101,-1.9101,-1.9101,-1.9101,-1.9101,-1.9101,-1.9101,-1.9101,-1.9101,-1.9101,-1.9079,-1.8958,-1.895,-1.8941,0.0,0.0,0.0,0.0,-1.9009,-1.9263,-1.9375,-1.9592,-1.9772,-1.9375,0.0,0.0,0.0,0.0,0.0,0.0,0.0,-1.7143,-1.6533,-1.6794,-1.7199,-1.7199,-1.7199,-1.7297,-1.7551,-1.7427,-1.7226,-1.7051,-1.7391,-1.7401,-1.6458,-1.6381,0.0,0.0,0.0,-1.6395,-1.6395,-1.6865,-1.7199,-1.7199,-1.7199,-1.7199,-1.7199,-1.6467,-1.5853,-1.5513,-1.4703,-1.4101,-1.3794,-1.3788,-1.3788,0.0,0.0,0.0,0.0,0.0,0.0,0.0,0.0,0.0,0.0,0.0,0.0,0.0,0.0,0.0,0.0,0.0,0.0,0.0,0.0,0.0,0.0,0.0,0.0,0.0,0.0,0.0,0.0,-1.3425,-1.4094,-1.4326,-1.5307,-1.5721,0.0,0.0,0.0,0.0,0.0,0.0,-1.6916,-1.7106,-1.7497,-1.8113,-1.8337,-1.8678,-1.9101,-1.9268,-1.9268,-1.9101,-1.9101,-1.9101,-1.9101,-1.9101,-1.9101,-1.9101,-1.9101,-1.9101,-1.9139,-1.9339,-1.942,-1.9413,-1.9617,-1.9682,-1.9682,-1.9682,-1.9802,-1.9996,-2.0333,-2.0572,-2.0632,-2.0116,-1.9832,-1.954,-1.8732,0.0,0.0,0.0,0.0,-1.7415,-1.6784,-1.6898,-1.7199,-1.7199,-1.7199,-1.7323,-1.7774,-1.7865,-1.7776,-1.7547,-1.813,-1.8303,-1.7048,-1.7035,0.0,-1.6055,-1.631,-1.6598,-1.6598,-1.695,-1.7199,-1.7199,-1.7199,-1.7199,-1.7199,-1.6709,-1.6205,-1.5755,-1.5144,-1.4653,-1.4239,-1.4086,-1.4013,-1.4013,0.0,0.0,0.0,0.0,0.0,0.0,0.0,0.0,0.0,0.0,0.0,0.0,0.0,0.0,0.0,0.0,0.0,0.0,0.0,0.0,0.0,0.0,0.0,0.0,0.0,0.0,0.0,0.0,0.0,-1.5494,-1.6227,0.0,0.0,0.0,0.0,-1.6635,-1.6847,-1.7147,-1.7511,-1.8103,-1.8503,-1.8741,-1.9387,-1.9509,-1.9108,-1.9732,-1.9732,-1.9101,-1.9101,-1.9101,-1.9101,-1.9101,-1.9101,-1.9101,-1.9101,-1.9183,-1.9302,-1.9376,-1.942,-1.9413,-1.9617,-1.9682,-1.9682,-1.9682,-2.0094,-2.0572,-1.9952,-2.0168,-2.0707,-2.067,-2.0221,-1.9802,-2.0393,-1.9376,0.0,0.0,-1.8118,-1.7673,-1.7277,-1.7179,-1.7199,-1.7199,-1.7199,-1.7205,-1.7238,-1.7244,-1.7552,-1.861,-1.8447,-1.8114,-1.8029,0.0,-1.7179,-1.712,-1.714,-1.7153,-1.7153,-1.7179,-1.7199,-1.7199,-1.7199,-1.7199,-1.7199,-1.6709,-1.6382,-1.6349,-1.5792,-1.5436,-1.5412,-1.4849,-1.4574,-1.4574,-1.4073,0.0,0.0,0.0,0.0,0.0,0.0,0.0,0.0,0.0,0.0,0.0,0.0,0.0,0.0,0.0,0.0,0.0,0.0,0.0,0.0,0.0,0.0,0.0,0.0,0.0,0.0,0.0,0.0,-1.6326,-1.6895,0.0,-1.6403,-1.6787,-1.7114,-1.7274,-1.7723,-1.8026,-1.8156,-1.8398,-1.8581,-1.8784,-1.9012,-1.9142,-1.9101,-1.9341,-1.9341,-1.9101,-1.9101,-1.9101,-1.9101,-1.9101,-1.9101,-1.9101,-1.9101,-1.9183,-1.9302,-1.9376,-1.9457,-1.9531,-1.9661,-1.9682,-1.9682,-1.9682,-1.9839,-2.0019,-1.9765,-2.0139,-2.0715,-2.0715,-2.0251,-1.9727,-1.9974,-1.9457,-1.8692,-1.8566,-1.8147,-1.7713,-1.7317,-1.7199,-1.7199,-1.7199,-1.7199,-1.7199,-1.7199,-1.7199,-1.7316,-1.7728,-1.7963,-1.7976,-1.7584,-1.7663,-1.765,-1.7258,-1.7199,-1.7199,-1.7199,-1.7199,-1.7199,-1.7199,-1.7199,-1.7199,-1.7199,-1.7016,-1.6769,-1.6408,-1.6218,-1.5893,-1.5514,-1.491,-1.4594,-1.4594,-1.4073,-1.3788,0.0,0.0,0.0,0.0,0.0,0.0,0.0,0.0,0.0,0.0,0.0,0.0,0.0,0.0,0.0,0.0,0.0,0.0,0.0,0.0,0.0,0.0,0.0,0.0,0.0,-1.6323,-1.7006,-1.6999,-1.7541,-1.7674,-1.7049,-1.7548,-1.7906,-1.7906,-1.8286,-1.8517,-1.8517,-1.8517,-1.8581,-1.8784,-1.8784,-1.8905,-1.9101,-1.9101,-1.9101,-1.9101,-1.9101,-1.9101,-1.9101,-1.9101,-1.9101,-1.9101,-1.9243,-1.9288,-1.9339,-1.9531,-1.9669,-1.9777,-1.9726,-1.9682,-1.9682,-1.9682,-1.9682,-1.9682,-1.9682,-1.9981,-2.037,-2.037,-2.0056,-1.9682,-1.9682,-1.9428,-1.9019,-1.8623,-1.8147,-1.7713,-1.7317,-1.7199,-1.7199,-1.7199,-1.7199,-1.7199,-1.7199,-1.7199,-1.7199,-1.7199,-1.7519,-1.7669,-1.7271,-1.7532,-1.7656,-1.7258,-1.7199,-1.7199,-1.7199,-1.7199,-1.7199,-1.7199,-1.7199,-1.7199,-1.7199,-1.7199,-1.705,-1.6685,-1.6678,-1.6506,-1.6084,-1.5326,-1.4893,-1.491,-1.4348,-1.4167,-1.4363,0.0,0.0,0.0,0.0,0.0,0.0,0.0,0.0,0.0,0.0,0.0,0.0,0.0,0.0,0.0,0.0,0.0,0.0,0.0,0.0,0.0,0.0,0.0,-1.7597,-1.7284,-1.7177,-1.7588,-1.8152,-1.8286,-1.7681,-1.8173,-1.8517,-1.8517,-1.8517,-1.8517,-1.8517,-1.8538,-1.8609,-1.8812,-1.8812,-1.8927,-1.913,-1.9108,-1.9101,-1.9101,-1.9101,-1.9131,-1.9139,-1.9139,-1.9139,-1.9176,-1.9545,-1.9581,-1.9376,-1.9812,-2.0061,-2.0108,-1.9826,-1.9726,-1.9718,-1.9718,-1.9682,-1.9682,-1.9682,-1.9682,-1.9682,-1.9682,-1.9682,-1.9682,-1.9682,-1.9428,-1.9019,-1.8623,-1.8187,-1.7713,-1.7317,-1.7199,-1.7199,-1.7199,-1.7199,-1.7199,-1.7199,-1.7199,-1.7199,-1.7199,-1.7199,-1.7199,-1.7199,-1.7199,-1.7199,-1.7199,-1.7199,0.0,-1.7199,-1.7199,-1.7199,-1.7199,-1.7199,-1.7199,-1.7199,-1.7199,-1.7199,-1.7199,-1.7199,-1.7199,-1.7199,-1.6105,-1.5504,-1.5494,-1.4931,-1.4929,-1.5482,0.0,0.0,0.0,0.0,0.0,0.0,0.0,0.0,0.0,0.0,0.0,0.0,0.0,0.0,0.0,0.0,0.0,0.0,0.0,0.0,0.0,-1.69,-1.7516,-1.7195,-1.7695,-1.8142,-1.8226,-1.8419,-1.8447,-1.8286,-1.8419,-1.8517,-1.8517,-1.8517,-1.8517,-1.8517,-1.8892,-1.9218,-1.9371,-1.943,-1.9516,-1.9663,-1.9303,-1.925,-1.9537,-1.9537,-1.9667,-1.9894,-1.9894,-1.9894,-1.9894,-2.0007,-2.0085,-2.01,-2.0292,-2.0395,-2.0395,-1.9889,-1.9846,-2.0042,-1.9782,-1.9682,-1.9682,-1.9682,-1.9682,-1.9682,-1.9682,-1.9682,-1.9682,-1.9682,-1.9428,-1.9064,-1.8981,-1.839,-1.7754,-1.7673,-1.7441,-1.7199,-1.7199,-1.7199,-1.7199,-1.7199,-1.7199,-1.7199,-1.7199,-1.7199,-1.7199,-1.7199,-1.7199,-1.7199,-1.7199,-1.7199,-1.7199,-1.7199,-1.7199,-1.7199,-1.7199,-1.7199,-1.7199,-1.7199,-1.7199,-1.7199,-1.7199,-1.7199,-1.7199,-1.7199,-1.6533,-1.5964,-1.5501,-1.5325,-1.5324,0.0,0.0,0.0,0.0,0.0,0.0,0.0,0.0,0.0,0.0,0.0,0.0,0.0,0.0,0.0,0.0,0.0,0.0,0.0,0.0,0.0,0.0,-1.7583,-1.7908,-1.765,-1.8124,-1.8517,-1.8517,-1.8517,-1.8517,-1.8517,-1.8517,-1.8517,-1.8517,-1.8517,-1.8517,-1.8517,-1.8815,-1.9084,-1.9218,-1.9301,-1.938,-1.9533,-1.9221,-1.9317,-1.9682,-1.9682,-1.9882,-2.0208,-2.0208,-2.0208,-2.0208,-2.0387,-2.0429,-2.0379,-2.0607,-2.0739,-2.0772,0.0,0.0,0.0,0.0,-1.9682,-1.9682,-1.9682,-1.9682,-1.9682,-1.9682,-1.9682,-1.9742,-2.0026,-1.9768,-1.9369,-1.9504,-1.8829,-1.8068,-1.8068,-1.7632,-1.7275,-1.7673,-1.7598,-1.7516,-1.7713,-1.7598,-1.7434,-1.7434,-1.7317,0.0,-1.7199,-1.7199,-1.7199,-1.7199,-1.7199,-1.7199,-1.7199,-1.7199,-1.7199,-1.7199,-1.7199,-1.7199,-1.7199,-1.7199,0.0,0.0,0.0,-1.7111,-1.6889,-1.6587,0.0,0.0,0.0,0.0,0.0,0.0,0.0,0.0,-1.6238,-1.6153,0.0,0.0,0.0,0.0,0.0,0.0,0.0,0.0,0.0,0.0,0.0,0.0,0.0,0.0,0.0,0.0,-1.8124,-1.8517,-1.8517,-1.8517,-1.8517,-1.8517,-1.8517,-1.8517,-1.8517,-1.8517,-1.8517,-1.8517,-1.8517,-1.8517,-1.8517,-1.8581,0.0,0.0,0.0,-1.8951,-1.9094,-1.9076,-1.9317,-1.9754,-1.9754,-1.9952,-2.0311,-2.0311,-2.0311,-2.0345,-2.0712,-2.0697,-2.0457,-2.0902,-2.1118,-2.1142,-2.0909,-2.0538,-2.0147,-1.9818,-1.9682,-1.9682,-1.9682,0.0,0.0,-1.9682,-1.9742,-1.9914,-2.0528,-2.0341,-1.996,-2.0196,-1.9494,-1.8691,-1.8691,-1.801,-1.7557,-1.8312,-1.8187,-1.7995,-1.8429,-1.8108,-1.7794,-1.7794,-1.7475,-1.7199,-1.7199,-1.7199,-1.7199,-1.7199,-1.7199,-1.7199,-1.7199,-1.7199,-1.7199,-1.7199,-1.7199,0.0,-1.7199,-1.7199,-1.7199,-1.7199,-1.7199,-1.6983,-1.652,-1.6472,-1.6472,-1.6472,-1.6472,-1.6735,-1.7199,-1.7199,-1.7199,-1.7173,-1.6153,-1.597,0.0,0.0,0.0,0.0,0.0,0.0,0.0,0.0,0.0,0.0,0.0,0.0,0.0,0.0,0.0,-1.7576,-1.8124,-1.8517,-1.8517,-1.8517,-1.8517,-1.8517,-1.8517,-1.8517,-1.8517,-1.8517,-1.8517,-1.8517,-1.8517,-1.8517,-1.8517,-1.8948,-1.9255,-1.9255,-1.9376,-1.9482,-1.9548,-1.9185,-1.9398,-2.0112,-2.0112,0.0,-2.1079,-2.1079,-2.1079,-2.1079,-2.1183,-2.1183,-2.1143,-2.1371,-2.1556,-2.1623,-2.1039,-2.0538,-2.0147,-1.9818,-1.9682,-1.9682,-1.9682,-1.9682,-1.9682,-1.9682,-2.0064,-2.0543,-2.067,-2.0991,0.0,-2.1384,-2.0609,-1.9785,-1.9785,-1.8999,-1.8305,-1.8468,-1.8429,-1.839,-1.8468,-1.8108,-1.7794,-1.7794,-1.7475,-1.7199,-1.7199,-1.7199,-1.7199,-1.7199,-1.7199,-1.7199,-1.7199,-1.7199,-1.7199,-1.7199,-1.7199,-1.7199,-1.7199,-1.7199,-1.7199,-1.7199,-1.7199,-1.7137,-1.705,-1.705,-1.705,-1.705,-1.705,-1.7111,-1.7199,-1.7199,-1.7199,-1.7192,-1.697,-1.6931,0.0,0.0,0.0,0.0,0.0,0.0,0.0,0.0,0.0,0.0,0.0,-1.6614,-1.715,0.0,-1.7719,-1.8012,-1.8204,-1.84,-1.8478,-1.84,-1.84,-1.8478,-1.8517,-1.8517,-1.8517,-1.8517,-1.8517,-1.8517,-1.8517,-1.8517,-1.8517,-1.8773,-1.8934,-1.8934,-1.9101,-1.9173,-1.9191,-1.9068,-1.9376,-2.0154,-2.0174,-2.0589,-2.1317,-2.1317,-2.1317,-2.1317,-2.1317,-2.1348,-2.145,-2.1625,-2.1961,-2.2272,-2.1375,-2.0811,-2.0436,-1.9889,-1.9682,-1.9682,-1.9682,-1.9682,-1.9682,-1.9682,-2.0154,-2.0774,-2.1111,-2.1433,-2.1769,-2.2091,-2.1178,-2.013,-2.034,-1.945,-1.8584,-1.8997,-1.8808,-1.8623,-1.8997,-1.8616,-1.8147,-1.8147,-1.7995,-1.7713,-1.7275,-1.7358,-1.7434,-1.724,-1.7358,-1.7434,-1.724,-1.7199,-1.7199,-1.7199,-1.7199,-1.7199,-1.7199,-1.7199,-1.7199,-1.7199,-1.7199,-1.7199,-1.7199,-1.7199,-1.7199,-1.7199,-1.7199,-1.7199,-1.7199,-1.7199,-1.7199,-1.7199,-1.7199,-1.7199,0.0,0.0,0.0,0.0,0.0,0.0,0.0,-1.6254,-1.6524,-1.6646,-1.6934,-1.7341,-1.7824,-1.7796,-1.7866,-1.8355,-1.8282,-1.8202,-1.8361,-1.8242,-1.8202,-1.8361,-1.8439,-1.8517,-1.8517,-1.8517,-1.8517,-1.8517,-1.8517,-1.8517,-1.8517,-1.8517,-1.8517,-1.8517,-1.8595,-1.868,-1.8718,-1.8865,-1.9302,-1.9995,-2.0112,-2.0556,-2.1222,-2.1285,-2.1317,-2.1317,-2.1317,-2.1419,-2.162,-2.1716,-2.2115,-2.2595,-2.1599,-2.1023,-2.072,-2.0065,-1.9754,-1.9682,-1.9682,-1.9682,-1.9682,-1.9682,-2.0154,-2.0842,-2.15,-2.1784,-2.2024,-2.2667,-2.1695,-2.0485,-2.0825,-1.9828,-1.8929,-1.9574,-1.9229,-1.8966,-1.961,-1.9191,-1.8655,-1.8655,-1.8539,-1.8187,-1.7475,-1.7598,-1.7673,-1.7282,-1.7475,-1.7557,-1.724,-1.7199,-1.7199,-1.7199,-1.7199,-1.7199,-1.7199,-1.7199,-1.7199,-1.7199,-1.7199,-1.7199,-1.7199,-1.7199,-1.7199,-1.7199,-1.7199,-1.7199,-1.7199,-1.7199,-1.7199,-1.7199,-1.7199,-1.7199,-1.7251,-1.7326,-1.7441,-1.7345,-1.725,-1.7457,0.0,-1.8165,-1.7985,-1.8629,-1.8631,-1.8551,-1.8745,-1.843,-1.8159,-1.8228,-1.8043,-1.7922,-1.7963,-1.7963,-1.7922,-1.7963,-1.8282,-1.8517,-1.8517,-1.8517,-1.8517,-1.8517,-1.8517,-1.8517,-1.8517,-1.8517,-1.8517,-1.8517,-1.8517,-1.8595,-1.8718,-1.8767,-1.9087,-1.9559,-2.0007,-2.0429,-2.086,-2.1151,-2.1317,-2.1317,-2.1317,-2.1419,-2.1589,-2.162,-2.1744,-2.1845,-2.1143,-2.0819,-2.0753,-2.0326,-1.9952,-1.9682,-1.9682,-1.9682,-1.9682,-1.9682,-2.0154,-2.0842,-2.15,-2.2106,-2.2739,-2.3325,-2.2528,-2.1543,-2.1582,-2.0647,-1.969,-1.9762,-1.9805,-1.9848,-1.9962,-1.961,-1.9295,-1.9295,-1.8647,-1.8028,-1.7915,-1.7834,-1.7673,-1.7282,-1.724,-1.724,-1.7199,-1.7199,-1.7199,-1.7199,-1.7199,-1.7199,-1.7199,-1.7199,-1.7199,-1.7199,-1.7199,-1.7199,-1.7199,-1.7199,-1.7199,-1.7199,-1.7199,-1.7199,-1.7199,-1.7199,-1.7199,-1.7199,-1.7199,-1.7199,-1.8609,-1.8253,-1.7879,-1.8284,-1.8346,-1.8397,-1.8805,-1.865,-1.8536,-1.9006,-1.895,-1.8882,-1.9139,-1.8798,-1.845,-1.845,-1.8009,-1.774,-1.7882,-1.7788,-1.7747,-1.7875,-1.8043,-1.8202,-1.8321,-1.8321,-1.8361,-1.8478,-1.8517,-1.8517,-1.8517,-1.8517,-1.8517,-1.8517,-1.8517,-1.8517,-1.8595,-1.8697,-1.9087,-1.9745,-2.0007,-2.047,-2.1095,-2.1254,-2.1317,-2.1285,-2.1143,-2.1277,-2.1612,-2.1642,-2.1833,-2.209,-2.1367,-2.109,-2.0981,-2.0203,-1.9818,-1.9682,-1.9682,-1.9682,-1.9682,-1.9682,-2.0415,-2.1335,-2.1612,-2.2405,-2.3233,-2.3155,-2.2465,-2.1708,-2.1363,-2.0601,-1.9884,-1.9682,-1.9486,-1.9406,-1.9646,-1.9347,-1.9117,-1.9244,-1.8921,-1.8468,-1.7955,-1.8068,-1.7995,-1.7317,-1.7399,-1.7475,-1.724,-1.7199,-1.7199,-1.7199,-1.7199,-1.7199,-1.7199,-1.7199,-1.7199,-1.7199,-1.7199,-1.7199,-1.7199,-1.7199,-1.7199,-1.7199,-1.7199,-1.7199,-1.7199,-1.7199,-1.7199,-1.7199,-1.7199,-1.7157,-1.8975,-1.8617,-1.826,-1.871,-1.8917,-1.8948,-1.8805,-1.8736,-1.875,-1.8995,-1.8981,-1.8981,-1.9288,-1.8898,-1.8507,-1.8475,-1.7882,-1.7488,-1.7666,-1.7529,-1.7488,-1.7666,-1.7713,-1.7794,-1.7989,-1.8116,-1.8282,-1.84,-1.8478,-1.8517,-1.8517,-1.8517,-1.8517,-1.8517,-1.8517,-1.8517,-1.8517,-1.8634,-1.9056,-1.9758,-1.998,-2.0478,-2.1159,-2.1254,-2.1317,-2.1285,-2.1103,-2.1198,-2.1534,-2.1526,-2.1727,-2.2013,-2.1271,-2.1004,-2.0893,-2.0027,-1.9682,-1.9682,-1.9682,-1.9682,-1.9682,-1.9682,-2.0475,-2.1463,-2.1642,-2.2506,-2.332,-2.2896,-2.2327,-2.1711,-2.1167,-2.0535,-1.9955,-1.9711,-1.9471,-1.9354,-1.9624,-1.9413,-1.9191,-1.9244,-1.9191,-1.8853,-1.7988,-1.8108,-1.8068,-1.7317,-1.7434,-1.7516,-1.724,-1.7199,-1.7199,-1.7199,-1.7199,-1.7199,-1.7199,-1.7199,-1.7199,-1.7199,-1.7199,-1.7199,-1.7199,-1.7199,-1.7199,-1.7199,-1.7199,-1.7199,-1.7199,-1.7199,-1.7199,-1.7199,-1.7199,-1.7122,-1.7872,-1.8153,-1.8684,-1.8229,-1.8562,-1.8955,-1.8757,-1.8718,-1.8743,-1.8874,-1.8905,-1.8974,-1.9177,-1.8717,-1.8279,-1.8228,-1.7652,-1.7199,-1.724,-1.7199,-1.7199,-1.724,-1.724,-1.7317,-1.7516,-1.7942,-1.8202,-1.8202,-1.84,-1.8517,-1.8517,-1.8517,-1.8517,-1.8517,-1.8517,-1.8517,-1.8517,-1.8634,-1.8957,-1.9435,-1.9882,-2.035,-2.0827,-2.1151,-2.1317,-2.1317,-2.1285,-2.1332,-2.1386,-2.1134,-2.1127,-2.1159,-2.0488,-2.0216,-2.0204,-1.9826,-1.9682,-1.9682,-1.9682,-1.9682,-1.9682,-1.9682,-2.0168,-2.0864,-2.15,-2.2239,-2.2832,-2.281,-2.2415,-2.1834,-2.1167,-2.0556,-2.0108,-2.0065,-2.0185,-2.0235,-2.0115,-2.0065,-1.9925,-1.9479,-1.9288,-1.8938,-1.8147,-1.7915,-1.7673,-1.7282,-1.7199,-1.7199,-1.7199,-1.7199,-1.7199,-1.7199,-1.7199,-1.7199,-1.7199,-1.7199,-1.7199,-1.7199,-1.7199,-1.7199,-1.7199,-1.7199,-1.7199,-1.7199,-1.7199,-1.7199,-1.7199,-1.7199,-1.7199,-1.7199,-1.7199,-1.7122,-1.9102,-1.9201,-1.9267,-1.9246,-1.9236,-1.9198,-1.892,-1.8943,-1.8966,-1.8745,-1.8867,-1.9011,-1.8893,-1.8447,-1.8068,-1.8088,-1.7564,-1.7199,-1.7199,-1.7199,-1.7199,-1.7199,-1.7199,-1.724,-1.7275,-1.7564,-1.7855,-1.8163,-1.8282,-1.8361,-1.8478,-1.8517,-1.8517,-1.8517,-1.8517,-1.8517,-1.8517,-1.8556,-1.892,-1.9603,-2.01,-2.052,-2.0794,-2.0402,-2.0361,-2.0556,-2.0326,-2.0413,-2.0657,-2.0665,-2.0589,-2.0436,-2.0285,-2.0077,-1.9846,-1.9754,-1.9682,-1.9682,-1.9682,-1.9682,-1.9682,-1.9682,-2.0445,-2.141,-2.1627,-2.2184,-2.2652,-2.237,-2.1803,-2.1211,-2.0679,-2.0369,-2.0185,-1.9945,-1.9945,-1.9952,-1.9909,-1.9889,-1.979,-1.9646,-1.9442,-1.9072,-1.8254,-1.8461,-1.8602,-1.8147,-1.7557,-1.7199,-1.7199,-1.7199,-1.7199,-1.7199,-1.7199,-1.7199,-1.7199,-1.7199,-1.7199,-1.7199,-1.7199,-1.7199,-1.7199,-1.7199,-1.7199,-1.7199,-1.7199,-1.7199,-1.7199,-1.7199,-1.7199,-1.7199,-1.7122,-1.6996,-1.9761,-1.9657,-1.9501,-1.9602,-1.9508,-1.9302,-1.9019,-1.9087,-1.9072,-1.8822,-1.8891,-1.8959,-1.8755,-1.833,-1.7995,-1.7955,-1.7516,-1.7199,-1.7199,-1.7199,-1.7199,-1.7199,-1.7199,-1.7199,-1.7199,-1.7317,-1.757,-1.8043,-1.8163,-1.8282,-1.8478,-1.8517,-1.8517,-1.8517,-1.8517,-1.8517,-1.8517,-1.8517,-1.8882,-1.9603,-2.01,-2.0452,-2.0571,-2.0085,-1.998,-2.0181,-1.998,-2.0042,-2.0254,-2.0261,-2.0189,-2.0045,-2.0003,-1.9854,-1.9682,-1.9682,-1.9682,-1.9682,-1.9682,-1.9682,-1.9682,-1.9682,-2.0438,-2.1388,-2.1627,-2.2184,-2.2648,-2.2144,-2.1721,-2.1301,-2.0773,-2.0666,-2.065,-2.0685,-2.0695,-2.0626,-2.0318,-2.0172,-1.9966,-1.9647,-1.942,-1.9042,-1.8254,-1.8351,-1.844,-1.8266,-1.7632,-1.7199,-1.7199,-1.7199,-1.7199,-1.7199,-1.7199,-1.7199,-1.7199,-1.7199,-1.7199,-1.7199,-1.7199,-1.7199,-1.7199,-1.7199,-1.7199,-1.7199,-1.7199,-1.7199,-1.7199,-1.7199,-1.7067,-1.6886,-1.6808,-1.6595,-1.9779,-1.9468,-1.9364,-1.9336,-1.9303,-1.9244,-1.9095,-1.9117,-1.9139,-1.9101,-1.8997,-1.8862,-1.8777,-1.8351,-1.7955,-1.7794,-1.7475,-1.724,-1.7199,-1.7199,-1.7199,-1.7199,-1.7199,-1.7199,-1.7199,-1.7199,-1.7371,-1.7835,-1.8043,-1.8282,-1.8478,-1.8478,-1.8478,-1.8517,-1.8517,-1.8517,-1.8517,-1.851,-1.8798,-1.9391,-1.9846,-2.0093,-2.0174,-2.0139,-2.0139,-2.0139,-2.0139,-2.0139,-2.0104,-1.9866,-1.9854,-1.9927,-1.9691,-1.964,-1.969,-1.9682,-1.9682,-1.9682,-1.9682,-1.9682,-1.9682,-1.9682,-2.0154,-2.0827,-2.1455,-2.2164,-2.2662,-2.2129,-2.2048,-2.2011,-2.1493,-2.1368,-2.1493,-2.2132,-2.2286,-2.2071,-2.1255,-2.0903,-2.0475,-1.9583,-1.9183,-1.8822,-1.8147,-1.7598,-1.7358,-1.7754,-1.7475,-1.724,-1.7199,-1.7199,-1.7199,-1.7199,-1.7199,-1.7199,-1.7199,-1.7199,-1.7199,-1.7199,-1.7199,-1.7199,-1.7199,-1.7199,-1.7199,-1.7199,-1.7199,-1.7199,-1.7199,-1.715,-1.6844,-1.6312,-1.6269,-1.5932,-1.9228,-1.8901,-1.8641,-1.8579,-1.8774,-1.8937,-1.8776,-1.9203,-1.9464,-1.8974,-1.8755,-1.8542,-1.8147,-1.7955,-1.7754,-1.7399,-1.7516,-1.7557,-1.724,-1.7199,-1.7199,-1.7199,-1.7199,-1.7199,-1.7199,-1.7199,-1.7323,-1.7564,-1.7652,-1.7855,-1.8282,-1.8282,-1.8361,-1.8517,-1.8517,-1.8517,-1.8517,-1.8717,-1.8963,-1.9238,-1.9406,-1.9558,-1.966,-1.9486,-1.9376,-1.9376,-1.9376,-1.9376,-1.9376,-1.9428,-1.9435,-1.9487,-1.9574,-1.9611,-1.964,-1.969,-1.9682,-1.9682,-1.9682,-1.9682,-1.9682,-1.9682,-2.0154,-2.0744,-2.0909,-2.1481,-2.2033,-2.2,-2.2071,-2.2148,-2.2086,-2.204,-2.204,-2.1933,-2.1932,-2.1801,-2.1285,-2.1129,-2.0778,-1.9663,-1.8618,-1.8028,-1.839,-1.7988,-1.7673,-1.7794,-1.7713,-1.7557,-1.724,-1.7199,-1.7199,-1.7199,-1.7199,-1.7199,-1.7199,-1.7199,-1.7199,-1.7199,-1.7199,-1.7199,-1.7199,-1.7199,-1.7199,-1.7199,-1.7199,-1.7199,-1.7199,-1.6752,-1.6447,-1.6269,-1.5788,-1.5633,-1.8892,-1.8521,-1.8246,-1.8152,-1.8462,-1.8786,-1.8636,-1.9198,-1.961,-1.9176,-1.8808,-1.844,-1.8014,-1.7707,-1.7434,-1.7157,-1.7358,-1.7475,-1.724,-1.7199,-1.7157,-1.6983,-1.6983,-1.6941,-1.6784,-1.6899,-1.7018,-1.7137,-1.7352,-1.7686,-1.8156,-1.8202,-1.8282,-1.8478,-1.8517,-1.8517,-1.8517,-1.8662,-1.8824,-1.8967,-1.9006,-1.9108,-1.9295,-1.9116,-1.9078,-1.9101,-1.9101,-1.9101,-1.9101,-1.9221,-1.9339,-1.9376,-1.9538,-1.9611,-1.9632,-1.9697,-1.9682,-1.9682,-1.9682,-1.9682,-1.9682,-1.9726,-1.9988,-2.0355,-2.073,-2.1107,-2.1462,-2.1584,-2.1873,-2.2179,-2.2286,-2.2393,-2.2566,-2.2654,-2.2566,-2.2311,-2.1801,-2.1562,-2.1115,-1.9964,-1.9057,-1.8526,-1.8751,-1.8317,-1.7906,-1.7794,-1.7632,-1.7475,-1.724,-1.7199,-1.7199,-1.7199,-1.7199,-1.7199,-1.7199,-1.7199,-1.7199,-1.7199,-1.7199,-1.7199,-1.7199,-1.7199,-1.7199,-1.7199,-1.7199,-1.7199,-1.7199,-1.6576,-1.6182,-1.587,-1.5248,-1.506,-1.8561,-1.8038,-1.7799,-1.774,-1.8162,-1.8563,-1.8607,-1.9053,-1.947,-1.9428,-1.8795,-1.8239,-1.8131,-1.7652,-1.7199,-1.7038,-1.7157,-1.724,-1.7199,-1.7157,-1.7031,-1.6716,-1.6674,-1.6552,-1.6219,-1.6515,-1.6716,-1.6691,-1.7173,-1.7645,-1.8069,-1.8123,-1.8242,-1.8478,-1.8517,-1.8517,-1.8517,-1.8517,-1.8545,-1.8687,-1.868,-1.8807,-1.8986,-1.8986,-1.9055,-1.9101,-1.9101,-1.9101,-1.9101,-1.9221,-1.9339,-1.942,-1.9538,-1.9632,-1.969,-1.969,-1.9682,-1.9682,-1.9682,-1.9682,-1.9726,-1.9762,-1.9805,-1.991,-2.0615,-2.0931,-2.1044,-2.1194,-2.1736,-2.2309,-2.2524,-2.2789,-2.3115,-2.3611,-2.3487,-2.3091,-2.2314,-2.183,-2.119,-2.0078,-1.9635,-1.9343,-1.8829,-1.8331,-1.7922,-1.776,-1.7441,-1.7199,-1.7199,-1.7199,-1.7199,-1.7199,-1.7199,-1.7199,-1.7199,-1.7199,-1.7199,-1.7199,-1.7199,-1.7199,-1.7199,-1.7199,-1.7199,-1.7199,-1.7199,-1.7199,-1.7199,-1.6566,-1.6023,-1.5494,-1.486,-1.4553,-1.7711,-1.6912,-1.6381,-1.681,-1.7344,-1.7937,-1.8556,-1.8457,-1.8491,-1.9462,-1.8236,-1.729,-1.8129,-1.7828,-1.7358,-1.7038,-1.7358,-1.7475,-1.708,-1.7038,-1.6905,-1.6558,-1.6515,-1.6447,-1.6213,-1.6515,-1.6686,-1.669,-1.7037,-1.7345,-1.7605,-1.7821,-1.8138,-1.8485,-1.8517,-1.8517,-1.8517,-1.8517,-1.8524,-1.8538,-1.8666,-1.8767,-1.8836,-1.8941,-1.9055,-1.9101,-1.9101,-1.9101,-1.9101,-1.9139,-1.9221,-1.9339,-1.942,-1.9494,-1.9603,-1.969,-1.9682,-1.9682,-1.9682,-1.9682,-1.9682,-1.9726,-1.9726,-1.9748,-1.994,-2.0479,-2.1151,-2.1827,-2.2532,-2.32,-2.381,-2.3999,-2.3949,-2.3508,-2.3356,-2.2959,-2.1748,-2.0703,-1.9812,-1.9114,-1.8669,-1.8172,-1.7609,-1.7433,-1.7358,-1.7288,-1.724,-1.7199,-1.7199,-1.7199,-1.7199,-1.7199,-1.7199,-1.7199,-1.7199,-1.7199,-1.7199,-1.7199,-1.7199,-1.7199,-1.7199,-1.7199,-1.7199,-1.7199,-1.7199,-1.7199,-1.7199,-1.6498,-1.6074,-1.5946,-1.5256,-1.5107,-1.7333,-1.6419,-1.589,-1.6486,-1.7109,-1.7589,-1.768,-1.7804,-1.7914,-1.7863,-1.6996,-1.6364,-1.6761,-1.6685,-1.6544,-1.6446,-1.6831,-1.7137,-1.696,-1.6754,-1.6534,-1.6281,-1.5997,-1.5811,-1.562,-1.6122,-1.6417,-1.6446,-1.6909,-1.7295,-1.7487,-1.7862,-1.8182,-1.8478,-1.8517,-1.8517,-1.8517,-1.8517,-1.8517,-1.8517,-1.8644,-1.8745,-1.8784,-1.8941,-1.9055,-1.9101,-1.9101,-1.9101,-1.9101,-1.9183,-1.9258,-1.9376,-1.9457,-1.956,-1.9669,-1.969,-1.9682,-1.9682,-1.9682,-1.9682,-1.9682,-1.9682,-1.9726,-1.9762,-1.9897,-2.0238,-2.0714,-2.1519,-2.2225,-2.2885,-2.3399,-2.3659,-2.3653,-2.312,-2.2852,-2.2508,-2.1713,-2.079,-2.0005,-1.9607,-1.8992,-1.8427,-1.8133,-1.7852,-1.7669,-1.7669,-1.7395,-1.7199,-1.7199,-1.7199,-1.7199,-1.7199,-1.7199,-1.7199,-1.7199,-1.7141,-1.7141,-1.7205,-1.7122,-1.7122,-1.7199,-1.7122,-1.7122,-1.7122,-1.7122,-1.7223,-1.7441,-1.6878,-1.6539,-1.6433,-1.5796,-1.5564,-1.7152,-1.6338,-1.5973,-1.6632,-1.7164,-1.7426,-1.7119,-1.7334,-1.7334,-1.6435,-1.5827,-1.5475,-1.5459,-1.5458,-1.5474,-1.5658,-1.5984,-1.6413,-1.6824,-1.6445,-1.6197,-1.6287,-1.5748,-1.5331,-1.5284,-1.5749,-1.6104,-1.617,-1.6831,-1.728,-1.7497,-1.7881,-1.8221,-1.8443,-1.8471,-1.8517,-1.8517,-1.8517,-1.8517,-1.8517,-1.8613,-1.8714,-1.8784,-1.8896,-1.901,-1.9101,-1.9101,-1.9101,-1.9101,-1.9221,-1.9302,-1.942,-1.9538,-1.9632,-1.9682,-1.9682,-1.9682,-1.9682,-1.9682,-1.9682,-1.9682,-1.9726,-1.9762,-1.9833,-2.001,-2.018,-2.0467,-2.1265,-2.1948,-2.25,-2.2929,-2.315,-2.3224,-2.2792,-2.2342,-2.1934,-2.1654,-2.1048,-2.0454,-2.01,-1.9516,-1.9054,-1.8924,-1.8551,-1.827,-1.827,-1.7767,-1.7404,-1.738,-1.7273,-1.7199,-1.7199,-1.7164,-1.717,-1.717,-1.707,-1.7035,-1.7112,-1.7057,-1.7015,-1.7128,-1.7038,-1.696,-1.696,-1.7076,-1.7266,-1.7524,-1.7236,-1.6932,-1.66,-1.6172,-1.5914,-1.7111,-1.6614,-1.6647,-1.7264,-1.7445,-1.7562,-1.7741,-1.7199,-1.6585,-1.6501,-1.5347,-1.4556,-1.5281,-1.4868,-1.4546,-1.4918,-1.4899,-1.5271,-1.6609,-1.6164,-1.604,-1.7141,-1.6199,-1.5585,-1.5794,-1.5737,-1.5822,-1.6164,-1.6834,-1.728,-1.7497,-1.778,-1.8039,-1.8214,-1.839,-1.8517,-1.8517,-1.8517,-1.8517,-1.8517,-1.851,-1.862,-1.8784,-1.8822,-1.8905,-1.9101,-1.9101,-1.9101,-1.9101,-1.9101,-1.9221,-1.942,-1.942,-1.9516,-1.9682,-1.9682,-1.9682,-1.9682,-1.9682,-1.9682,-1.9726,-1.9762,-1.9762,-1.9762,-1.9955,-2.0415,-2.1119,-2.1971,-2.2484,-2.2903,-2.3525,-2.3486,-2.3224,-2.2792,-2.2015,-2.1303,-2.1024,-2.0714,-2.0286,-1.9526,-1.9582,-1.9545,-1.8996,-1.8865,-1.8832,-1.8832,-1.8362,-1.8041,-1.8033,-1.7516,-1.7199,-1.7199,-1.7106,-1.6999,-1.6999,-1.6937,-1.692,-1.6918,-1.6916,-1.692,-1.692,-1.6944,-1.6924,-1.6924,-1.7382,-1.7377,-1.6886,-1.7187,-1.6877,-1.6002,-1.6226,-1.6104,-1.7534,-1.6828,-1.6389,-1.7028,-1.7178,-1.7004,-1.6574,-1.6184,-1.5617,-1.4699,-1.382,-1.333,-1.3649,-1.3441,-1.3395,-1.4031,-1.4232,-1.471,-1.5628,-1.5307,-1.5332,-1.638,-1.577,-1.5411,-1.5861,-1.6025,-1.6102,-1.6181,-1.6634,-1.6927,-1.7008,-1.7442,-1.7767,-1.8007,-1.8214,-1.8309,-1.8309,-1.845,-1.8517,-1.8517,-1.8595,-1.8697,-1.8784,-1.8882,-1.9003,-1.9101,-1.9101,-1.9101,-1.9101,-1.9101,-1.9183,-1.9339,-1.9376,-1.9494,-1.9632,-1.9697,-1.9682,-1.9682,-1.9682,-1.9959,-2.0311,-2.034,-2.0633,-2.0918,-2.0733,-2.0837,-2.1316,-2.2547,-2.3007,-2.3158,-2.3453,-2.3083,-2.2586,-2.2449,-2.2126,-2.1773,-2.1488,-2.1079,-2.0625,-1.9967,-1.9641,-1.9502,-1.9427,-1.9146,-1.9028,-1.9394,-1.895,-1.8582,-1.8595,-1.8375,-1.8227,-1.8228,-1.7499,-1.7022,-1.7022,-1.6846,-1.6816,-1.6891,-1.6835,-1.6823,-1.6901,-1.6803,-1.6761,-1.6761,-1.7289,-1.7397,-1.7098,-1.7691,-1.7526,-1.6693,-1.6822,-1.6583,-1.7666,-1.7032,-1.6464,-1.6862,-1.6858,-1.648,-1.5548,-1.5258,-1.4758,-1.3197,-1.2687,-1.2448,-1.2388,-1.2383,-1.2603,0.0,-1.3597,-1.4149,-1.5131,-1.4815,-1.4923,-1.6128,-1.5574,-1.5289,-1.5856,-1.605,-1.6074,-1.5911,-1.632,-1.6571,-1.6571,-1.6983,-1.7421,-1.7785,-1.8007,-1.814,-1.8207,-1.8358,-1.8446,-1.8517,-1.8595,-1.8704,-1.876,-1.8896,-1.8972,-1.9078,-1.9108,-1.9101,-1.9101,-1.9101,-1.9183,-1.9317,-1.9545,-1.9738,-1.9886,-1.9916,-2.0072,-2.0251,-2.0056,-2.043,-2.1006,-2.1037,-2.1407,-2.1848,-2.1713,-2.1713,-2.1949,-2.2993,-2.332,-2.3243,-2.301,-2.2593,-2.2184,-2.2184,-2.2184,-2.213,-2.1848,-2.1482,-2.11,-2.0522,-2.0094,-1.986,-2.0037,-1.9701,-1.9564,-1.9995,-1.9551,-1.9166,-1.9166,-1.9033,-1.8904,-1.8887,-1.8074,-1.7441,-1.7224,-1.685,-1.6669,-1.6791,-1.6712,-1.6669,-1.6791,-1.6712,-1.6626,-1.6626,-1.7049,-1.7088,-1.6847,-1.7464,-1.7328,-1.6585,-1.681,-1.6735,-1.727,-1.7215,-1.7151,-1.6939,-1.6612,-1.6069,-1.5137,-1.4683,-1.4063,-1.2432,-1.2165,-1.212,-1.185,-1.2013,-1.2305,-1.2561,-1.2792,-1.3547,-1.5334,-1.4904,-1.509,-1.6866,-1.59,-1.5313,-1.5834,-1.5717,-1.5462,-1.5159,-1.58,-1.6215,-1.6216,-1.6533,-1.6963,-1.749,-1.7741,-1.7997,-1.8214,-1.8221,-1.8309,-1.8517,-1.8517,-1.8556,-1.8711,-1.876,-1.8882,-1.8986,-1.9078,-1.9101,-1.9101,-1.9101,-1.9183,-1.9361,-1.996,-2.031,-2.0488,-2.0479,-2.0995,-2.1582,-2.0932,-2.1134,-2.168,-2.1776,-2.1893,-2.2147,-2.2865,-2.3119,-2.3197,-2.3262,-2.3319,-2.3127,-2.241,-2.2231,-2.2184,-2.2184,-2.2184,-2.213,-2.1848,-2.18,-2.165,-2.1082,-2.0977,-2.0927,-2.0742,-2.0692,-2.0686,-2.0699,-2.0165,-1.9793,-1.9793,-1.927,-1.8904,-1.8911,-1.8838,-1.848,-1.7753,-1.6966,-1.6515,-1.6515,-1.6515,-1.6515,-1.6515,-1.6515,-1.6515,-1.6515,-1.6589,-1.6344,-1.5837,-1.6297,-1.6015,-1.5033,-1.6005,-1.6384,-1.6042,-1.6041,-1.5965,-1.5301,-1.518,-1.4917,-1.3794,-1.3718,-1.3556,-1.2342,-1.1912,-1.1693,-1.1602,-1.1689,-1.1916,-1.232,-1.267,0.0,-1.4095,-1.4502,-1.5068,-1.6142,-1.6285,-1.6358,-1.6394,-1.5841,-1.5382,-1.5114,-1.5531,-1.5774,-1.578,-1.6709,-1.7243,-1.7293,-1.7894,-1.8176,-1.8013,-1.8508,-1.8666,-1.8517,-1.8517,-1.8556,-1.8718,-1.8704,-1.8827,-1.8993,-1.9024,-1.904,-1.9101,-1.9101,-1.9415,-1.9839,-1.9705,-2.0268,-2.1092,-2.0757,-2.1095,-2.1665,-2.1463,-2.1814,-2.2401,-2.246,-2.2884,-2.3439,-2.3735,-2.3598,-2.3322,-2.3561,-2.3265,-2.2844,-2.2618,-2.2349,-2.2184,-2.2184,-2.2184,-2.2177,-2.2084,-2.2084,-2.1895,-2.1375,-2.1277,-2.1131,-2.0749,-2.0705,-2.0705,-2.0705,-2.0555,-2.0437,-2.0437,-2.0175,-2.0009,-2.0009,-1.9423,-1.8878,-1.8368,-1.8001,-1.7756,-1.767,-1.767,-1.767,-1.767,-1.7313,-1.7112,-1.7112,-1.6785,-1.6468,-1.6227,-1.64,-1.6299,-1.5944,-1.6239,-1.6379,-1.4934,-1.5057,-1.4934,-1.4319,-1.4099,-1.382,-1.2892,-1.2752,-1.2619,-1.1797,-1.1575,-1.155,-1.1546,-1.1855,-1.2203,-1.2498,-1.2775,-1.3165,-1.382,-1.4371,-1.5034,-1.6041,-1.6449,-1.6612,-1.6589,-1.6051,-1.563,-1.5429,-1.5745,-1.598,-1.588,-1.685,-1.7464,-1.7591,-1.8254,-1.8532,-1.8426,-1.8958,-1.9035,-1.8681,-1.8775,-1.8742,-1.8634,-1.868,-1.8788,-1.8941,-1.8986,-1.9055,0.0,-1.9101,-1.95,-2.0088,-2.0094,-2.0759,-2.1732,-2.1478,-2.1819,-2.2375,-2.2151,-2.2488,-2.3061,-2.3145,-2.3591,-2.4082,-2.42,-2.3902,-2.3518,-2.3591,-2.3157,-2.2656,-2.2526,-2.2356,-2.2184,-2.2184,-2.2184,-2.2184,-2.2184,-2.213,-2.1942,-2.1465,-2.1326,-2.1131,-2.0755,-2.0705,-2.0705,-2.0705,-2.0705,-2.0705,-2.0705,-2.0562,-2.0518,-2.0518,-1.9938,-1.9438,-1.9156,-1.8627,-1.8292,-1.8204,-1.8204,-1.8204,-1.8204,-1.7877,-1.7591,-1.7387,-1.6835,-1.6456,-1.6126,-1.6173,-1.6295,-1.6379,-1.6379,-1.6379,0.0,-1.4175,-1.4024,-1.3873,-1.3365,-1.28,-1.2302,-1.1899,0.0,-1.0994,-1.1253,-1.1561,-1.1547,-1.2291,-1.2844,-1.2836,-1.2929,-1.3321,-1.419,-1.4486,-1.5082,-1.6401,-1.635,-1.6303,-1.6501,-1.6288,-1.6067,-1.5865,-1.6226,-1.6375,-1.625,-1.6782,-1.74,-1.8075,-1.8592,-1.9016,-1.9304,-1.9517,-1.9455,-1.9072,-1.9356,-1.9137,-1.8581,-1.8747,-1.8821,-1.8798,-1.9035,-1.9118,-1.9166,-1.9217,-1.9631,-2.0284,-2.0918,-2.1645,-2.2369,-2.2414,-2.2927,-2.352,-2.2944,-2.3116,-2.3602,-2.3789,-2.3975,-2.4208,-2.4268,-2.4044,-2.3703,-2.34,-2.2986,-2.2565,-2.2263,-2.2184,-2.2184,-2.2184,-2.2184,-2.2184,-2.2184,-2.199,-2.1752,-2.1465,-2.118,-2.0941,-2.0755,-2.0705,-2.0705,-2.0705,-2.0705,-2.0705,-2.0705,-2.0562,-2.0461,-2.0461,-2.029,-2.0131,-1.999,-1.8956,-1.8317,-1.8317,-1.8279,-1.8279,-1.8317,-1.8194,-1.7912,-1.7381,-1.6834,-1.6289,-1.5704,-1.572,-1.596,-1.6379,-1.6379,-1.6379,-1.1898,0.0,-1.2692,-1.2396,-1.2238,-1.1987,0.0,-1.141,-1.1475,-1.0994,-1.0988,-1.1079,-1.1125,-1.1827,-1.2371,-1.2087,-1.2589,-1.3174,-1.3573,-1.4557,-1.5545,-1.626,-1.6293,-1.6098,-1.5785,-1.5671,-1.5491,-1.5314,-1.508,-1.4913,-1.4873,-1.5641,-1.6128,-1.6308,-1.7834,-1.8891,-1.9322,-1.9977,-2.0109,-1.9777,-2.0026,-1.9838,-1.9193,-1.9767,-1.9546,-1.88,-1.9841,-2.0098,-1.9738,-2.0309,-2.0952,-2.1509,-2.0819,-2.1609,-2.2972,-2.2163,-2.263,-2.358,-2.3438,-2.3475,-2.3645,-2.3882,-2.4109,-2.4227,-2.4009,-2.366,-2.34,-2.3312,-2.2814,-2.231,-2.2231,-2.2184,-2.2184,-2.2184,-2.2184,-2.2184,-2.2184,-2.213,-2.199,-2.1465,-2.1375,-2.118,-2.0749,-2.0705,-2.0705,-2.0705,-2.0705,-2.0705,-2.0705,-2.0448,-2.029,-2.029,-2.0016,-1.9856,-1.9856,-1.9693,-1.9548,-1.9428,-1.9051,-1.9014,-1.9409,-1.8216,-1.7623,-1.7921,-1.6967,-1.6202,-1.5687,-1.6041,-1.627,-1.6379,-1.6379,-1.6379,-1.0813,-1.1501,-1.2056,-1.1986,-1.197,-1.1806,-1.1317,-1.1253,-1.1204,-1.094,-1.094,-1.1125,-1.1514,-1.2017,-1.236,-1.2355,-1.271,-1.3115,-1.3471,-1.4255,-1.5076,-1.578,-1.5687,-1.5631,-1.5702,-1.5619,-1.5424,-1.4937,-1.5034,-1.4867,-1.4413,-1.5054,-1.5602,-1.6059,-1.7086,-1.8174,-1.9269,-1.9806,-2.0134,-2.0233,-2.0237,-2.0075,-1.9887,-2.0238,-2.0063,-1.9558,-2.0363,-2.0532,-2.034,-2.0809,-2.1394,-2.1974,-2.1435,-2.2061,-2.3231,-2.2721,-2.2969,-2.3602,-2.3602,-2.3645,-2.3739,-2.3932,-2.3975,-2.3959,-2.3832,-2.3436,-2.3031,-2.3031,-2.2632,-2.2184,-2.2184,-2.2184,-2.2184,-2.2184,-2.2184,-2.213,-2.1895,-2.1848,-2.165,-2.116,-2.1075,-2.099,-2.0755,-2.0705,-2.0705,-2.0705,-2.0705,-2.0655,-2.0612,-2.0391,-2.0182,-2.0137,-1.9914,-1.9805,-1.9805,-1.9869,-1.9869,-1.9805,-1.9292,-1.9107,-1.9436,-1.8307,-1.7658,-1.7668,-1.6847,-1.6274,-1.6006,-1.626,-1.6379,-1.6379,-1.6379,-1.6264,-1.0443,-1.1246,-1.1892,-1.2047,-1.2032,-1.1894,-1.1588,0.0,0.0,0.0,-1.0994,-1.1293,-1.2077,-1.2353,-1.257,-1.281,-1.29,-1.3094,-1.3526,-1.3826,-1.4307,-1.5035,-1.4965,-1.5026,-1.5551,-1.5636,-1.5356,-1.4658,-1.5182,-1.5114,-1.4207,-1.4502,-1.5093,-1.5915,-1.6164,-1.7095,-1.875,-1.9211,-1.9824,-2.0428,-2.0251,-2.0295,-2.054,-2.0632,-2.0605,-2.0493,-2.0855,-2.0955,-2.0931,-2.1207,-2.1627,-2.2127,-2.2162,-2.2636,-2.3304,-2.3354,-2.3441,-2.3602,-2.3602,-2.3653,-2.3703,-2.3847,-2.3703,-2.3508,-2.3559,-2.315,-2.2701,-2.2656,-2.2395,-2.2184,-2.2184,-2.2184,-2.2184,-2.2184,-2.2184,-2.2037,-2.1513,-2.1416,-2.1264,-2.0709,-2.0686,-2.0755,-2.0705,-2.0705,-2.0705,-2.0705,-2.0655,-2.0612,-2.0511,-2.0296,-2.0131,-1.999,-1.9817,-1.9701,-1.9805,-1.9637,-1.9592,-1.965,-1.9159,-1.8761,-1.8596,-1.8167,-1.7705,-1.7101,-1.6637,-1.6379,-1.6379,-1.6379,-1.6379,-1.6379,-1.6322,-1.6087,-1.086,-1.16,-1.1983,-1.1699,-1.1788,-1.1836,-1.1172,-1.094,0.0,0.0,-1.094,-1.118,-1.1705,-1.2111,-1.2334,-1.2106,-1.2493,-1.2984,-1.3347,-1.3931,-1.4312,-1.4217,-1.436,-1.4413,-1.4281,-1.465,-1.4645,-1.416,-1.3839,-1.3525,-1.3133,-1.3055,-1.3128,-1.3442,-1.4644,-1.5605,-1.6251,-1.8039,-1.9323,-2.008,-2.0591,-2.098,-2.1196,-2.1671,-2.1348,-2.0492,-2.1737,-2.1969,-2.1519,-2.2285,-2.2656,-2.2744,-2.2265,-2.2614,-2.3253,-2.2799,-2.3061,-2.3602,-2.3602,-2.3428,-2.3209,-2.3216,-2.312,-2.2934,-2.2649,-2.2603,-2.2656,-2.2356,-2.2224,-2.2184,-2.2184,-2.2184,-2.2184,-2.2184,-2.2184,-2.2037,-2.1513,-2.1561,-2.1506,-2.0759,-2.0779,-2.0898,-2.0755,-2.0705,-2.0705,-2.0705,-2.0612,-2.0511,-2.0518,-2.0252,-2.0042,-1.999,-1.946,-1.9297,-1.9747,-1.8898,-1.859,-1.9087,-1.8554,-1.7826,-1.6848,-1.7164,-1.7107,-1.6534,-1.6431,-1.6379,-1.6379,-1.6379,-1.6379,-1.6379,-1.5967,-1.5793,-1.0253,-1.1081,-1.1637,-1.1471,-1.2209,-1.273,-1.2119,-1.1806,-1.1583,-1.1371,-1.1204,-1.1295,-1.194,-1.1948,-1.1939,-1.2434,-1.2594,-1.2793,-1.3112,-1.3271,-1.3377,-1.3467,-1.3705,-1.3905,-1.3968,-1.4098,-1.3961,-1.3426,-1.2982,-1.258,-1.216,-1.217,-1.2338,-1.2747,-1.3752,-1.4511,-1.497,-1.6374,-1.7768,-1.9089,-1.94,-1.9993,-2.0836,-2.1454,-2.1573,-2.139,-2.2182,-2.2352,-2.2162,-2.2651,-2.2872,-2.2866,-2.2651,-2.2842,-2.3282,-2.3152,-2.3133,-2.3201,-2.3201,-2.292,-2.2603,-2.2792,-2.2709,-2.2533,-2.2512,-2.248,-2.2395,-2.2224,-2.2184,-2.2184,-2.2184,-2.2184,-2.2184,-2.2184,-2.199,-2.1602,-2.1062,-2.0901,-2.0646,-1.9991,-2.0156,-2.0416,-2.0321,-2.0542,-2.0705,-2.0705,-2.0612,-2.0353,-1.9965,-1.9708,-1.9402,-1.9016,-1.8697,-1.859,-1.8839,-1.8411,-1.8093,-1.8038,-1.7761,-1.7265,-1.6438,-1.6634,-1.6637,-1.6379,-1.6379,-1.6379,-1.6379,-1.6379,-1.6259,-1.6029,-1.5793,-1.5381,-0.9719,-1.0473,-1.1135,-1.13,-1.2325,-1.315,-1.2842,-1.237,-1.1969,-1.1857,-1.1563,-1.1547,-1.2261,-1.1937,-1.1916,-1.2977,-1.2861,-1.2754,-1.3074,-1.2895,-1.2852,-1.3117,-1.3314,-1.3568,-1.3868,-1.371,-1.3412,-1.2886,-1.2459,-1.2014,-1.1543,-1.1664,-1.1959,-1.2401,-1.3083,-1.3673,-1.4201,-1.4952,-1.62,-1.7947,-1.806,-1.887,-2.0192,-2.072,-2.1171,-2.1625,-2.2002,-2.2112,-2.2059,-2.2427,-2.2675,-2.2752,-2.2752,-2.2831,-2.293,-2.3135,-2.2914,-2.2545,-2.2651,-2.2374,-2.2002,-2.2374,-2.2256,-2.2077,-2.2342,-2.2303,-2.2177,-2.213,-2.213,-2.2184,-2.2184,-2.2184,-2.2177,-2.1983,-2.1698,-2.1215,-2.0459,-2.0144,-1.9843,-1.9285,-1.9546,-1.985,-1.985,-2.0226,-2.0542,-2.0542,-2.0391,-2.0029,-1.9482,-1.9115,-1.8744,-1.8153,-1.7978,-1.782,-1.7722,-1.782,-1.7655,-1.7051,-1.6989,-1.6848,-1.6436,-1.6379,-1.6379,-1.6379,-1.6379,-1.6379,-1.6379,-1.6316,-1.6029,-1.5672,-1.5439,-1.4966,-0.9849,-1.0217,-1.0523,-1.1138,-1.161,-1.2029,-1.2284,-1.1734,-1.1374,-1.21,-1.2004,-1.1889,-1.231,-1.2407,-1.2647,-1.3425,-1.3218,-1.3117,-1.3515,-1.352,-1.352,-1.3563,-1.3563,-1.3615,-1.3621,-1.3442,-1.3149,-1.268,-1.2256,-1.1858,-1.1506,-1.151,-1.1601,-1.1867,-1.2569,-1.3162,-1.3644,-1.4221,-1.5325,-1.7024,-1.7428,-1.8342,-1.9577,-1.9744,-1.983,-1.9942,-2.1065,-2.1115,-2.0462,-2.1605,-2.213,-2.2231,-2.2231,-2.2062,-2.185,-2.197,-2.1763,-2.1497,-2.1978,-2.1867,-2.1513,-2.1746,-2.1657,-2.1465,-2.1465,-2.1841,-2.213,-2.1895,-2.199,-2.2184,-2.2184,-2.2184,-2.203,-2.1431,-2.1354,-2.1062,-1.9779,-1.9786,-1.9792,-1.9139,-1.9257,-1.9414,-1.9414,-1.9759,-2.0042,-2.0042,-1.9734,-1.9482,-1.943,-1.8679,-1.8153,-1.8098,-1.7589,-1.7051,-1.654,-1.7005,-1.7056,-1.6483,-1.6488,-1.6431,-1.6379,-1.6379,-1.6379,-1.6379,-1.6379,-1.6379,-1.6379,-1.5967,-1.5735,-1.5677,-1.4725,-1.4249,-0.9386,-1.0073,-1.0666,-1.0666,-1.1273,-1.196,-1.2354,-1.2018,-1.174,-1.2314,-1.21,-1.1835,-1.1712,-1.2167,-1.2573,-1.2856,-1.2982,-1.3165,-1.3515,-1.3615,-1.3615,-1.3615,-1.3768,-1.3868,-1.3868,-1.3538,-1.3233,-1.3057,-1.2526,-1.2004,-1.1564,-1.2063,-1.2073,-1.1453,-1.2969,-1.3557,-1.2986,-1.4227,-1.5006,-1.5342,-1.6178,-1.7093,-1.8023,-1.8393,-1.8826,-1.9308,-2.0079,-2.0274,-2.012,-2.1001,-2.1437,-2.1547,-2.1358,-2.1442,-2.1599,-2.1478,-2.1329,-2.126,-2.1554,-2.1124,-2.0512,-2.1294,-2.1268,-2.0982,-2.15,-2.1602,-2.1534,-2.1244,-2.114,-2.1272,-2.203,-2.1881,-2.1527,-2.1279,-2.069,-2.0042,-1.9527,-1.918,-1.8928,-1.8685,-1.8845,-1.9005,-1.9005,-1.9356,-1.961,-1.961,-1.9267,-1.8833,-1.853,-1.7924,-1.7435,-1.7078,-1.6853,-1.6643,-1.6431,-1.6591,-1.6643,-1.6436,-1.6379,-1.6379,-1.6379,-1.6379,-1.6379,-1.6379,-1.6379,-1.6379,-1.6379,-1.5914,-1.5413,-1.4859,-1.4427,-1.3941,-0.9175,-0.9894,-1.0501,-1.0498,-1.0994,-1.1616,-1.2277,-1.2041,-1.1837,-1.2374,-1.2159,-1.1821,-1.1541,-1.1927,-1.2328,-1.248,-1.2788,-1.3112,-1.3362,-1.3515,-1.3615,-1.3615,-1.3768,-1.3868,-1.3868,-1.3447,-1.3163,-1.3163,-1.2649,-1.2167,-1.1845,-1.2466,-1.2431,-1.168,-1.3134,-1.3586,-1.2936,-1.414,-1.4653,-1.4488,-1.5298,-1.6082,-1.6814,-1.7213,-1.7701,-1.8254,-1.897,-1.9165,-1.9057,-1.9921,-2.0351,-2.0495,-2.0226,-2.0344,-2.0554,-2.0389,-2.0266,-2.0193,-2.0502,-2.0119,-1.9631,-2.0448,-2.0535,-2.0363,-2.0724,-2.0739,-2.0576,-2.0151,-1.9944,-2.0122,-2.105,-2.113,-2.0874,-2.0677,-1.9978,-1.9319,-1.9069,-1.8667,-1.8367,-1.8307,-1.847,-1.8583,-1.8583,-1.8952,-1.9158,-1.9093,-1.8691,-1.8309,-1.7782,-1.7279,-1.6791,-1.6436,-1.6379,-1.6379,-1.6379,-1.6379,-1.6379,-1.6379,-1.6379,-1.6379,-1.6379,-1.6379,-1.6379,-1.6379,-1.6379,-1.6322,-1.6207,-1.5672,-1.5032,-1.4166,-1.4051,-1.3624,-0.9442,-0.9545,-0.9903,-1.0704,-1.071,-1.0825,-1.2043,-1.1792,-1.1518,-1.231,-1.2159,-1.1872,-1.1891,-1.1873,-1.2026,-1.2431,-1.2793,-1.2967,-1.3016,-1.3314,-1.3615,-1.3615,-1.3615,-1.3615,-1.3615,-1.3201,-1.2932,-1.2932,-1.2523,-1.2318,-1.2313,-1.2483,-1.2611,-1.26,-1.2816,-1.3129,-1.3608,-1.3883,-1.4255,-1.4697,-1.4971,-1.5445,-1.6114,-1.6219,-1.6367,-1.6547,-1.762,-1.76,-1.6873,-1.808,-1.8727,-1.8989,-1.8989,-1.8724,-1.8339,-1.8506,-1.8312,-1.8014,-1.8669,-1.8904,-1.895,-1.9197,-1.9409,-1.951,-1.895,-1.9125,-1.9338,-1.8516,-1.8509,-1.8851,-1.9285,-1.9894,-2.0219,-1.9573,-1.9365,-1.9162,-1.8296,-1.8259,-1.8367,-1.8139,-1.809,-1.809,-1.809,-1.847,-1.8685,-1.8333,-1.8067,-1.7788,-1.744,-1.6802,-1.6379,-1.6379,-1.6379,-1.6379,-1.6379,-1.6379,-1.6379,-1.6379,-1.6379,-1.6379,-1.6379,-1.6379,-1.6379,-1.6379,-1.6379,-1.6144,-1.5677,-1.5132,-1.4501,-1.3711,-1.3573,-1.3318,-0.9905,-1.0259,-1.0551,-1.036,-1.0943,-1.1508,-1.1344,-1.1011,-1.0793,-1.1002,-1.1268,-1.1504,-1.1477,-1.1473,-1.1628,-1.2022,-1.2166,-1.2398,-1.2919,-1.3112,-1.3266,-1.3568,-1.3615,-1.3615,-1.3615,-1.3491,-1.3408,-1.3408,-1.3289,-1.3072,-1.2746,-1.3273,-1.3207,-1.2409,-1.3421,-1.3602,-1.2899,-1.3827,-1.4249,-1.4227,-1.4626,-1.5062,-1.5552,-1.568,-1.5824,-1.5999,-1.6702,-1.6889,-1.6707,-1.7671,-1.8185,-1.8389,-1.8034,-1.8067,-1.8324,-1.8015,-1.8164,-1.8507,-1.874,-1.863,-1.8446,-1.9078,-1.8899,-1.8431,-1.8734,-1.8509,-1.8063,-1.7684,-1.7478,-1.74,-1.7562,-1.8007,-1.8558,-1.9141,-1.8628,-1.8002,-1.8058,-1.8144,-1.8199,-1.8084,-1.809,-1.809,-1.809,-1.8199,-1.8199,-1.792,-1.7634,-1.7251,-1.6756,-1.654,-1.6379,-1.6379,-1.6379,-1.6379,-1.6379,-1.6379,-1.6379,-1.6379,-1.6379,-1.6379,-1.6379,-1.6379,-1.6379,-1.6379,-1.6087,-1.5851,-1.5677,-1.4843,-1.4009,-1.3286,-1.3443,-1.3031,-1.0431,-1.0628,-1.094,-1.0939,-1.1339,-1.1615,-1.1138,-1.0916,-1.0788,-1.0767,-1.1065,-1.1322,-1.1322,-1.1322,-1.1372,-1.1623,-1.1773,-1.2116,-1.2745,-1.2929,-1.3165,-1.3563,-1.3615,-1.3615,-1.3615,-1.3615,-1.3615,-1.3615,-1.3615,-1.3496,-1.3166,-1.3611,-1.3517,-1.2818,-1.3655,-1.3722,-1.2981,-1.3809,-1.419,-1.4166,-1.4512,-1.4886,-1.521,-1.5424,-1.5564,-1.5733,-1.6089,-1.6357,-1.6478,-1.6938,-1.7309,-1.7501,-1.7168,-1.7282,-1.7624,-1.7378,-1.76,-1.8016,-1.8118,-1.7985,-1.7793,-1.817,-1.7939,-1.7525,-1.7523,-1.7254,-1.6884,-1.6545,-1.6308,-1.6253,-1.6419,-1.6553,-1.7021,-1.8245,-1.8119,-1.7766,-1.8021,-1.809,-1.809,-1.809,-1.809,-1.809,-1.809,-1.8035,-1.7816,-1.754,-1.7145,-1.6761,-1.6436,-1.6379,-1.6379,-1.6379,-1.6379,-1.6379,-1.6379,-1.6311,-1.6311,-1.6379,-1.6311,-1.6254,-1.6149,-1.6322,-1.6322,-1.6149,-1.5851,-1.5493,-1.5083,-1.4488,-1.3799,-1.3079,-1.3346,-1.3074,-1.093,-1.0853,-1.1085,-1.1871,-1.1688,-1.1291,-1.1259,-1.1296,-1.1322,-1.1221,-1.1272,-1.1322,-1.1322,-1.1322,-1.1322,-1.1322,-1.1628,-1.1977,-1.2426,-1.2745,-1.3117,-1.3568,-1.3615,-1.3615,-1.3615,-1.3615,-1.3615,-1.3568,-1.3568,-1.3568,-1.3568,-1.3563,-1.3563,-1.3615,-1.3568,-1.3568,-1.3615,-1.3821,-1.4109,-1.4384,-1.4564,-1.4794,-1.5062,-1.5328,-1.5564,-1.5715,-1.5754,-1.5931,-1.6194,-1.6194,-1.6318,-1.6479,-1.6515,-1.6522,-1.6522,-1.6742,-1.6833,-1.6918,-1.7031,-1.7109,-1.7067,-1.6801,-1.6788,-1.6697,-1.5844,-1.5768,-1.5812,-1.5238,-1.521,-1.5377,-1.5711,-1.5614,-1.569,-1.7085,-1.7692,-1.7964,-1.801,-1.8056,-1.809,-1.809,-1.809,-1.809,-1.809,-1.7877,-1.7595,-1.719,-1.6705,-1.6379,-1.6379,-1.6379,-1.6379,-1.6379,-1.6379,-1.6379,-1.6379,-1.6244,-1.6181,-1.6374,-1.6181,-1.5946,-1.5672,-1.6082,-1.6087,-1.5614,-1.5556,-1.5083,-1.4189,-1.413,-1.3751,-1.2988,-1.3344,-1.3301,-1.1547,-1.1175,-1.094,-1.1119,-1.126,-1.1381,-1.1657,-1.1619,-1.1272,-1.0706,-1.0968,-1.1322,-1.1322,-1.1322,-1.1322,-1.1322,-1.1372,-1.1673,-1.2377,-1.2569,-1.2852,-1.352,-1.3615,-1.3615,-1.3615,-1.3615,-1.3568,-1.3462,-1.3415,-1.3415,-1.3415,-1.3314,-1.3367,-1.3615,-1.3415,-1.3367,-1.3615,-1.3563,-1.3716,-1.4109,-1.4337,-1.4564,-1.4794,-1.5165,-1.5486,-1.5715,-1.5754,-1.5875,-1.6044,-1.615,-1.6275,-1.6436,-1.6479,-1.6571,-1.6626,-1.6201,-1.6423,-1.6833,-1.6478,-1.6484,-1.6644,-1.668,-1.6324,-1.5838,-1.5674,-1.5463,-1.5289,-1.5153,-1.5108,-1.5137,-1.5251,-1.551,-1.5867,-1.6201,-1.6595,-1.706,-1.7456,-1.7857,-1.809,-1.809,-1.809,-1.809,-1.809,-1.7877,-1.7484,-1.6976,-1.6596,-1.6379,-1.6379,-1.6379,-1.6379,-1.6379,-1.6379,-1.6379,-1.6379,-1.6374,-1.6311,-1.6181,-1.5956,-1.5667,-1.5473,-1.5473,-1.5362,-1.5074,-1.4469,-1.4176,-1.4189,-1.3821,-1.345,-1.2988,-1.3344,-1.3155,-1.1421,-1.0992,-1.0694,-1.085,-1.1148,-1.1399,-1.149,-1.1573,-1.1423,-1.071,-1.0968,-1.1322,-1.1322,-1.1322,-1.1322,-1.1322,-1.1322,-1.1523,-1.213,-1.2224,-1.251,-1.3223,-1.3314,-1.3367,-1.3568,-1.3615,-1.3515,-1.3415,-1.3415,-1.3362,-1.3319,-1.3266,-1.3266,-1.3415,-1.3261,-1.3314,-1.3515,-1.3415,-1.3615,-1.402,-1.415,-1.4378,-1.4708,-1.5165,-1.5531,-1.5715,-1.5754,-1.5875,-1.5994,-1.6094,-1.6225,-1.6399,-1.6436,-1.6386,-1.6256,-1.5982,-1.5982,-1.6107,-1.5864,-1.5958,-1.6151,-1.6058,-1.5844,-1.5591,-1.5412,-1.5238,-1.5108,-1.5108,-1.4926,-1.4743,-1.4743,-1.4799,-1.4803,-1.4803,-1.5738,-1.6698,-1.6962,-1.7415,-1.7771,-1.7771,-1.7636,-1.7628,-1.7871,-1.754,-1.7094,-1.6653,-1.6488,-1.6379,-1.6379,-1.6379,-1.6379,-1.6379,-1.6379,-1.6374,-1.6249,-1.5884,-1.5637,-1.5512,-1.5045,-1.4633,-1.4396,-1.4149,-1.4218,-1.4538,-1.4181,-1.3821,-1.3649,-1.3515,-1.3263,-1.2747,-1.3284,-1.3207,-1.1089,-1.0771,-1.0561,-1.0843,-1.1219,-1.1447,-1.119,-1.1372,-1.1423,-1.0871,-1.107,-1.1322,-1.1322,-1.1322,-1.1322,-1.1322,-1.1322,-1.1423,-1.1823,-1.1877,-1.2161,-1.2919,-1.3016,-1.3165,-1.3568,-1.3615,-1.3515,-1.3367,-1.3367,-1.3319,-1.3175,-1.3175,-1.3175,-1.3213,-1.317,-1.3223,-1.3367,-1.3367,-1.3515,-1.3921,-1.3921,-1.4197,-1.4702,-1.5153,-1.543,-1.5665,-1.5748,-1.5875,-1.5951,-1.5994,-1.6082,-1.6213,-1.6262,-1.6026,-1.5656,-1.5718,-1.554,-1.5266,-1.5248,-1.5427,-1.5561,-1.5305,-1.5316,-1.5412,-1.5108,-1.5062,-1.5108,-1.5108,-1.4743,-1.4378,-1.4378,-1.3999,-1.3615,-1.3615,-1.4877,-1.6135,-1.6314,-1.6848,-1.7242,-1.7162,-1.6944,-1.6853,-1.7234,-1.6915,-1.6472,-1.6322,-1.6264,-1.6322,-1.6379,-1.6379,-1.6379,-1.6379,-1.6259,-1.6134,-1.5936,-1.5216,-1.4732,-1.4728,-1.4012,-1.3545,-1.3264,-1.2956,-1.3082,-1.3881,-1.3885,-1.3554,-1.289,-1.3247,-1.3143,-1.2626,-1.322,-1.3348,-1.1174,-1.1108,-1.0928,-1.0913,-1.1219,-1.1447,-1.129,-1.1221,-1.1171,-1.1074,-1.1171,-1.1322,-1.1322,-1.1322,-1.1322,-1.1322,-1.1322,-1.1423,-1.1823,-1.1877,-1.2161,-1.2919,-1.3016,-1.3165,-1.3568,-1.3615,-1.3515,-1.3266,-1.3218,-1.318,-1.3123,-1.3022,-1.3007,-1.317,-1.305,-1.305,-1.3213,-1.3218,-1.3314,-1.3467,-1.3615,-1.3999,-1.4702,-1.464,-1.496,-1.5564,-1.5697,-1.5792,-1.583,-1.5957,-1.5768,-1.5445,-1.5635,-1.5451,-1.4994,-1.4691,-1.4829,-1.5102,-1.4744,-1.4738,-1.4841,-1.4949,-1.4869,-1.4789,-1.4748,-1.4932,-1.5108,-1.5108,-1.4743,-1.4378,-1.4378,-1.3999,-1.3615,-1.3615,-1.3804,-1.4238,-1.5121,-1.6023,-1.6599,-1.6196,-1.5903,-1.5685,-1.5688,-1.5642,-1.5647,-1.5788,-1.5793,-1.5967,-1.6322,-1.6379,-1.6379,-1.6379,-1.5773,-1.5347,-1.5347,-1.4565,-1.4021,-1.3892,-1.355,-1.326,-1.307,-1.272,-1.2605,-1.2728,-1.249,-1.2461,-1.2571,-1.2885,-1.304,-1.2926,-1.3339,-1.3485,-1.0753,-1.0949,-1.106,-1.118,-1.1352,-1.139,-1.091,-1.0956,-1.0913,-1.0293,-1.0655,-1.1175,-1.1477,-1.1523,-1.1523,-1.1523,-1.1473,-1.1473,-1.1673,-1.1623,-1.1769,-1.23,-1.2398,-1.255,-1.2949,-1.2827,-1.2774,-1.29,-1.2745,-1.2749,-1.2983,-1.2929,-1.2925,-1.305,-1.2666,-1.2666,-1.3152,-1.2876,-1.3016,-1.3515,-1.3515,-1.3705,-1.4087,-1.4019,-1.4381,-1.5079,-1.5226,-1.5187,-1.4954,-1.5034,-1.4977,-1.488,-1.5022,-1.4852,-1.4496,-1.4419,-1.4326,-1.4217,-1.4066,-1.4118,-1.4321,-1.4373,-1.4471,-1.4518,-1.4518,-1.4507,-1.449,-1.449,-1.4019,-1.3494,-1.3494,-1.3122,-1.2749,-1.2749,-1.2749,-1.2939,-1.3542,-1.4597,-1.5256,-1.4788,-1.4996,-1.5033,-1.4563,-1.4659,-1.4907,-1.5216,-1.5339,-1.5504,-1.5936,-1.6259,-1.6322,-1.6029,-1.5536,-1.5055,-1.4688,-1.3846,-1.3239,-1.3049,-1.2585,-1.229,-1.2228,-1.205,-1.1992,-1.1992,-1.2239,-1.2292,-1.2265,-1.2582,-1.2595,-1.2443,-1.2957,-1.3091,-1.0312,-1.062,-1.0879,-1.1282,-1.136,-1.119,-1.0541,-1.0685,-1.0622,-0.9566,-0.996,-1.0597,-1.1092,-1.1437,-1.1623,-1.1473,-1.1473,-1.1477,-1.1473,-1.1372,-1.1523,-1.1877,-1.1972,-1.213,-1.2524,-1.2236,-1.2129,-1.2475,-1.2314,-1.226,-1.2475,-1.2627,-1.2627,-1.2471,-1.2071,-1.2121,-1.2622,-1.2482,-1.2667,-1.3213,-1.3223,-1.3324,-1.3467,-1.3389,-1.3663,-1.4277,-1.4577,-1.4582,-1.4299,-1.4299,-1.4294,-1.4277,-1.4427,-1.4253,-1.3978,-1.4087,-1.3899,-1.3615,-1.3615,-1.3716,-1.3921,-1.3921,-1.4057,-1.4291,-1.4291,-1.4129,-1.3972,-1.3972,-1.3389,-1.2764,-1.2764,-1.2447,-1.2076,-1.2076,-1.2076,-1.2194,-1.2713,-1.3397,-1.3867,-1.3782,-1.4093,-1.4147,-1.3492,-1.3835,-1.4262,-1.4524,-1.473,-1.5059,-1.5633,-1.5961,-1.6019,-1.5609,-1.5113,-1.4565,-1.391,-1.3009,-1.2401,-1.227,-1.186,-1.1622,-1.1622,-1.1622,-1.1622,-1.1622,-1.197,-1.2008,-1.1806,-1.2023,-1.2018,-1.1872,-1.2492,-1.2615,-1.0031,-1.013,-1.0281,-1.0895,-1.1053,-1.0937,-1.0491,-1.0415,-1.0226,-0.9375,-0.9263,-0.9362,-0.9649,-1.0779,-1.1473,-1.0871,-1.1171,-1.1473,-1.1326,-1.1423,-1.1623,-1.2026,-1.2081,-1.2229,-1.2627,-1.2286,-1.1981,-1.1923,-1.2112,-1.1954,-1.1305,-1.1819,-1.1873,-1.1305,-1.1255,-1.1255,-1.1305,-1.2026,-1.2311,-1.2066,-1.2554,-1.2852,-1.3016,-1.2759,-1.2812,-1.3107,-1.3884,-1.4264,-1.4299,-1.4299,-1.4025,-1.3663,-1.381,-1.361,-1.3261,-1.3409,-1.3515,-1.3615,-1.3615,-1.3621,-1.3615,-1.3615,-1.3815,-1.4015,-1.4015,-1.3894,-1.3815,-1.3815,-1.3241,-1.2609,-1.2609,-1.2349,-1.2076,-1.2076,-1.1977,-1.2177,-1.3157,-1.2926,-1.2738,-1.3459,-1.3104,-1.2692,-1.2479,-1.3068,-1.3604,-1.3735,-1.4046,-1.4583,-1.5551,-1.5541,-1.541,-1.523,-1.4378,-1.3537,-1.2948,-1.2108,-1.1685,-1.1619,-1.1622,-1.1622,-1.1622,-1.1622,-1.1622,-1.1622,-1.1317,-1.113,-1.1062,-1.1145,-1.1249,-1.1432,-1.1875,-1.2188,-0.993,-1.0309,-1.0517,-1.0628,-1.0845,-1.0767,-0.9911,-0.9841,-0.9761,-0.8877,-0.9142,-0.9373,-0.8627,-0.951,-1.0248,-1.0014,-1.0504,-1.0912,-1.0859,-1.1316,-1.1628,-1.1728,-1.1723,-1.1723,-1.1773,-1.1364,-1.1158,-1.1473,-1.1213,-1.1103,-1.12,-1.141,-1.141,-1.1204,-1.0854,-1.0749,-1.083,-1.1647,-1.2039,-1.2012,-1.2107,-1.2318,-1.2554,-1.2201,-1.2206,-1.2554,-1.2949,-1.319,-1.3281,-1.3387,-1.3291,-1.3157,-1.3311,-1.3258,-1.3157,-1.3329,-1.3415,-1.3467,-1.3563,-1.3615,-1.3615,-1.3615,-1.3515,-1.3367,-1.3367,-1.3025,-1.2691,-1.2691,-1.2398,-1.2004,-1.2004,-1.2013,-1.1972,-1.1972,-1.1877,-1.1863,-1.2095,-1.2059,-1.1991,-1.2225,-1.2233,-1.2146,-1.2038,-1.2206,-1.253,-1.2802,-1.3215,-1.3739,-1.4349,-1.4664,-1.4647,-1.4282,-1.355,-1.2887,-1.2417,-1.1868,-1.1622,-1.1622,-1.1622,-1.1622,-1.1622,-1.1622,-1.1527,-1.1253,-1.0927,-1.0869,-1.1082,-1.0831,-1.089,-1.1201,-1.1315,-1.1426,-0.9425,-0.9644,-0.9808,-0.9968,-1.0069,-0.9933,-0.9297,-0.9349,-0.9226,-0.8276,-0.8578,-0.8757,-0.7767,-0.8198,-0.8843,-0.917,-0.9784,-1.0273,-1.0494,-1.097,-1.1325,-1.156,-1.1528,-1.1477,-1.1372,-1.0922,-1.0722,-1.1019,-1.0765,-1.0604,-1.0639,-1.0846,-1.0799,-1.049,-1.0138,-0.9928,-0.9854,-1.0884,-1.1338,-1.1266,-1.1706,-1.1977,-1.2081,-1.1823,-1.1873,-1.2229,-1.2377,-1.2524,-1.2725,-1.2832,-1.2881,-1.2934,-1.2983,-1.308,-1.3128,-1.3248,-1.3329,-1.3415,-1.3515,-1.3462,-1.3415,-1.3568,-1.3228,-1.2832,-1.2972,-1.2545,-1.2022,-1.2022,-1.1823,-1.1623,-1.1623,-1.1723,-1.1823,-1.1773,-1.1723,-1.1623,-1.1473,-1.1523,-1.1523,-1.1473,-1.1683,-1.1851,-1.1674,-1.1863,-1.2068,-1.2188,-1.2578,-1.3025,-1.3462,-1.3794,-1.3801,-1.3433,-1.2999,-1.2466,-1.1996,-1.1751,-1.1622,-1.1622,-1.1622,-1.1622,-1.1622,-1.1516,-1.1358,-1.1077,-1.0646,-1.0532,-1.0744,-1.0379,-1.0385,-1.0707,-1.0693,-1.0739,0.0,0.0,0.0,-0.8793,-0.8635,-0.8395,-0.875,-0.8851,-0.8627,-0.7702,-0.751,-0.7419,-0.7078,-0.7021,-0.7341,-0.83,-0.8959,-0.9594,-1.0239,-1.0345,-1.0734,-1.1562,-1.156,-1.146,-1.1473,-1.107,-1.0718,-1.0466,-1.0667,-1.0446,-0.9599,-1.0072,-0.9925,-0.8995,-0.9005,-0.8798,-0.8424,-0.9699,-1.0167,-0.9814,-1.1204,-1.1773,-1.1673,-1.1673,-1.1823,-1.213,-1.2229,-1.2426,-1.2681,-1.2827,-1.2881,-1.2881,-1.2881,-1.2983,-1.308,-1.308,-1.3205,-1.3367,-1.3367,-1.3218,-1.3064,-1.3462,-1.3094,-1.252,-1.288,-1.2442,-1.1877,-1.1877,-1.1673,-1.1523,-1.1523,-1.1623,-1.1673,-1.1523,-1.1523,-1.1473,-1.1326,-1.1322,-1.1322,-1.1322,-1.1571,-1.1656,-1.1336,-1.1875,-1.2239,-1.1822,-1.2149,-1.2551,-1.3032,-1.3011,-1.2909,-1.2709,-1.2538,-1.2201,-1.1619,-1.1622,-1.1622,-1.1622,-1.1615,-1.1608,-1.1608,-1.1231,-1.1055,-1.1044,-1.0426,-1.0097,-1.0082,-0.9768,-0.9725,-0.9999,-0.9999,-1.0154,-0.8423,0.0,0.0,0.0,0.0,0.0,-0.7965,-0.8093,-0.8126,-0.7668,-0.7914,-0.799,-0.7261,-0.7447,-0.7706,-0.7727,-0.8206,-0.8655,-0.884,-0.9653,-1.0276,-1.0311,-1.045,-1.05,-1.0305,-0.9928,-0.9625,-0.9577,-0.9361,-0.9051,-0.8633,-0.8622,-0.8524,-0.8277,-0.8476,-0.858,-0.8524,-0.9086,-0.9395,-0.9361,-0.9976,-1.0541,-1.1057,-1.1057,-1.1414,-1.213,-1.2229,-1.2175,-1.2026,-1.2529,-1.2827,-1.2881,-1.2475,-1.2578,-1.2876,-1.2143,-1.2447,-1.3157,-1.2924,-1.2827,-1.289,-1.3122,-1.2691,-1.2071,-1.2166,-1.1868,-1.1477,-1.1477,-1.1423,-1.1372,-1.1473,-1.1528,-1.1528,-1.1528,-1.1523,-1.1473,-1.1326,-1.1322,-1.1322,-1.1322,-1.1357,-1.1396,-1.1344,-1.1494,-1.155,-1.1447,-1.1978,-1.2385,-1.2261,-1.2323,-1.2305,-1.2248,-1.1772,-1.154,-1.16,-1.1622,-1.1622,-1.1622,-1.1398,-1.1269,-1.1269,-1.0898,-1.0613,-1.0375,-1.0192,-0.9983,-0.9749,-0.9658,-0.9614,-0.9721,-0.9721,-0.9773,-0.7953,-0.8057,-0.8158,-0.7699,0.0,0.0,-0.752,-0.7561,-0.7598,-0.7534,-0.781,-0.7881,-0.737,-0.7538,-0.7655,-0.7458,-0.7695,-0.803,-0.8334,-0.8956,-0.9491,-0.9754,-0.9906,-0.9893,-0.9832,-0.9562,-0.9361,-0.9208,-0.8823,-0.842,-0.8036,-0.7924,-0.7834,-0.7753,-0.7908,-0.7992,-0.8049,-0.8517,-0.8834,-0.8945,-0.9409,-0.9921,-1.049,-1.049,-1.0791,-1.1401,-1.1447,-1.1397,-1.1301,-1.1714,-1.2017,-1.2166,-1.1868,-1.1918,-1.2112,-1.1538,-1.1787,-1.2398,-1.2339,-1.2304,-1.2314,-1.2696,-1.226,-1.1673,-1.1828,-1.1623,-1.1322,-1.1322,-1.1322,-1.1322,-1.1423,-1.1423,-1.1423,-1.1423,-1.1423,-1.1423,-1.1322,-1.1322,-1.1322,-1.1322,-1.1322,-1.1322,-1.1322,-1.1322,-1.1327,-1.1486,-1.1747,-1.1926,-1.1894,-1.1849,-1.1831,-1.187,-1.1551,-1.1417,-1.1608,-1.1622,-1.1622,-1.1622,-1.1314,-1.1074,-1.1074,-1.0631,-1.0294,-1.0104,-0.9965,-0.9804,-0.9614,-0.9614,-0.951,-0.9364,-0.9364,-0.9256,-0.7338,-0.7251,-0.7273,-0.7232,-0.7009,0.0,-0.7379,-0.7299,-0.7151,-0.7339,-0.738,-0.7404,-0.7404,-0.7474,-0.7499,-0.7458,-0.7458,-0.7676,-0.8299,-0.8334,-0.8629,-0.9487,-0.9546,-0.9554,-0.9681,-0.9662,-0.9458,-0.9106,-0.8714,-0.8227,-0.7685,-0.7624,-0.7493,-0.7288,-0.7326,-0.7298,-0.7201,-0.7946,-0.8368,-0.8521,-0.9145,-0.9558,-0.9909,-0.9913,-1.0064,-1.0364,-1.0415,-1.0415,-1.0517,-1.0639,-1.0901,-1.1145,-1.115,-1.1154,-1.1204,-1.1053,-1.1187,-1.1425,-1.1656,-1.1619,-1.1523,-1.2175,-1.1873,-1.1326,-1.1723,-1.1573,-1.1322,-1.1322,-1.1322,-1.1322,-1.1322,-1.1322,-1.1322,-1.1322,-1.1322,-1.1322,-1.1322,-1.1272,-1.1221,-1.1276,-1.1322,-1.1322,-1.1322,-1.1322,-1.14,-1.1733,-1.1554,-1.1498,-1.1847,-1.1604,-1.1363,-1.1441,-1.1479,-1.1531,-1.1567,-1.1604,-1.1608,-1.1571,-1.1202,-1.1004,-1.0967,-1.0371,-1.0046,-1.0046,-0.976,-0.9562,-0.951,-0.951,-0.9364,-0.9008,-0.9008,-0.8794,-0.7625,-0.7613,-0.7595,-0.7523,-0.7479,0.0,-0.7354,-0.7203,-0.7106,-0.7167,-0.7357,-0.7545,-0.7545,-0.7897,-0.8122,-0.7901,-0.7901,-0.7802,-0.762,-0.8105,-0.8453,-0.8431,-0.8839,-0.9069,-0.8856,-0.8629,-0.848,-0.8378,-0.7908,-0.7529,-0.7333,-0.7173,-0.6881,-0.636,-0.686,-0.7036,-0.6756,-0.7351,-0.7788,-0.8058,-0.8162,-0.8573,-0.9183,-0.9302,-0.9662,-1.0265,-1.0364,-1.0214,-0.9965,-1.0119,-1.0525,-1.1023,-1.0694,-1.0804,-1.1103,-1.0226,-1.0482,-1.1191,-1.0931,-1.0947,-1.107,-1.1528,-1.1377,-1.1019,-1.1326,-1.1372,-1.1322,-1.1322,-1.1322,-1.1322,-1.1322,-1.1322,-1.1322,-1.1322,-1.1322,-1.1322,-1.1322,-1.0913,-1.071,-1.1221,-1.1322,-1.1322,-1.1322,-1.1322,-1.14,-1.1733,-1.1728,-1.1784,-1.1941,-1.1476,-1.109,-1.1186,-1.0957,-1.0883,-1.1147,-1.141,-1.1508,-1.1187,-1.0861,-1.0565,-1.0305,-0.9914,-0.9709,-0.9709,-0.9647,-0.9462,-0.911,-0.911,-0.9057,-0.9008,-0.9008,-0.8956,-0.7829,-0.7867,-0.7871,-0.7987,-0.7855,0.0,0.0,-0.7664,-0.7551,-0.7725,-0.7721,-0.7718,-0.7718,-0.7902,-0.8059,-0.7932,-0.7951,-0.7942,-0.7739,-0.8014,-0.8296,-0.8318,-0.8637,-0.8727,-0.8613,-0.8427,-0.8159,-0.7817,-0.7529,-0.714,-0.656,-0.6402,-0.615,-0.5742,-0.5951,-0.6267,-0.6748,-0.6969,-0.7354,-0.7901,-0.7901,-0.8159,-0.8626,-0.8735,-0.9044,-0.9395,-0.9558,-0.9462,-0.9309,-0.9465,-0.9766,-1.0119,-1.0028,-1.0186,-1.0332,-0.9817,-0.9921,-1.0379,-1.0332,-1.0344,-1.051,-1.0867,-1.0972,-1.0922,-1.1074,-1.1171,-1.1322,-1.1322,-1.1322,-1.1322,-1.1322,-1.1322,-1.1322,-1.1322,-1.1065,-1.0863,-1.0863,-1.0395,-1.0083,-1.0391,-1.0442,-1.0647,-1.1217,-1.1322,-1.14,-1.1733,-1.1352,-1.1116,-1.1383,-1.0677,-1.0224,-1.0496,-1.0407,-1.043,-1.0821,-1.0982,-1.1004,-1.0843,-1.0528,-1.0272,-1.0108,-0.979,-0.9614,-0.9614,-0.9614,-0.9413,-0.9008,-0.8798,-0.858,-0.8365,-0.8365,-0.8259,-0.7942,-0.8021,-0.8066,-0.8365,-0.8234,-0.8121,0.0,0.0,0.0,-0.8246,-0.807,-0.7902,-0.7924,-0.7946,-0.7912,-0.7866,-0.7939,-0.8047,-0.804,-0.8113,-0.8281,-0.8608,-0.8689,-0.8701,-0.8748,-0.8482,-0.8102,-0.7596,-0.7485,-0.7072,-0.6159,-0.6005,-0.5716,-0.533,-0.518,-0.5545,-0.6453,-0.6447,-0.6796,-0.7553,-0.7658,-0.7845,-0.8005,-0.8106,-0.8312,-0.8577,-0.8586,-0.8646,-0.8804,-0.8959,-0.9057,-0.9211,-0.9465,-0.9562,-0.9614,-0.9614,-0.9614,-0.9614,-0.9836,-0.9943,-0.9995,-1.0312,-1.062,-1.0922,-1.0922,-1.1074,-1.1322,-1.1322,-1.1322,-1.1322,-1.1322,-1.1221,-1.112,-1.112,-1.0655,-1.0245,-1.0245,-0.9825,-0.9458,-0.9562,-0.951,-0.9769,-1.0808,-1.1065,-1.1243,-1.1513,-1.0813,-1.0366,-1.0786,-0.9855,-0.9366,-0.9738,-0.9772,-0.9879,-1.0212,-1.0322,-1.0329,-1.0268,-1.0081,-0.997,-0.9904,-0.9704,-0.9614,-0.9614,-0.9614,-0.9357,-0.8903,-0.8583,-0.8156,-0.7723,-0.7777,-0.7616,-0.7942,-0.8021,-0.8103,-0.8557,-0.8646,-0.8587,-0.8502,0.0,-0.8136,-0.7974,0.0,-0.8223,-0.8389,0.0,0.0,-0.8098,-0.8081,-0.8119,-0.8229,-0.8532,-0.8727,-0.8868,-0.9037,-0.9194,-0.9288,-0.8578,-0.8133,-0.8125,-0.7853,-0.7487,-0.6991,-0.6833,-0.6219,-0.4972,-0.534,-0.537,-0.4958,-0.5584,-0.5984,-0.6241,-0.6871,-0.7192,-0.7244,-0.7345,-0.7774,-0.8424,-0.799,-0.8209,-0.8804,-0.8959,-0.9057,-0.9211,-0.9361,-0.9514,-0.9614,-0.9614,-0.9614,-0.9614,-0.9614,-0.9669,-0.9673,-0.9943,-1.0462,-1.0922,-1.0922,-1.1074,-1.1322,-1.1322,-1.1322,-1.1322,-1.1322,-1.0913,-1.0502,-1.0502,-1.0083,-0.9669,-0.9669,-0.9246,-0.9037,-0.9506,-0.9194,-0.9089,-0.9666,-1.0186,-1.0574,-1.0701,-1.0444,-1.0257,-1.0492,-0.9552,-0.8888,-0.8912,-0.8944,-0.8941,-0.8997,-0.9287,-0.9326,-0.901,-0.9363,-0.9449,-0.9123,-0.9431,-0.9614,-0.9614,-0.9614,-0.9201,-0.8477,-0.8424,-0.8156,-0.7723,-0.8103,-0.8099,-0.816,-0.8111,-0.8144,-0.8724,-0.8688,-0.8569,-0.874,-0.8737,-0.8651,-0.8541,0.0,0.0,0.0,0.0,0.0,0.0,-0.7985,-0.7928,-0.8146,-0.8353,-0.8645,-0.8982,-0.9082,-0.8971,-0.8501,-0.8247,-0.7829,-0.7204,-0.7218,-0.6878,-0.6086,-0.5928,-0.551,-0.4694,-0.4599,-0.4673,-0.4952,-0.5077,-0.5417,-0.5872,-0.6294,-0.644,-0.6378,-0.6627,-0.6937,-0.724,-0.755,-0.7937,-0.8312,-0.8692,-0.8959,-0.911,-0.9208,-0.9409,-0.9614,-0.9614,-0.9614,-0.9614,-0.9614,-0.9614,-0.9669,-0.9892,-1.015,-1.0411,-1.062,-1.0773,-1.0875,-1.1023,-1.1074,-1.1019,-1.0812,-1.0608,-1.0297,-1.0035,-0.951,-0.9141,-0.9141,-0.8676,-0.8368,-0.8577,-0.8359,-0.8249,-0.8458,-0.9246,-0.9821,-0.9786,-0.9313,-0.9003,-0.9098,-0.8334,-0.7922,-0.8145,-0.8157,-0.8269,-0.8543,-0.8706,-0.8725,-0.8553,-0.8762,-0.8925,-0.9015,-0.9162,-0.9361,-0.9614,-0.9361,-0.8945,-0.8424,-0.8103,-0.7777,-0.7348,-0.7566,-0.7566,-0.8332,-0.8242,-0.8234,-0.8732,-0.8696,-0.8574,-0.8643,-0.8814,-0.898,-0.8858,-0.871,0.0,0.0,0.0,-0.8146,-0.8148,0.0,-0.7902,-0.809,-0.8189,-0.8462,-0.9126,-0.9208,-0.893,-0.8112,-0.7914,-0.7558,-0.6748,-0.6694,-0.6343,-0.5437,-0.5279,-0.4963,-0.4398,-0.4025,-0.4134,-0.4699,-0.4522,-0.4706,-0.5241,-0.5531,-0.5627,-0.5557,-0.5901,-0.6187,-0.6419,-0.6969,-0.7447,-0.7925,-0.8365,-0.8742,-0.9008,-0.9162,-0.9364,-0.9566,-0.9562,-0.9614,-0.9614,-0.9614,-0.9614,-0.9614,-0.9832,-0.9943,-1.0051,-1.0308,-1.0419,-1.0518,-1.0722,-1.0714,-1.0553,-1.0293,-1.0083,-0.9825,-0.9357,-0.8886,-0.8517,-0.8461,-0.8156,-0.7845,-0.7791,-0.7732,-0.7619,-0.7622,-0.8464,-0.9044,-0.8866,-0.8445,-0.8075,-0.8028,-0.7453,-0.719,-0.7512,-0.7563,-0.7673,-0.7996,-0.8049,-0.8099,-0.8209,-0.8206,-0.8421,-0.8798,-0.8847,-0.8949,-0.9253,-0.9106,-0.8742,-0.8206,-0.7993,-0.7616,-0.7085,-0.719,-0.719,-0.8291,-0.8373,-0.8373,-0.8414,-0.8696,-0.8769,-0.7931,-0.839,-0.8899,-0.8496,-0.848,-0.8637,-0.9111,-0.8608,-0.811,-0.82,-0.8203,0.0,0.0,-0.8104,-0.8351,-0.9299,-0.9559,-0.9385,-0.8622,-0.7802,-0.7368,-0.7483,-0.6673,-0.605,-0.5609,-0.5565,-0.5081,-0.4043,-0.3979,-0.389,-0.3648,-0.3779,-0.3823,-0.3871,-0.4604,-0.4911,-0.4913,-0.5091,-0.5585,-0.6368,-0.6007,-0.6635,-0.7925,-0.7928,-0.8359,-0.9008,-0.9162,-0.926,-0.9413,-0.9562,-0.9614,-0.9614,-0.9614,-0.9614,-0.9614,-0.9614,-0.9777,-0.9999,-0.9999,-1.0257,-1.0522,-1.0518,-1.0194,-0.9817,-0.9814,-0.9246,-0.8629,-0.8474,-0.8162,-0.7845,-0.7574,-0.7619,-0.7673,-0.7518,-0.7521,-0.7467,-0.7311,-0.7949,-0.8312,-0.7978,-0.8028,-0.8028,-0.772,-0.7348,-0.7085,-0.7136,-0.7136,-0.7136,-0.7139,-0.7139,-0.7297,-0.7723,-0.772,-0.7937,-0.8424,-0.8421,-0.8424,-0.8421,-0.8794,-0.858,-0.7723,-0.8156,-0.794,-0.7085,-0.7512,-0.7458,-0.7818,-0.769,-0.7648,-0.7776,-0.7566,-0.7419,-0.7631,-0.7805,-0.7905,-0.7915,-0.8053,-0.8225,-0.8367,-0.8363,-0.8275,-0.8252,-0.8267,-0.8239,0.0,-0.8157,-0.8236,-0.8508,-0.8756,-0.8666,-0.8147,-0.7595,-0.7,-0.6367,-0.5875,-0.5494,-0.5164,-0.5122,-0.4907,-0.4479,-0.4228,-0.4044,-0.3875,-0.3741,-0.3674,-0.3672,-0.4002,-0.4145,-0.4052,-0.425,-0.4678,-0.5176,-0.5479,-0.6072,-0.6851,-0.7602,-0.8034,-0.8359,-0.8945,-0.9211,-0.9312,-0.9514,-0.9614,-0.9614,-0.9614,-0.9614,-0.9614,-0.9614,-0.9666,-0.9725,-0.9725,-0.9829,-0.988,-0.9781,-0.9673,-0.9458,-0.8991,-0.8679,-0.8368,-0.7889,-0.7732,-0.7628,-0.7521,-0.7518,-0.7568,-0.7521,-0.7416,-0.7365,-0.7317,-0.741,-0.7512,-0.7402,-0.7399,-0.7399,-0.7297,-0.719,-0.7085,-0.7085,-0.7085,-0.7085,-0.7085,-0.7085,-0.7136,-0.7297,-0.7297,-0.7509,-0.794,-0.7937,-0.8099,-0.8371,-0.8206,-0.799,-0.7723,-0.7616,-0.7405,-0.7085,-0.7244,-0.7244,-0.7565,-0.7395,-0.7308,-0.7227,-0.7038,-0.6905,-0.7138,-0.7311,-0.7459,-0.7441,-0.7598,-0.7754,-0.7953,-0.8161,-0.8335,-0.8266,-0.8428,-0.8448,0.0,-0.8039,-0.7994,-0.7875,-0.8249,-0.8286,-0.7713,-0.7382,-0.6813,-0.5892,-0.5447,-0.5163,-0.5001,-0.4956,-0.4867,-0.4692,-0.44,-0.415,-0.4015,-0.3738,-0.358,-0.358,-0.3672,-0.3672,-0.3624,-0.3895,-0.4181,-0.4526,-0.506,-0.5641,-0.6261,-0.7015,-0.7444,-0.7664,-0.8302,-0.8679,-0.8945,-0.9409,-0.9614,-0.9614,-0.9614,-0.9614,-0.9614,-0.9614,-0.9614,-0.9614,-0.9614,-0.9514,-0.9364,-0.926,-0.9047,-0.8672,-0.8259,-0.8106,-0.7892,-0.7461,-0.741,-0.7467,-0.7357,-0.7413,-0.7416,-0.7357,-0.7306,-0.7255,-0.7255,-0.7141,-0.7085,-0.7085,-0.7085,-0.7085,-0.7085,-0.7085,-0.7085,-0.7085,-0.7085,-0.7085,-0.7085,-0.7085,-0.7085,-0.7085,-0.7085,-0.719,-0.7456,-0.7509,-0.7619,-0.794,-0.7777,-0.7616,-0.7509,-0.7351,-0.7244,-0.7085,-0.7085,-0.7085]}]]